     2.11           OBSERVATION DATA    G (GPS)             RINEX VERSION / TYPE
teqc 2010Oct21 OPUS Account 20111030 16:36:49UTC            PGM / RUN BY / DATE
C 1524                                                      MARKER NAME
1207                                                        MARKER NUMBER
CSMIDDLETON NGS                                             OBSERVER / AGENCY
0220316069 TRIMBLE 5700 1.30                                REC # / TYPE / VERS
12469273 TRM41249.00 NONE                                   ANT # / TYPE
  -755280.6442 -5524618.8739  3086357.3989                  APPROX POSITION XYZ
        2.0000        0.0000        0.0000                  ANTENNA: DELTA H/E/N
     1     1                                                WAVELENGTH FACT L1/2
     5    L1    L2    C1    P1    P2                        # / TYPES OF OBSERV
    15                                                      LEAP SECONDS
  2011     9    28     0     0   30.0000000     GPS         TIME OF FIRST OBS
                                                            END OF HEADER
 11  9 28  0  0 30.0000000  0  9G15G29G12G02G30G21G05G25G26
  -9561759.30556  -7433015.84654  23811896.1954                   23811899.2424
 -34104477.42257 -26558131.91856  21920328.8984                   21920328.9104
 -65957724.41858 -51377290.89455  22209566.9534                   22209567.2504
 -85068415.07457 -66268450.91355  22058022.4304                   22058019.3054
 -25435191.34057 -19802035.73755  22780033.8594                   22780035.7034
   -173264.80156   -120550.26353  25218593.1254                   25218595.3674
 -66759437.45357 -52001497.44656  20696458.1484                   20696456.9774
 -50371645.99258 -39228378.26056  21750493.7584                   21750495.7704
 -22088666.63757 -17194294.97354  22934098.2424                   22934099.4264
 11  9 28  0  1  0.0000000  0  9G15G29G12G02G30G21G05G25G26
  -9764671.35246  -7591128.90744  23773283.5704                   23773286.1524
 -34286573.49647 -26700024.91246  21885677.5474                   21885676.8914
 -65982590.08648 -51396666.79945  22204835.2894                   22204835.4104
 -85130555.87947 -66316872.31045  22046196.5704                   22046194.4064
 -25555558.28547 -19895828.16345  22757129.4774                   22757130.1334
   -336660.49246   -247871.46243  25187499.2814                   25187502.4654
 -66819812.22748 -52048542.74146  20684969.0704                   20684967.6644
 -50445959.88748 -39286285.22846  21736352.1724                   21736354.3594
 -22282866.96147 -17345619.79144  22897142.4844                   22897144.0664
 11  9 28  0  1 30.0000000  0  9G15G29G12G02G30G21G05G25G26
  -9967524.22746  -7749195.82844  23734682.0084                   23734683.9064
 -34468432.66047 -26841733.26846  21851070.5634                   21851070.9224
 -66007107.26247 -51415771.14645  22200170.3284                   22200170.1054
 -85192547.34047 -66365177.35045  22034399.9144                   22034397.7464
 -25675287.03147 -19989123.30145  22734346.0164                   22734346.7504
   -499988.54346   -375139.98943  25156419.0084                   25156422.4264
 -66879692.61748 -52095202.79546  20673574.2114                   20673573.0314
 -50519697.64548 -39343743.25546  21722320.0084                   21722322.3634
 -22476770.97747 -17496713.72244  22860244.2664                   22860245.0004
 11  9 28  0  2  0.0000000  0  9G15G29G12G02G30G21G05G25G26
 -10170317.82046  -7907216.52744  23696091.4924                   23696093.7664
 -34650054.68748 -26983256.85546  21816509.3674                   21816509.3484
 -66031281.83248 -51434608.52645  22195569.7974                   22195569.7974
 -85254391.75447 -66413367.79945  22022631.7274                   22022629.3484
 -25794380.18747 -20081923.17445  22711683.2034                   22711684.5234
   -663252.09446   -502358.24543  25125351.6174                   25125353.4884
 -66939083.55148 -52141481.45346  20662272.7734                   20662271.3204
 -50592863.52348 -39400755.65546  21708397.7814                   21708399.8204
 -22670377.85247 -17647576.12744  22823402.2344                   22823402.4264
 11  9 28  0  2 30.0000000  0  9G15G29G12G02G30G21G05G25G26
 -10373051.44546  -8065190.57244  23657512.0634                   23657514.4264
 -34831440.04348 -27124596.01346  21781992.4614                   21781992.3054
 -66055119.14548 -51453183.09045  22191033.9844                   22191033.3324
 -85316091.46147 -66461445.48645  22010890.7504                   22010887.9574
 -25912840.28547 -20174229.74845  22689141.1254                   22689142.0514
   -826454.12146   -629528.49643  25094294.4224                   25094296.9024
 -66997989.44548 -52187382.17646  20651063.1954                   20651062.1684
 -50665461.73048 -39457325.72246  21694582.3984                   21694584.5474
 -22863686.13747 -17798205.85745  22786616.3674                   22786617.3794
 11  9 28  0  3  0.0000000  0  9G15G29G12G02G30G21G05G25G26
 -10575721.10546  -8223114.74644  23618945.1884                   23618947.9304
 -35012585.08248 -27265747.92346  21747521.7584                   21747521.5044
 -66078620.44147 -51471495.83445  22186561.5084                   22186561.5514
 -85377645.18447 -66509409.42645  21999177.5084                   21999174.9414
 -26030666.32447 -20266042.25145  22666719.3754                   22666720.6644
   -989593.75046   -756650.13943  25063249.5864                   25063253.6054
 -67056411.16048 -52232905.59446  20639945.8524                   20639944.7384
 -50737492.93048 -39513453.95146  21680875.8204                   21680877.7504
 -23056691.21947 -17948599.29945  22749888.8674                   22749889.6214
 11  9 28  0  3 30.0000000  0  9G15G29G12G02G30G21G05G25G26
 -10778321.10247  -8380984.67844  23580391.1954                   23580393.8794
 -35193484.92647 -27406708.75746  21713097.4844                   21713097.1334
 -66101786.50047 -51489547.36145  22182153.2584                   22182153.3244
 -85439050.27347 -66557257.52545  21987492.6254                   21987490.0824
 -26147855.92647 -20357358.84045  22644419.0004                   22644420.4024
  -1152669.08646   -883721.71643  25032217.6724                   25032220.6724
 -67114348.56248 -52278051.63246  20628920.7114                   20628919.4614
 -50808956.31248 -39569139.73046  21667276.3524                   21667278.4384
 -23249386.45347 -18098751.33945  22713220.3524                   22713221.5434
 11  9 28  0  4  0.0000000  0  9G15G29G12G02G30G21G05G25G26
 -10980848.93747  -8538798.37044  23541852.1954                   23541853.6644
 -35374137.94547 -27547477.27446  21678720.2114                   21678720.4304
 -66124621.10947 -51507340.59945  22177808.6884                   22177808.0704
 -85500306.70347 -66604989.81445  21975835.7344                   21975832.8444
 -26264409.73447 -20448180.01445  22622239.4534                   22622240.4534
  -1315681.48346  -1010744.31943  25001197.9144                   25001199.9144
 -67171804.31648 -52322822.36846  20617987.1254                   20617985.9804
 -50879854.30148 -39624384.93746  21653784.9614                   21653787.0314
 -23441768.92647 -18248659.63444  22676611.0704                   22676611.6174
 11  9 28  0  4 30.0000000  0  9G15G29G12G02G30G21G05G25G26
 -11183303.30147  -8696554.83444  23503326.1414                   23503327.8984
 -35554542.87948 -27688052.48246  21644390.7344                   21644390.3484
 -66147127.96947 -51524878.47945  22173525.4064                   22173525.1374
 -85561415.78947 -66652607.28545  21964207.2814                   21964204.5124
 -26380329.17247 -20538506.88145  22600181.2034                   22600181.5514
  -1478631.91046  -1137718.42243  24970189.5864                   24970191.3134
 -67228781.78948 -52367220.40546  20607144.8674                   20607143.5314
 -50950189.90648 -39679191.92746  21640400.8984                   21640402.7814
 -23633835.96547 -18398322.16445  22640061.8594                   22640062.2504
 11  9 28  0  5  0.0000000  0  9G15G29G12G02G30G21G05G25G26
 -11385679.19547  -8854250.17844  23464814.9844                   23464816.5784
 -35734695.80148 -27828431.31346  21610108.2734                   21610108.3674
 -66169308.37948 -51542161.96045  22169304.1954                   22169304.2344
 -85622375.42247 -66700108.29445  21952606.9304                   21952604.4414
 -26495612.85947 -20628338.33345  22578243.1954                   22578244.6524
  -1641519.69946  -1264643.82043  24939192.1954                   24939194.8524
 -67285281.34048 -52411246.04046  20596393.5084                   20596391.9534
 -51019963.36748 -39733560.88646  21627123.1254                   21627125.4694
 -23825582.10947 -18547734.61844  22603573.5314                   22603574.1294
 11  9 28  0  5 30.0000000  0  9G15G29G12G02G30G21G05G25G26
 -10012546.11347  -7784276.20444  23726113.4304                   23726115.1724
 -34339167.88747 -26741006.90446  21875668.1484                   21875668.3404
 -64615743.93747 -50331592.31345  22464937.7894                   22464938.1844
 -84107762.65247 -65519890.56245  22240828.3284                   22240825.5824
 -25034836.45347 -19490071.03745  22856219.5394                   22856220.8834
   -228919.01246   -163915.90543  25208001.1484                   25208004.3134
 -65765882.69548 -51227299.05846  20885525.0164                   20885524.1454
 -49513753.51248 -38559890.90046  21913745.7894                   21913747.6334
 -22441576.43047 -17469288.53844  22866941.1414                   22866941.7774
 11  9 28  0  6  0.0000000  0  9G15G29G12G02G30G21G05G25G26
 -10214755.83647  -7941842.06244  23687634.2504                   23687636.0004
 -34518809.67648 -26880987.47646  21841483.7424                   21841483.6764
 -64637280.48447 -50348374.09545  22460839.6724                   22460839.9964
 -84168422.27747 -65567157.81845  22229285.2114                   22229282.4964
 -25148849.08647 -19578912.07645  22834523.8524                   22834524.7274
   -391682.59046   -290744.55143  25177028.1644                   25177031.1254
 -65821432.64148 -51270584.73846  20874954.7664                   20874953.3634
 -49582408.00848 -38613387.93046  21900681.0944                   21900682.6294
 -22632669.07047 -17618191.82344  22830577.7274                   22830578.0474
 11  9 28  0  6 30.0000000  0  9G15G29G12G02G30G21G05G25G26
 -10416881.64147  -8099342.52244  23649170.6174                   23649171.9064
 -34698196.06248 -27020769.01946  21807347.5864                   21807347.4024
 -64658503.06647 -50364911.21745  22456801.0784                   22456801.2814
 -84228935.21547 -65614310.74145  22217769.4304                   22217766.9844
 -25262230.37547 -19667261.16945  22812948.0394                   22812949.0084
   -554388.02746   -417527.87743  25146066.3914                   25146069.2194
 -65876514.87948 -51313505.96846  20864472.7034                   20864471.5784
 -49650509.52748 -38666454.08246  21887721.8204                   21887723.2034
 -22823432.99247 -17766838.91844  22794275.4304                   22794276.9344
 11  9 28  0  7  0.0000000  0  9G15G29G12G02G30G21G05G25G26
 -10618918.72747  -8256773.85144  23610724.1094                   23610725.6094
 -34877322.98848 -27160348.39946  21773260.9304                   21773260.6604
 -64679413.14547 -50381204.85045  22452822.2504                   22452822.5204
 -84289299.53547 -65661347.88645  22206283.0314                   22206280.5944
 -25374978.95747 -19755117.21645  22791493.0474                   22791494.1294
   -717034.34046   -544265.20543  25115115.5704                   25115118.4614
 -65931130.03548 -51356063.23646  20854079.8204                   20854078.6094
 -49718058.46548 -38719089.63746  21874867.3754                   21874869.5634
 -23013862.82847 -17915225.67244  22758038.2814                   22758038.2624
 11  9 28  0  7 30.0000000  0  9G15G29G12G02G30G21G05G25G26
 -10820861.94947  -8414132.05444  23572295.5004                   23572296.8834
 -35056186.18748 -27299722.28146  21739224.4614                   21739224.3954
 -64700011.57847 -50397255.62945  22448902.3984                   22448902.6724
 -84349512.95347 -65708267.45645  22194824.4924                   22194821.8204
 -25487093.13747 -19842478.93945  22770158.0164                   22770159.2664
   -879620.13746   -670955.26543  25084176.3674                   25084179.0824
 -65985278.22748 -51398256.64046  20843776.0004                   20843774.7424
 -49785054.70348 -38771294.52546  21862118.7734                   21862121.1024
 -23203952.92647 -18063347.77344  22721865.3444                   22721865.9774
 11  9 28  0  8  0.0000000  0  9G15G29G12G02G30G21G05G25G26
 -11022711.03546  -8571416.91844  23533884.9384                   23533886.2074
 -35234785.91448 -27438890.84346  21705238.0554                   21705237.8484
 -64720303.62147 -50413067.66945  22445041.2734                   22445041.2774
 -84409578.03547 -65755071.41645  22183394.8674                   22183392.2974
 -25598575.94547 -19929348.67745  22748943.6804                   22748944.7544
  -1042148.49246   -797600.61643  25053248.9144                   25053250.7154
 -66038964.14148 -51440089.82046  20833559.7664                   20833558.3594
 -49851502.84848 -38823072.33946  21849474.2424                   21849475.9534
 -23393701.96947 -18211204.06045  22685756.5004                   22685757.8634
 11  9 28  0  8 30.0000000  0  9G15G29G12G02G30G21G05G25G26
 -11224462.80546  -8728625.88244  23495492.5704                   23495494.0204
 -35413119.53148 -27577852.04846  21671301.9924                   21671301.6454
 -64740292.52747 -50428643.50145  22441237.3444                   22441237.3164
 -84469494.03547 -65801759.21345  22171992.7894                   22171990.3014
 -25709427.47347 -20015726.50345  22727849.5944                   22727850.4574
  -1204619.69546   -924201.40243  25022331.7814                   25022333.8524
 -66092189.52748 -51481564.15046  20823431.2424                   20823430.1214
 -49917404.69148 -38874424.43946  21836933.1804                   21836935.5434
 -23583106.03147 -18358791.56544  22649714.6174                   22649715.0434
 11  9 28  0  9  0.0000000  0  9G15G29G12G02G30G21G05G25G26
 -11426114.81646  -8885757.14944  23457119.2664                   23457121.4964
 -35591185.19148 -27716604.46646  21637417.3134                   21637417.4264
 -64759981.65247 -50443985.72945  22437490.7734                   22437490.9224
 -84529261.08647 -65848330.96045  22160619.4454                   22160617.2624
 -25819648.82047 -20101613.24045  22706875.0554                   22706876.1684
  -1367034.64546  -1050758.37543  24991424.2194                   24991427.1414
 -66144957.58648 -51522682.10646  20813389.9694                   20813388.5864
 -49982762.64148 -38925352.75146  21824495.8834                   21824498.1914
 -23772162.13347 -18506107.90644  22613738.0474                   22613738.3444
 11  9 28  0  9 30.0000000  0  9G15G29G12G02G30G21G05G25G26
 -11627662.95746  -9042807.49544  23418765.5084                   23418767.4144
 -35768979.63348 -27855145.55246  21603584.1564                   21603583.9694
 -64779373.09447 -50459096.02445  22433800.8284                   22433801.2624
 -84588878.48847 -65894786.10145  22149274.6174                   22149272.2464
 -25929239.67647 -20187008.71145  22686020.3594                   22686021.4924
  -1529392.90646  -1177271.24243  24960528.3444                   24960531.2774
 -66197269.80548 -51563444.88446  20803435.2974                   20803433.6454
 -50047578.07448 -38975858.31246  21812162.3204                   21812164.0204
 -23960865.36347 -18653149.29944  22577829.1254                   22577829.6334
 11  9 28  0 10  0.0000000  0  9G15G29G12G02G30G21G05G25G26
 -11829103.60246  -9199774.05144  23380432.2034                   23380434.4304
 -35946499.87548 -27993472.96146  21569802.9774                   21569803.1844
 -64798468.97347 -50473975.97745  22430166.5944                   22430167.0354
 -84648345.13747 -65941123.76345  22137958.3284                   22137955.9654
 -26038199.96947 -20271912.81945  22665285.8914                   22665287.1454
  -1691694.20746  -1303739.66643  24929643.5704                   24929646.0594
 -66249127.62548 -51603853.58146  20793566.8364                   20793565.7304
 -50111852.39548 -39025942.23046  21799931.1334                   21799933.4184
 -24149211.41847 -18799912.36444  22541987.8524                   22541988.5394
 11  9 28  0 10 30.0000000  0  9G15G29G12G02G30G21G05G25G26
 -12030434.63747  -9356655.20344  23342120.3594                   23342121.9844
 -36123744.51648 -28131585.61546  21536074.7734                   21536074.3554
 -64817273.46947 -50488628.89145  22426589.0784                   22426588.5164
 -84707661.37147 -65987344.21345  22126671.2344                   22126668.8054
 -26146530.89547 -20356326.50545  22644671.4924                   22644672.7344
  -1853940.15646  -1430164.91743  24898768.7424                   24898771.6414
 -66300533.78948 -51643910.33946  20783784.6884                   20783783.3554
 -50175588.54348 -39075606.79246  21787802.5004                   21787804.5984
 -24337197.47347 -18946394.91144  22506215.1724                   22506215.6214
 11  9 28  0 11  0.0000000  0  9G15G29G12G02G30G21G05G25G26
 -12231653.57447  -9513449.01344  23303830.0474                   23303831.1054
 -36300711.71148 -28269482.08446  21502398.7504                   21502398.5314
 -64835790.27347 -50503057.63345  22423065.0634                   22423065.3014
 -84766827.58647 -66033447.75345  22115412.4924                   22115409.8094
 -26254233.79747 -20440250.81945  22624175.6884                   22624177.2774
  -2016131.71547  -1556547.85843  24867904.8524                   24867907.4184
 -66351491.95348 -51683617.98346  20774087.6484                   20774086.7274
 -50238789.21948 -39124854.09946  21775775.8524                   21775778.1374
 -24524820.35247 -19092594.45845  22470512.0784                   22470511.9024
 11  9 28  0 11 30.0000000  0  9G15G29G12G02G30G21G05G25G26
 -12432757.40646  -9670153.13644  23265560.9534                   23265562.7464
 -36477399.19148 -28407160.59046  21468776.0704                   21468776.0124
 -64854022.15247 -50517264.36045  22419596.1414                   22419595.8134
 -84825844.13347 -66079434.69345  22104182.1254                   22104179.2114
 -26361309.26247 -20523686.21945  22603800.0784                   22603801.6804
  -2178269.36346  -1682888.78343  24837050.9694                   24837053.3204
 -66402004.01248 -51722978.01846  20764475.4774                   20764474.2504
 -50301456.60248 -39173685.85846  21763850.6954                   21763852.9494
 -24712076.46947 -19238508.22545  22434878.2034                   22434878.6254
 11  9 28  0 12  0.0000000  0  9G15G29G12G02G30G21G05G25G26
 -12633745.65647  -9826767.16944  23227313.6254                   23227315.7274
 -36653807.17248 -28544621.28646  21435207.1644                   21435206.4064
 -64871974.78547 -50531253.49045  22416179.3674                   22416179.5044
 -84884712.52348 -66125306.16245  22092979.6564                   22092977.1454
 -26467760.46947 -20606635.20145  22583543.3364                   22583544.8554
  -2340356.19546  -1809190.05743  24806207.0864                   24806209.2854
 -66452074.93748 -51761994.31346  20754947.1644                   20754945.9224
 -50363595.37948 -39222105.72146  21752025.8054                   21752028.5004
 -24898964.68447 -19384135.30445  22399314.6644                   22399315.3094
 11  9 28  0 12 30.0000000  0  9G15G29G12G02G30G21G05G25G26
 -12834614.45347  -9983288.15544  23189089.9614                   23189091.3444
 -36829932.61348 -28681861.81646  21401691.1724                   21401691.0704
 -64889650.39847 -50545026.74345  22412815.8134                   22412816.2114
 -84943432.03147 -66171061.60945  22081805.7894                   22081802.9024
 -26573587.31647 -20689097.67645  22563405.2114                   22563406.8244
  -2502392.06246  -1935451.70643  24775372.8914                   24775374.8874
 -66501706.11348 -51800667.94146  20745502.7114                   20745501.4414
 -50425207.00048 -39270114.80146  21740301.7194                   21740304.0434
 -25085480.43747 -19529472.15345  22363821.5234                   22363822.2974
 11  9 28  0 13  0.0000000  0  9G15G29G12G02G30G21G05G25G26
 -11459935.57047  -8912109.62545  23450682.4924                   23450684.1484
 -35430348.48048 -27591276.73746  21668023.4304                   21668023.1254
 -63331632.93047 -49330987.20745  22709296.8204                   22709297.2154
 -83426581.70748 -64989100.33945  22370452.7114                   22370449.3754
 -25103368.49647 -19543472.62545  22843178.4844                   22843179.7424
  -1088953.20746   -834070.62243  25044340.8284                   25044342.6454
 -64975479.60948 -50611400.53646  21035933.9144                   21035932.8204
 -48910873.10248 -38090114.39946  22028470.2814                   22028472.2304
 -23696195.31647 -18446912.21145  22628193.7504                   22628193.8284
 11  9 28  0 13 30.0000000  0  9G15G29G12G02G30G21G05G25G26
 -11660557.52347  -9068438.27045  23412505.4224                   23412506.5204
 -35605902.82848 -27728072.26346  21634616.0554                   21634615.9844
 -63348765.09047 -49344337.02245  22706036.8284                   22706036.3164
 -83485003.70747 -65034623.97145  22359335.2424                   22359332.4734
 -25207950.11747 -19624964.80345  22823277.0944                   22823278.7974
  -1250889.65646   -960254.74643  25013525.5084                   25013527.2664
 -65024239.60248 -50649395.32546  21026655.3524                   21026654.0864
 -48971438.38748 -38137308.15346  22016945.0784                   22016947.1094
 -23881956.47747 -18591661.04845  22592844.3834                   22592844.9884
 11  9 28  0 14  0.0000000  0  9G15G29G12G02G30G21G05G25G26
 -11861051.43447  -9224667.14644  23374352.2274                   23374353.5204
 -35781167.87548 -27864642.36746  21601264.6024                   21601264.1484
 -63365629.89847 -49357478.48845  22702827.3754                   22702827.5474
 -83543276.67247 -65080031.46045  22348245.9774                   22348243.4064
 -25311910.10947 -19705972.59845  22803494.1174                   22803495.6094
  -1412777.00046  -1086400.64143  24982718.8754                   24982721.1054
 -65072567.51248 -50687053.43046  21017458.9924                   21017457.4884
 -49031483.72748 -38184096.77046  22005518.7974                   22005520.9924
 -24067334.72747 -18736111.53645  22557568.3524                   22557568.5164
 11  9 28  0 14 30.0000000  0  9G15G29G12G02G30G21G05G25G26
 -12061419.06647  -9380797.58545  23336223.5084                   23336224.8014
 -35956146.04348 -28000988.93846  21567967.2424                   21567966.6954
 -63382234.94947 -49370417.54345  22699668.2034                   22699667.5204
 -83601404.47347 -65125325.84245  22337184.6174                   22337182.4344
 -25415253.89147 -19786500.21944  22783828.7814                   22783829.5394
  -1574620.21946  -1212512.15043  24951921.0394                   24951923.2624
 -65120470.36748 -50724380.32046  21008343.2664                   21008341.8284
 -49091016.01647 -38230485.59146  21994189.8444                   21994192.6994
 -24252330.89147 -18880264.28445  22522364.4844                   22522364.5004
 11  9 28  0 15  0.0000000  0  9G15G29G12G02G30G21G05G25G26
 -12261653.23847  -9536824.05944  23298120.3984                   23298121.0704
 -36130830.96148 -28137106.98746  21534725.7734                   21534725.3674
 -63398579.79747 -49383153.84445  22696557.4384                   22696557.5044
 -83659383.41847 -65170504.24445  22326151.9844                   22326149.2854
 -25517978.46147 -19866545.35545  22764280.9844                   22764281.6914
  -1736416.28946  -1338586.84543  24921132.1334                   24921133.5394
 -65167946.63748 -50761374.81946  20999309.0164                   20999307.4494
 -49150033.80948 -38276473.51746  21982958.9534                   21982961.4574
 -24436937.80147 -19024113.70845  22487234.7894                   22487235.5044
 11  9 28  0 15 30.0000000  0  9G15G29G12G02G30G21G05G25G26
 -12461748.80947  -9692742.53844  23260043.0234                   23260044.3754
 -36305218.12548 -28272993.03946  21501540.7194                   21501540.5514
 -63414665.06647 -49395687.88645  22693496.7734                   22693497.0904
 -83717211.03147 -65215564.73245  22315147.8284                   22315145.2074
 -25620082.52047 -19946106.95645  22744850.9224                   22744852.7664
  -1898163.35546  -1464623.46243  24890352.7814                   24890354.5664
 -65214996.10948 -50798036.73546  20990355.7034                   20990354.1914
 -49208537.10948 -38322060.53646  21971826.7504                   21971828.9104
 -24621149.41447 -19167655.11845  22452180.5394                   22452180.9024
 11  9 28  0 16  0.0000000  0  9G15G29G12G02G30G21G05G25G26
 -12661704.91847  -9848552.31644  23221992.3674                   23221993.0944
 -36479307.57048 -28408647.08946  21468412.4924                   21468412.6604
 -63430496.07047 -49408023.80645  22690484.4614                   22690484.2424
 -83774888.80547 -65260508.45245  22304171.8674                   22304169.4924
 -25721569.02047 -20025187.37345  22725538.8524                   22725540.5124
  -2059864.09846  -1590623.85843  24859581.8674                   24859583.2854
 -65261623.81248 -50834369.99846  20981482.4614                   20981481.4964
 -49266530.47748 -38367250.19746  21960791.1094                   21960793.5634
 -24804964.16447 -19310887.26345  22417201.1094                   22417201.9964
 11  9 28  0 16 30.0000000  0  9G15G29G12G02G30G21G05G25G26
 -12861518.58247 -10004251.08544  23183969.0394                   23183970.1484
 -36653097.03148 -28544067.39346  21435341.4064                   21435341.3244
 -63446075.86747 -49420163.96945  22687519.7034                   22687520.0394
 -83832416.82047 -65305335.47145  22293224.5634                   22293222.4534
 -25822438.96947 -20103787.33945  22706343.4694                   22706345.0314
  -2221518.92246  -1716588.46542  24828819.7974                   24828821.6484
 -65307832.02048 -50870376.39946  20972689.7734                   20972688.3484
 -49324016.27048 -38412044.34446  21949851.5864                   21949854.2854
 -24988378.67647 -19453807.55145  22382298.7894                   22382299.2584
 11  9 28  0 17  0.0000000  0  9G15G29G12G02G30G21G05G25G26
 -13061188.37147 -10159837.78644  23145972.6954                   23145973.6684
 -36826585.82448 -28679253.39546  21402327.5394                   21402326.9924
 -63461409.30547 -49432112.14645  22684601.8754                   22684602.2034
 -83889796.64547 -65350047.03745  22282305.8204                   22282303.1414
 -25922695.09847 -20181909.00345  22687265.5234                   22687266.8324
  -2383130.47346  -1842519.44142  24798065.6334                   24798067.0234
 -65353625.12948 -50906059.34646  20963975.7274                   20963974.3404
 -49380998.83248 -38456446.36746  21939008.2894                   21939011.1454
 -25171391.02347 -19596414.45845  22347472.9454                   22347473.1564
 11  9 28  0 17 30.0000000  0  9G15G29G12G02G30G21G05G25G26
 -13260711.38747 -10315310.08044  23108004.6804                   23108005.1804
 -36999771.56248 -28814203.28046  21369371.3364                   21369371.2154
 -63476499.30547 -49443870.65145  22681729.9774                   22681730.4614
 -83947027.70747 -65394642.66345  22271415.2584                   22271413.0664
 -26022338.23047 -20259553.00445  22668304.6724                   22668305.6804
  -2544698.75846  -1968416.63843  24767320.0234                   24767321.9734
 -65399005.14148 -50941420.40146  20955339.8674                   20955338.6294
 -49437480.24648 -38500457.88646  21928260.6564                   21928262.7664
 -25353997.45347 -19738705.09545  22312723.4614                   22312724.2194
 11  9 28  0 18  0.0000000  0  9G15G29G12G02G30G21G05G25G26
 -13460082.85947 -10470664.32844  23070065.4224                   23070066.2544
 -37172650.19548 -28948913.84246  21336473.8834                   21336473.2234
 -63491347.37147 -49455440.62545  22678904.3284                   22678904.9144
 -84004108.15247 -65439120.95045  22260552.7194                   22260550.5594
 -26121367.86347 -20336718.97245  22649459.8594                   22649461.0434
  -2706223.00446  -2094279.57443  24736583.7584                   24736586.4064
 -65443973.02047 -50976460.32446  20946783.0704                   20946781.8404
 -49493461.50847 -38544079.67146  21917607.3054                   21917609.4924
 -25536192.82047 -19880675.38845  22278053.1174                   22278053.4024
 11  9 28  0 18 30.0000000  0  9G15G29G12G02G30G21G05G25G26
 -13659303.72347 -10625901.20844  23032155.0084                   23032155.8364
 -37345223.44948 -29083386.45246  21303634.1174                   21303633.6604
 -63505960.99647 -49466827.94945  22676123.9614                   22676123.8204
 -84061041.77747 -65483484.80645  22249719.3284                   22249716.6954
 -26219789.02747 -20413410.77344  22630730.2814                   22630731.7194
  -2867707.92246  -2220111.84243  24705854.0944                   24705855.0394
 -65488535.24648 -51011184.14146  20938303.1094                   20938301.7464
 -49548949.00048 -38587316.68846  21907048.3914                   21907050.7814
 -25717977.53947 -20022325.73945  22243460.8204                   22243460.7934
 11  9 28  0 19  0.0000000  0  9G15G29G12G02G30G21G05G25G26
 -13858369.88347 -10781017.54044  22994273.6724                   22994274.6644
 -37517487.89848 -29217618.43946  21270853.1414                   21270852.5744
 -63520341.90647 -49478033.90245  22673387.2424                   22673387.5704
 -84117827.39847 -65527733.34745  22238913.4144                   22238910.6174
 -26317601.75447 -20489628.47445  22612117.8674                   22612118.3794
  -3029152.71946  -2345912.88443  24675132.1484                   24675133.4024
 -65532693.06247 -51045592.84446  20929899.9224                   20929898.5594
 -49603944.23048 -38630170.14146  21896583.2734                   21896585.7234
 -25899347.13747 -20163652.59245  22208946.6724                   22208947.4414
 11  9 28  0 19 30.0000000  0  9G15G29G12G02G30G21G05G25G26
 -14057278.45747 -10936011.07545  22956423.1484                   22956423.6024
 -37689441.37548 -29351608.11146  21238131.5944                   21238131.0864
 -63534493.27047 -49489061.00245  22670694.0314                   22670694.9494
 -84174464.65647 -65571866.27145  22228135.4534                   22228133.0274
 -26414807.15647 -20565372.93245  22593620.1564                   22593621.4494
  -3190557.96146  -2471682.99843  24644417.3674                   24644419.3754
 -65576449.13348 -51079688.49846  20921573.7274                   20921572.1454
 -49658449.65248 -38672641.91746  21886211.3364                   21886213.7624
 -26080297.96547 -20304653.16845  22174513.2664                   22174513.1994
 11  9 28  0 20  0.0000000  0 10G15G29G12G02G30G21G05G25G26G18
 -14256028.50047 -11090881.08645  22918602.1414                   22918602.3984
 -37861083.63748 -29485355.28546  21205468.9224                   21205468.5864
 -63548420.17647 -49499913.19145  22668044.4064                   22668044.8634
 -84230955.39147 -65615885.02845  22217385.2424                   22217383.0314
 -26511408.44547 -20640646.65545  22575237.6884                   22575238.4844
  -3351926.27746  -2597424.47743  24613709.4774                   24613712.0864
 -65619808.04747 -51113474.66446  20913322.5164                   20913321.5784
 -49712469.86348 -38714735.60346  21875931.5234                   21875933.6524
 -26260828.46147 -20445326.21045  22140159.5554                   22140158.9774
   2870973.70755   2250006.46952  24524288.8754                   24524290.1954
 11  9 28  0 20 30.0000000  0 10G15G29G12G02G30G21G05G25G26G18
 -12879200.13747 -10018027.63845  23180603.5634                   23180604.3364
 -36456996.63348 -28391261.46946  21472657.9144                   21472657.4224
 -61986715.29747 -48283000.36745  22965226.3834                   22965226.9104
 -82711887.58647 -64432195.83145  22506454.9064                   22506451.9494
 -25031993.61347 -19487855.88045  22856760.4534                   22856761.4494
  -1937841.97356  -1495540.19053  24882801.4844                   24882802.7274
 -64087360.72347 -49919359.89146  21204937.6094                   21204936.2504
 -48190595.60948 -37528859.58846  22165534.5164                   22165536.9924
 -24865519.25447 -19358072.20845  22405677.6334                   22405677.2894
   4252290.06346   3326357.16343  24787144.8204                   24787147.4494
 11  9 28  0 21  0.0000000  0 10G15G29G12G02G30G21G05G25G26G18
 -13077647.63747 -10172661.90045  23142839.6254                   23142841.2934
 -36628033.88347 -28524537.21246  21440110.6724                   21440109.8524
 -62000227.48047 -48293529.39545  22962655.7114                   22962656.0044
 -82768108.66847 -64476004.45845  22495756.3524                   22495753.4224
 -25127414.64847 -19562209.94645  22838602.3914                   22838603.9734
  -2099162.41846  -1621244.30643  24852102.6094                   24852104.8094
 -64129956.66047 -49952551.54646  21196831.8204                   21196830.5944
 -48243677.39148 -37570222.03446  22155433.1804                   22155435.8594
 -25045223.20347 -19498101.18245  22371481.3444                   22371481.1334
   4058375.55946   3175255.09943  24750243.8444                   24750247.0354
 11  9 28  0 21 30.0000000  0 10G15G29G12G02G30G21G05G25G26G18
 -13275939.44547 -10327174.86045  23105106.1954                   23105107.3164
 -36798764.32848 -28657573.87246  21407621.5234                   21407621.0864
 -62013536.33647 -48303899.98345  22960123.3674                   22960123.6804
 -82824194.01647 -64519707.32945  22485083.0944                   22485080.7384
 -25222246.65647 -19636105.00545  22820557.0164                   22820557.6174
  -2260459.04746  -1746929.81943  24821408.6024                   24821410.6214
 -64172174.20748 -49985448.35846  21188798.0084                   21188796.8984
 -48296293.16848 -37611221.36646  22145421.3364                   22145423.5234
 -25224507.82448 -19637803.40845  22337364.4534                   22337363.7934
   3864660.96546   3024308.85243  24713381.1724                   24713384.4844
 11  9 28  0 22  0.0000000  0 10G15G29G12G02G30G21G05G25G26G18
 -13474070.63347 -10481562.64545  23067403.1174                   23067404.2854
 -36969184.39547 -28790368.68846  21375191.5944                   21375190.9454
 -62026643.47747 -48314113.38845  22957629.2734                   22957629.0984
 -82880141.71547 -64563302.92445  22474436.3984                   22474434.0594
 -25316489.62947 -19709541.12945  22802622.8524                   22802624.6484
  -2421730.91446  -1872596.12844  24790719.7274                   24790721.3874
 -64214014.50848 -50018051.20546  21180836.1334                   21180835.0084
 -48348444.21148 -37651858.56846  22135497.0554                   22135499.2544
 -25403368.31647 -19777175.15645  22303328.6884                   22303328.0274
   3671148.77046   2873520.31743  24676557.5234                   24676561.1054
 11  9 28  0 22 30.0000000  0 10G15G29G12G02G30G21G05G25G26G18
 -13672034.68447 -10635820.17345  23029731.5474                   23029732.5004
 -37139288.45747 -28922917.27046  21342822.1094                   21342821.1914
 -62039548.65247 -48324169.41945  22955173.4384                   22955173.6884
 -82935948.57847 -64606788.78245  22463817.2194                   22463814.6764
 -25410141.42247 -19782516.58645  22784802.1804                   22784803.1214
  -2582975.18046  -1998240.84344  24760036.2424                   24760038.1414
 -64255476.73448 -50050359.45546  21172945.8594                   21172944.7194
 -48400129.75047 -37692133.04346  22125661.8914                   22125664.0904
 -25581797.77347 -19916211.02845  22269373.9924                   22269373.8164
   3477843.47746   2722893.04143  24639772.5704                   24639775.8634
 11  9 28  0 23  0.0000000  0 10G15G29G12G02G30G21G05G25G26G18
 -13869828.95347 -10789945.42444  22992092.4694                   22992092.8524
 -37309074.43447 -29055217.98046  21310512.6414                   21310512.0664
 -62052255.42247 -48334070.83945  22952755.2194                   22952755.9304
 -82991614.37947 -64650164.73045  22453224.3674                   22453221.8364
 -25503203.53947 -19855032.52745  22767092.1094                   22767093.6724
  -2744192.64846  -2123864.69043  24729357.2814                   24729358.9494
 -64296563.45348 -50082375.10246  21165127.8524                   21165126.1684
 -48451352.57847 -37732046.96046  22115913.9614                   22115916.9064
 -25759792.98047 -20054908.51845  22235502.5234                   22235502.7154
   3284746.37946   2572428.01243  24603027.2194                   24603029.7154
 11  9 28  0 23 30.0000000  0 10G15G29G12G02G30G21G05G25G26G18
 -14067450.59847 -10943936.15544  22954486.0164                   22954486.5124
 -37478540.22347 -29187269.19946  21278264.3204                   21278263.8984
 -62064767.05547 -48343820.24345  22950374.1884                   22950374.7814
 -83047139.13347 -64693430.76445  22442658.0234                   22442655.3164
 -25595677.63747 -19927090.28445  22749494.8134                   22749496.7194
  -2905384.57446  -2249468.67643  24698683.0474                   24698684.8054
 -64337277.60548 -50114100.43746  21157379.9384                   21157378.9654
 -48502115.65647 -37771602.64146  22106253.9454                   22106256.8524
 -25937350.75847 -20193265.14345  22201714.4304                   22201714.3554
   3091858.27746   2422125.73543  24566322.1484                   24566323.6134
 11  9 28  0 24  0.0000000  0 10G15G29G12G02G30G21G05G25G26G18
 -14264892.64147 -11097786.96244  22916913.8364                   22916914.4144
 -37647679.40648 -29319065.92746  21246078.3284                   21246077.8594
 -62077082.51247 -48353416.77545  22948031.0314                   22948031.4964
 -83102518.34447 -64736583.39345  22432119.9844                   22432117.2624
 -25687560.95747 -19998687.71745  22732010.7344                   22732012.0274
  -3066547.19946  -2375049.76743  24668014.6334                   24668016.5044
 -64377617.55948 -50145534.16746  21149703.5784                   21149702.4184
 -48552417.52047 -37810798.91746  22096682.5084                   22096684.9494
 -26114463.56247 -20331275.03545  22168011.4224                   22168010.6844
   2899184.30146   2271990.41443  24529656.8834                   24529659.0944
 11  9 28  0 24 30.0000000  0 10G15G29G12G02G30G21G05G25G26G18
 -14462154.49647 -11251497.32645  22879376.7114                   22879376.7074
 -37816492.28548 -29450608.36746  21213954.5864                   21213953.8054
 -62089207.46147 -48362864.84345  22945723.5234                   22945723.9224
 -83157754.29347 -64779624.38445  22421608.9694                   22421606.3874
 -25778857.37947 -20069827.81745  22714637.5634                   22714638.9184
  -3227683.19146  -2500610.17643  24637351.6024                   24637353.2814
 -64417588.29348 -50176680.21746  21142097.2664                   21142096.3834
 -48602263.40647 -37849639.90046  22087196.8524                   22087199.4104
 -26291130.58647 -20468937.57945  22134392.7344                   22134392.0824
   2706723.31646   2122021.05843  24493032.5234                   24493035.9384
 11  9 28  0 25  0.0000000  0 10G15G29G12G02G30G21G05G25G26G18
 -14659231.22747 -11405063.46945  22841874.0704                   22841873.8204
 -37984974.71947 -29581893.32546  21181893.0004                   21181892.7504
 -62101143.41447 -48372165.64545  22943452.5634                   22943453.1094
 -83212845.03547 -64822552.21445  22411125.0554                   22411122.8324
 -25869566.48447 -20140510.24545  22697376.1414                   22697377.5124
  -3388791.49646  -2626149.00943  24606693.5234                   24606694.8754
 -64457190.56648 -50207539.13246  21134561.5314                   21134560.2154
 -48651654.14547 -37888126.22845  22077798.3594                   22077800.6604
 -26467346.23447 -20606248.37245  22100859.9224                   22100859.2384
   2514478.52046   1972220.14743  24456449.4694                   24456451.9264
 11  9 28  0 25 30.0000000  0 10G15G29G12G02G30G21G05G25G26G18
 -14856119.46147 -11558482.75245  22804406.9844                   22804407.3054
 -38153123.91448 -29712918.61546  21149895.3204                   21149894.9184
 -62112893.03147 -48381321.26245  22941216.3364                   22941217.3874
 -83267789.67647 -64865366.23045  22400669.6094                   22400667.0634
 -25959689.34847 -20210735.88245  22680226.1644                   22680227.8284
  -3549872.43446  -2751666.50843  24576040.5314                   24576041.9024
 -64496426.45348 -50238112.56046  21127095.1254                   21127093.6844
 -48700591.99248 -37926259.65146  22068485.9144                   22068488.0664
 -26643107.09447 -20743204.78145  22067412.8524                   22067412.8164
   2322451.51646   1822588.88043  24419907.6954                   24419910.3244
 11  9 28  0 26  0.0000000  0 10G15G29G12G02G30G21G05G25G26G18
 -15052819.21947 -11711755.17645  22766976.1724                   22766976.0824
 -38320940.74248 -29843684.91446  21117960.8754                   21117960.2624
 -62124462.53147 -48390336.53745  22939015.0004                   22939015.7194
 -83322590.72747 -64908068.30945  22390241.2194                   22390238.6454
 -26049230.44147 -20280508.20245  22663186.9064                   22663188.3444
  -3710929.35946  -2877165.27743  24545391.9144                   24545393.9964
 -64535301.59448 -50268404.88446  21119697.2424                   21119695.8524
 -48749082.79347 -37964044.73246  22059258.2504                   22059260.6374
 -26818412.38347 -20879806.21945  22034053.4924                   22034053.5904
   2130640.27346   1673125.82543  24383406.7664                   24383409.4774
 11  9 28  0 26 30.0000000  0 10G15G29G12G02G30G21G05G25G26G18
 -15249325.58647 -11864876.89545  22729581.9224                   22729582.1724
 -38488420.60248 -29974188.64146  21086090.2734                   21086089.6954
 -62135853.45347 -48399212.62445  22936847.6564                   22936848.6764
 -83377246.70347 -64950657.37445  22379840.3284                   22379838.1454
 -26138189.56647 -20349826.98345  22646258.8444                   22646259.9574
  -3871961.27046  -3002644.59143  24514749.0944                   24514749.9224
 -64573816.53548 -50298416.53146  21112368.0554                   21112366.9304
 -48797127.53147 -38001482.21846  22050115.8914                   22050118.3244
 -26993257.34047 -21016048.94845  22000781.6724                   22000781.5044
   1939047.61746   1523833.03343  24346947.8284                   24346950.6484
 11  9 28  0 27  0.0000000  0 10G15G29G12G02G30G21G05G25G26G18
 -15445635.63747 -12017845.63245  22692225.7664                   22692225.8014
 -38655562.08648 -30104428.69946  21054284.3524                   21054283.5904
 -62147068.25847 -48407951.50645  22934713.5164                   22934714.0634
 -83431757.11347 -64993132.99045  22369467.8754                   22369465.1914
 -26226568.04747 -20418693.34745  22629440.9614                   22629442.4344
  -4032968.51246  -3128104.67143  24484110.5554                   24484111.0664
 -64611973.86748 -50328149.50946  21105107.3204                   21105106.0204
 -48844728.84447 -38038574.19746  22041057.6644                   22041059.8014
 -27167638.23447 -21151930.05745  21967597.7424                   21967597.8914
   1747675.07446   1374711.76043  24310530.5474                   24310533.3674
 11  9 28  0 27 30.0000000  0 10G15G29G12G02G30G21G05G25G26G18
 -15641745.44547 -12170658.35945  22654906.8284                   22654907.3444
 -38822362.10548 -30234402.67646  21022543.2664                   21022543.2934
 -62158109.93747 -48416555.49345  22932612.4694                   22932612.8324
 -83486121.17247 -65035494.58645  22359122.8444                   22359119.7504
 -26314366.91047 -20487108.03545  22612733.7034                   22612734.8404
  -4193951.04347  -3253545.54243  24453476.1804                   24453477.4734
 -64649775.59848 -50357605.39646  21097913.5704                   21097912.4654
 -48891888.89547 -38075322.32746  22032083.1884                   22032085.7304
 -27341551.27047 -21287446.60645  21934503.2664                   21934503.2664
   1556524.43046   1225763.44043  24274156.6414                   24274158.8134
 11  9 28  0 28  0.0000000  0 10G15G29G12G02G30G21G05G25G26G18
 -14262225.12947 -11095707.33545  22917421.1024                   22917421.1254
 -37413391.65248 -29136503.54946  21290661.1564                   21290660.8404
 -60593560.78547 -47197426.35445  23230336.3204                   23230336.3484
 -81964915.85947 -63850139.77445  22648598.0784                   22648595.6374
 -24826164.23047 -19327469.59145  22895929.0634                   22895930.2344
  -2779482.81246  -2151362.41143  24722641.1254                   24722641.3914
 -63111802.25048 -49159184.60446  21390580.2194                   21390578.8674
 -47363188.29748 -36884127.08246  22322985.2584                   22322988.0314
 -25939566.56247 -20194990.89245  22201292.2974                   22201292.1254
   2941023.76246   2304594.34743  24537616.6564                   24537620.0904
 11  9 28  0 28 30.0000000  0 10G15G29G12G02G30G21G05G25G26G18
 -14457925.51247 -11248201.03745  22880180.2194                   22880180.3914
 -37579500.85248 -29265939.23246  21259051.9454                   21259051.4614
 -60604265.47747 -47205767.73345  23228299.6804                   23228299.6214
 -82018985.61747 -63892272.05345  22638308.9064                   22638306.8244
 -24912808.30947 -19394984.44845  22879441.1484                   22879441.8714
  -2940416.46547  -2276765.19243  24692016.3364                   24692016.5744
 -63148899.88348 -49188091.84946  21383520.9384                   21383519.8134
 -47409473.94947 -36920193.86046  22314177.5864                   22314179.9614
 -26112533.35247 -20329770.12345  22168377.7664                   22168377.5314
   2750320.28146   2155994.39443  24501327.6564                   24501329.3094
 11  9 28  0 29  0.0000000  0 10G15G29G12G02G30G21G05G25G26G18
 -14653417.25047 -11400532.14145  22842979.4144                   22842979.9884
 -37745261.63748 -29395103.42646  21227508.5474                   21227507.8714
 -60614806.87947 -47213981.88145  23226293.5554                   23226293.8244
 -82072908.45747 -63934289.84345  22628047.7274                   22628045.2774
 -24998878.01647 -19462051.72745  22863062.6724                   22863063.9494
  -3101327.30947  -2402150.22043  24661396.0084                   24661396.5164
 -63185649.84848 -49216728.17046  21376527.9304                   21376526.2584
 -47455327.16048 -36955923.66046  22305451.7344                   22305454.0664
 -26285022.66447 -20464177.28845  22135554.0474                   22135554.2894
   2559841.48446   2007569.55743  24465079.7194                   24465082.2584
 11  9 28  0 29 30.0000000  0 10G15G29G12G02G30G21G05G25G26G18
 -14848697.14547 -11552698.16045  22805819.0554                   22805819.0664
 -37910671.82848 -29523994.41746  21196032.1884                   21196031.9694
 -60625187.59847 -47222070.80445  23224318.0554                   23224318.1564
 -82126683.93747 -63976192.81345  22617814.6484                   22617812.1484
 -25084374.57847 -19528672.40745  22846792.8444                   22846794.8014
  -3262215.66046  -2527517.68243  24630779.3284                   24630779.9804
 -63222054.17248 -49245095.17046  21369599.8754                   21369598.6024
 -47500750.37148 -36991318.41446  22296807.9304                   22296810.2624
 -26457030.55547 -20598209.32845  22102822.1174                   22102822.1334
   2369588.78546   1859320.93843  24428876.2114                   24428878.1804
 11  9 28  0 30  0.0000000  0 10G15G29G12G02G30G21G05G25G26G18
 -15043760.71547 -11704695.64045  22768699.2814                   22768699.6484
 -38075727.87948 -29652609.48546  21164623.0084                   21164622.0274
 -60635410.02347 -47230036.39044  23222372.9064                   23222372.9344
 -82180310.50047 -64017979.73645  22607609.7584                   22607607.3714
 -25169298.68747 -19594847.02745  22830632.5784                   22830634.1844
  -3423081.02046  -2652867.25043  24600168.7814                   24600168.6764
 -63258114.61348 -49273194.20646  21362737.8594                   21362736.8874
 -47545745.43047 -37026379.52246  22288246.0554                   22288248.6724
 -26628553.09847 -20731863.18145  22070182.3834                   22070182.0704
   2179564.83646   1711250.43243  24392716.0704                   24392716.7424
 11  9 28  0 30 30.0000000  0 10G15G29G12G02G30G21G05G25G26G18
 -15238606.07447 -11856523.08245  22731621.3524                   22731621.6214
 -38240428.62147 -29780947.66746  21133281.6954                   21133280.4924
 -60645478.07047 -47237881.67444  23220456.5004                   23220457.0164
 -82233788.92647 -64059651.24545  22597433.2734                   22597430.8364
 -25253653.00847 -19660577.65745  22814580.1954                   22814582.1644
  -3583924.55146  -2778199.75443  24569560.0634                   24569561.0664
 -63293834.83248 -49301028.12746  21355940.5004                   21355939.4964
 -47590316.23447 -37061110.06446  22279764.6414                   22279766.8054
 -26799587.55147 -20865136.68445  22037635.2974                   22037635.0514
   1989769.07446   1563357.79343  24356599.4144                   24356599.7384
 11  9 28  0 31  0.0000000  0 10G15G29G12G02G30G21G05G25G26G18
 -15433231.38747 -12008179.08145  22694585.6804                   22694585.5784
 -38404772.94147 -29909008.12446  21102007.6094                   21102006.8634
 -60655396.21947 -47245610.16944  23218569.7274                   23218570.1294
 -82287120.11747 -64101208.00645  22587285.0474                   22587282.3014
 -25337440.57047 -19725866.67645  22798636.0704                   22798637.6604
  -3744748.07446  -2903516.71543  24538956.6334                   24538957.6884
 -63329218.02348 -49328599.43446  21349207.4224                   21349206.0124
 -47634466.87147 -37095513.18746  22271362.9614                   22271365.5274
 -26970132.28948 -20998028.62845  22005181.5634                   22005181.4224
   1800201.81647   1415643.14542  24320526.0864                   24320525.4344
 11  9 28  0 31 30.0000000  0 10G15G29G12G02G30G21G05G25G26G18
 -15627636.94547 -12159663.83245  22657591.4304                   22657591.5314
 -38568761.61748 -30036791.47346  21070801.6724                   21070800.7424
 -60665170.57047 -47253226.62644  23216709.1174                   23216710.2774
 -82340307.07447 -64142652.39245  22577163.8134                   22577161.2974
 -25420666.18047 -19790717.76945  22782798.8204                   22782799.6564
  -3905555.45746  -3028821.06343  24508355.7344                   24508356.7854
 -63364270.37148 -49355912.93346  21342537.0474                   21342535.6684
 -47678203.33247 -37129593.57845  22263040.1024                   22263042.4384
 -27140187.05148 -21130538.76745  21972821.6804                   21972821.0784
   1610861.06347   1268105.04743  24284495.3284                   24284496.1254
 11  9 28  0 32  0.0000000  0 10G15G29G12G02G30G21G05G25G26G18
 -15821818.27047 -12310973.87345  22620639.3444                   22620639.8404
 -38732391.38348 -30164295.13546  21039663.8204                   21039662.9654
 -60674803.47747 -47260732.85144  23214875.8594                   23214877.1484
 -82393348.45747 -64183983.34945  22567070.1804                   22567067.4264
 -25503330.47747 -19855131.49645  22767068.5634                   22767069.5514
  -4066345.85946  -3154112.14543  24477758.2114                   24477759.4144
 -63398993.28548 -49382969.72746  21335929.3754                   21335928.1644
 -47721527.33647 -37163352.58945  22254795.8204                   22254798.3794
 -27309747.23447 -21262663.52345  21940555.2734                   21940554.4344
   1421748.73846   1120744.92243  24248507.8134                   24248509.6724
 11  9 28  0 32 30.0000000  0 10G15G29G12G02G30G21G05G25G26G18
 -16015770.16446 -12462105.10345  22583731.9304                   22583731.9804
 -38895657.52048 -30291515.45646  21008595.3054                   21008594.4064
 -60684295.66047 -47268129.42844  23213069.8914                   23213070.9264
 -82446241.21947 -64225198.49345  22557005.0864                   22557002.7974
 -25585432.93047 -19919107.44845  22751444.8524                   22751446.1334
  -4227117.75046  -3279388.84043  24447163.5084                   24447165.5904
 -63433386.62148 -49409769.71746  21329384.7274                   21329383.3094
 -47764439.37947 -37196790.58346  22246630.3364                   22246632.9414
 -27478807.44547 -21394398.68045  21908384.3284                   21908383.9144
   1232868.30546    973565.46243  24212565.4454                   24212567.0434
 11  9 28  0 33  0.0000000  0 10G15G29G12G02G30G21G05G25G26G18
 -16209490.47747 -12613055.91545  22546867.8364                   22546867.8324
 -39058558.67648 -30418451.37846  20977596.4384                   20977595.2304
 -60693650.60947 -47275419.06244  23211289.8984                   23211290.8054
 -82498986.15647 -64266298.41145  22546968.0944                   22546965.9924
 -25666976.16847 -19982647.63845  22735927.4454                   22735928.6214
  -4387872.21546  -3404651.89343  24416572.8134                   24416574.8484
 -63467453.83648 -49436315.58146  21322902.1334                   21322900.7464
 -47806943.27747 -37229910.53146  22238541.9924                   22238544.4774
 -27647365.21147 -21525742.33445  21876308.3524                   21876307.9844
   1044220.09446    826567.05543  24176666.0784                   24176668.2194
 11  9 28  0 33 30.0000000  0 10G15G29G12G02G30G21G05G25G26G18
 -16402976.01647 -12763823.77845  22510048.8984                   22510049.0204
 -39221092.19947 -30545100.82446  20946666.7664                   20946666.2624
 -60702871.70347 -47282604.42244  23209535.6174                   23209536.2424
 -82551582.80947 -64307282.80445  22536958.9694                   22536956.8554
 -25747961.80147 -20045753.31845  22720516.5084                   22720518.3014
  -4548609.37946  -3529901.46843  24385985.5704                   24385988.0744
 -63501197.53948 -49462609.36146  21316480.5634                   21316479.5124
 -47849041.69947 -37262714.53846  22230530.7974                   22230533.5984
 -27815417.01247 -21656691.73245  21844329.1954                   21844328.5554
    855805.25046    679750.37543  24140810.9454                   24140814.9064
 11  9 28  0 34  0.0000000  0 10G15G29G12G02G30G21G05G25G26G18
 -16596223.96547 -12914406.50245  22473274.6954                   22473274.6564
 -39383256.46947 -30671462.54446  20915808.0084                   20915807.4064
 -60711962.11747 -47289687.94145  23207805.7034                   23207807.2664
 -82604031.01247 -64348151.52445  22526978.7344                   22526975.9574
 -25828392.03947 -20108426.23845  22705211.3834                   22705212.8134
  -4709330.00846  -3655138.15943  24355401.6564                   24355403.0594
 -63534620.44948 -49488653.16946  21310120.4614                   21310119.5594
 -47890738.03547 -37295205.22845  22222596.2584                   22222598.6134
 -27982960.33647 -21787244.89345  21812446.7344                   21812446.1684
    667624.44945    533116.19243  24105001.3204                   24105004.4614
 11  9 28  0 34 30.0000000  0 10G15G29G12G02G30G21G05G25G26G18
 -16789231.51647 -13064801.89145  22436546.6174                   22436546.5704
 -39545048.80947 -30797534.44346  20885020.3134                   20885019.6644
 -60720925.54747 -47296672.50145  23206099.9774                   23206101.1604
 -82656330.85247 -64388904.64845  22517026.6724                   22517023.8134
 -25908268.80947 -20170667.88645  22690011.4384                   22690012.4304
  -4870035.06646  -3780362.68943  24324820.9224                   24324821.7544
 -63567725.15248 -49514449.03446  21303820.6254                   21303819.7194
 -47932035.16047 -37327384.83945  22214737.3984                   22214739.9884
 -28149991.73047 -21917399.17545  21780661.8984                   21780660.8244
    479678.89146    386665.31643  24069237.2974                   24069239.4534
 11  9 28  0 35  0.0000000  0 10G15G29G12G02G30G21G05G25G26G18
 -16981997.37147 -13215008.95945  22399864.5784                   22399864.6604
 -39706469.72348 -30923316.91946  20854302.4304                   20854301.5474
 -60729766.77047 -47303561.86045  23204418.5084                   23204418.6684
 -82708483.77347 -64429543.24645  22507101.9304                   22507099.3134
 -25987596.15247 -20232481.37644  22674915.4144                   22674916.6484
  -5030727.05146  -3905577.10244  24294241.5784                   24294243.3794
 -63600516.29348 -49540000.55346  21297580.9694                   21297579.7074
 -47972938.16447 -37359257.32945  22206953.9384                   22206956.8324
 -28316510.23847 -22047153.77745  21748973.9454                   21748973.3324
    291967.59846    240396.91943  24033516.0784                   24033519.4574
 11  9 28  0 35 30.0000000  0 10G15G29G12G02G30G21G05G25G26G18
 -15599091.25447 -12137419.68745  22663022.6724                   22663022.5164
 -38292090.12147 -29821202.88246  21123450.2034                   21123449.2504
 -59163067.18447 -46082757.05345  23502550.4224                   23502552.3834
 -81185066.78147 -63242465.04845  22796998.4224                   22796996.0354
 -24490952.21947 -19066265.32345  22959717.5164                   22959718.3714
  -3615980.62146  -2803177.08643  24563459.6094                   24563460.2854
 -62057574.47348 -48337708.20446  21591193.0394                   21591191.4924
 -46438027.52347 -36163223.11645  22499038.0944                   22499040.6684
 -26907086.03147 -20948901.06245  22017178.7114                   22017177.7034
   1679918.73846   1321917.41944  24297635.4694                   24297637.8094
 11  9 28  0 36  0.0000000  0 10G15G29G12G02G30G21G05G25G26G18
 -15791361.98047 -12287240.92245  22626434.6804                   22626434.7974
 -38452757.66447 -29946398.31646  21092875.9534                   21092875.0824
 -59171670.42647 -46089460.93645  23500914.2114                   23500915.0234
 -81236922.26647 -63282871.90345  22787130.6724                   22787128.2584
 -24569183.40247 -19127224.67144  22944830.7274                   22944832.0864
  -3776645.27747  -2928370.25043  24532885.7424                   24532886.4064
 -62089743.10548 -48362774.66646  21585071.3444                   21585070.3634
 -46478148.16847 -36194485.99645  22491403.4534                   22491406.1764
 -27072566.17247 -21077846.56845  21985688.5784                   21985687.7774
   1492681.31647   1176018.25844  24262005.2194                   24262007.0594
 11  9 28  0 36 30.0000000  0 10G15G29G12G02G30G21G05G25G26G18
 -15983381.25047 -12436866.22045  22589894.7504                   22589894.5784
 -38613045.68048 -30071298.01346  21062374.5474                   21062373.4884
 -59180160.08647 -46096076.35145  23499298.6954                   23499299.8284
 -81288629.20747 -63323162.98945  22777290.9694                   22777288.4734
 -24646870.11747 -19187759.75144  22930046.9844                   22930048.6604
  -3937296.93446  -3053553.16744  24502315.0944                   24502315.6134
 -62121604.89848 -48387602.02746  21579008.7034                   21579007.1374
 -46517882.66447 -36225447.96845  22483842.1954                   22483844.8054
 -27237522.96947 -21206384.24645  21954298.3054                   21954298.1174
   1305681.95747   1030304.56643  24226420.1414                   24226421.9064
 11  9 28  0 37  0.0000000  0 10G15G29G12G02G30G21G05G25G26G18
 -16175145.27047 -12586292.62845  22553403.4384                   22553403.0124
 -38772951.34848 -30195899.77646  21031944.9144                   21031944.1214
 -59188538.37547 -46102604.94944  23497704.1884                   23497705.2854
 -81340186.33247 -63363337.35645  22767480.3444                   22767477.6604
 -24724013.57447 -19247871.53044  22915366.7974                   22915368.8134
  -4097935.95746  -3178726.30743  24471745.7114                   24471746.4774
 -62153161.53148 -48412191.59346  21573003.1564                   21573002.2584
 -46557233.34847 -36256110.87545  22476353.9144                   22476356.6644
 -27401952.67247 -21334511.21445  21923008.1254                   21923007.5434
   1118922.44147    884777.71343  24190881.5474                   24190882.1484
 11  9 28  0 37 30.0000000  0 10G15G29G12G02G30G21G05G25G26G18
 -16366653.00847 -12735519.33345  22516960.0784                   22516960.3954
 -38932474.44948 -30320203.43346  21001589.0554                   21001587.6994
 -59196810.23847 -46109050.63144  23496129.9144                   23496131.4454
 -81391595.71547 -63403396.58245  22757697.2344                   22757694.5274
 -24800617.72747 -19307563.04944  22900789.9844                   22900790.7934
  -4258564.41446  -3303891.19644  24441179.1094                   24441180.6884
 -62184417.61748 -48436546.97146  21567055.4384                   21567054.2424
 -46596205.13347 -36286478.53145  22468937.8984                   22468940.5204
 -27565854.19947 -21462226.61145  21891818.8134                   21891818.0434
    932401.77747    739436.97443  24155387.8054                   24155387.3984
 11  9 28  0 38  0.0000000  0 10G15G29G12G02G30G21G05G25G26G18
 -16557898.46147 -12884541.66345  22480567.2194                   22480567.3634
 -39091609.23848 -30444204.51146  20971306.4224                   20971305.5784
 -59204975.53546 -46115413.27444  23494575.9144                   23494576.9734
 -81442853.73447 -63443337.85644  22747943.1254                   22747940.5784
 -24876681.52047 -19366833.52545  22886315.4304                   22886316.9844
  -4419179.71546  -3429045.87143  24410614.3984                   24410616.2274
 -62215372.57848 -48460667.70546  21561164.6724                   21561163.6454
 -46634797.89847 -36316550.86045  22461594.0394                   22461596.7934
 -27729221.35947 -21589525.61545  21860730.9064                   21860730.5634
    746123.86346    594285.50343  24119939.7894                   24119939.8054
 11  9 28  0 38 30.0000000  0 10G15G29G12G02G30G21G05G25G26G18
 -16748881.43747 -13033359.44445  22444224.5004                   22444224.5044
 -39250357.04348 -30567904.04946  20941097.9454                   20941096.6454
 -59213040.87146 -46121698.04444  23493041.0944                   23493042.8364
 -81493963.21147 -63483163.40345  22738216.8284                   22738214.1644
 -24952209.91047 -19425686.77944  22871942.7894                   22871943.3674
  -4579785.48846  -3554193.04143  24380052.6644                   24380053.8984
 -62246031.75048 -48484557.95846  21555330.8674                   21555329.6414
 -46673017.68447 -36346332.53645  22454321.0864                   22454323.6724
 -27892054.03147 -21716408.13445  21829745.0554                   21829744.4774
    560086.80946    449321.67343  24084537.5634                   24084538.7734
 11  9 28  0 39  0.0000000  0 10G15G29G12G02G30G21G05G25G26G18
 -16939598.35547 -13181969.91145  22407932.1334                   22407931.6644
 -39408714.98848 -30691299.80746  20910962.9064                   20910962.0664
 -59221008.92646 -46127906.99444  23491525.4064                   23491526.3164
 -81544923.13347 -63522872.39345  22728520.1174                   22728516.9774
 -25027204.77047 -19484124.32844  22857671.4694                   22857672.3014
  -4740381.74646  -3679332.85843  24349491.6884                   24349492.8794
 -62276397.64548 -48508219.67746  21549552.4614                   21549550.5044
 -46710867.20747 -36375825.71745  22447118.9844                   22447121.2734
 -28054348.84047 -21842871.54345  21798861.1564                   21798860.9144
    374291.73846    304546.41843  24049181.7814                   24049183.3834
 11  9 28  0 39 30.0000000  0 10G15G29G12G02G30G21G05G25G26G18
 -17130046.06647 -13330370.60445  22371691.0474                   22371690.8444
 -39566680.28148 -30814389.59046  20880903.4304                   20880902.7344
 -59228881.75446 -46134041.75544  23490027.3054                   23490028.6374
 -81595732.78147 -63562464.30945  22718851.5634                   22718848.3754
 -25101667.53947 -19542147.23644  22843501.8524                   22843503.2774
  -4900967.62946  -3804464.56043  24318933.6954                   24318934.6564
 -62306471.94148 -48531654.17546  21543829.3754                   21543828.1914
 -46748348.78947 -36405032.19245  22439986.2194                   22439988.9924
 -28216102.17647 -21968913.01445  21768080.9304                   21768080.3404
    188740.31646    159961.10443  24013871.9144                   24013874.0434
 11  9 28  0 40  0.0000000  0 10G15G29G12G02G30G21G05G25G26G18
 -17320223.52747 -13478560.72845  22335501.2034                   22335501.3874
 -39724252.73848 -30937173.27346  20850918.2814                   20850917.4844
 -59236664.84046 -46140106.55944  23488546.0084                   23488547.2544
 -81646393.88347 -63601940.46945  22709210.4774                   22709208.1844
 -25175602.29347 -19599758.73844  22829432.3364                   22829433.9614
  -5061546.89847  -3929591.12343  24288375.7974                   24288376.4494
 -62336259.07848 -48554864.90646  21538161.1094                   21538159.6414
 -46785467.67647 -36433956.02945  22432922.7974                   22432924.7624
 -28377313.11347 -22094531.85445  21737403.2114                   21737402.9694
      3431.43046     15564.73843  23978609.7734                   23978611.3324
 11  9 28  0 40 30.0000000  0 10G15G29G12G02G30G21G05G25G26G18
 -17510123.71947 -13626534.78545  22299364.1484                   22299364.1174
 -39881426.60948 -31059646.36546  20821008.9304                   20821007.8244
 -59244357.27046 -46146100.75644  23487082.0944                   23487083.2304
 -81696902.29747 -63641297.66545  22699599.3754                   22699596.5824
 -25249007.71147 -19656957.75644  22815463.7344                   22815465.1764
  -5222115.72746  -4054709.49943  24257820.4694                   24257821.5164
 -62365758.25048 -48577851.26346  21532547.5004                   21532546.5204
 -46822223.16847 -36462596.70545  22425928.3444                   22425930.9224
 -28537974.81247 -22219722.70945  21706830.2194                   21706829.5314
   -181630.28946   -128639.00043  23943392.8674                   23943394.8014
 11  9 28  0 41  0.0000000  0 10G15G29G12G02G30G21G05G25G26G18
 -17699746.24247 -13774292.48845  22263280.4224                   22263280.3054
 -40038201.92648 -31181808.90846  20791175.6484                   20791174.7034
 -59251964.92246 -46152028.88244  23485634.5634                   23485635.6804
 -81747260.49247 -63680537.81245  22690016.5474                   22690013.9534
 -25321888.22747 -19713747.79044  22801595.2424                   22801595.8404
  -5382677.02346  -4179822.11643  24227266.1024                   24227267.3324
 -62394974.23448 -48600616.94346  21526987.8444                   21526986.5704
 -46858620.77747 -36490958.51945  22419002.5944                   22419004.4734
 -28698087.02747 -22344485.37945  21676362.1024                   21676361.2074
   -366446.42246   -272651.37643  23908223.8914                   23908225.4064
 11  9 28  0 41 30.0000000  0 10G15G29G12G02G30G21G05G25G26G18
 -17889086.85547 -13921830.51445  22227249.9304                   22227249.6884
 -40194575.21148 -31303658.15746  20761418.7814                   20761417.5864
 -59259489.12546 -46157891.96244  23484202.5004                   23484204.1454
 -81797466.60247 -63719659.43744  22680462.4304                   22680459.9414
 -25394244.65647 -19770129.43944  22787826.4844                   22787826.9734
  -5543229.73046  -4304927.90743  24196714.0314                   24196714.8204
 -62423908.15248 -48623162.83346  21521482.1024                   21521480.4964
 -46894662.18747 -36519042.77745  22412143.2114                   22412146.1604
 -28857645.21547 -22468816.36045  21645998.4384                   21645998.2664
   -551014.58646   -416470.55844  23873101.7974                   23873103.4614
 11  9 28  0 42  0.0000000  0 10G15G29G12G02G30G21G05G25G26G18
 -18078142.13747 -14069146.22845  22191273.6724                   22191273.7274
 -40350544.37948 -31425192.52646  20731738.7974                   20731737.8484
 -59266933.41046 -46163692.78544  23482786.8444                   23482787.5314
 -81847520.52047 -63758662.48245  22670937.6024                   22670935.0984
 -25466079.48047 -19826104.60344  22774156.7504                   22774158.2734
  -5703775.09846  -4430028.06543  24166163.5864                   24166163.8954
 -62452562.87548 -48645491.16946  21516029.1094                   21516027.8164
 -46930350.67247 -36546852.03545  22405352.3914                   22405355.0664
 -29016646.55947 -22592713.41645  21615742.0394                   21615741.1374
   -735334.18046   -560095.95843  23838026.0234                   23838028.2464
 11  9 28  0 42 30.0000000  0 10G15G29G12G02G30G21G05G25G26G18
 -18266913.44147 -14216240.64145  22155352.1024                   22155351.7234
 -40506110.71148 -31546412.98746  20702135.3674                   20702134.2814
 -59274304.39546 -46169436.51944  23481383.9534                   23481385.4884
 -81897425.39547 -63797549.39545  22661441.1334                   22661438.3794
 -25537398.37947 -19881677.80144  22760585.2034                   22760585.1054
  -5864316.30146  -4555124.95744  24135613.4384                   24135614.4304
 -62480944.28548 -48667606.54146  21510628.1094                   21510626.9924
 -46965692.80547 -36574391.40845  22398627.0164                   22398629.7894
 -29175091.83247 -22716177.19445  21585591.0704                   21585589.7894
   -919407.67646   -703529.68043  23802999.1094                   23803000.3444
 11  9 28  0 43  0.0000000  0 10G15G29G12G02G30G21G05G25G26G18
 -18455395.19147 -14363109.44045  22119485.1564                   22119484.6764
 -40661270.09448 -31667316.33846  20672609.6954                   20672608.4884
 -59281602.56646 -46175123.48344  23479995.0004                   23479996.2464
 -81947178.75047 -63836318.23945  22651973.2584                   22651970.7194
 -25608201.28947 -19936848.90544  22747111.4144                   22747111.8634
  -6024851.67246  -4680217.32243  24105064.8754                   24105065.2154
 -62509052.46148 -48689508.99646  21505279.2504                   21505278.0984
 -47000689.46547 -36601661.56645  22391967.1334                   22391970.1804
 -29332975.84847 -22839203.62945  21555546.5004                   21555545.7344
  -1103232.05546   -846769.29643  23768017.9304                   23768018.5784
 11  9 28  0 43 30.0000000  0 10G15G29G12G02G30G21G05G25G26G18
 -17068156.93447 -13282144.47745  22383467.4454                   22383466.9534
 -39240593.85248 -30560295.82746  20942954.9924                   20942954.1724
 -57713409.56247 -44953154.99344  23778412.4224                   23778413.7814
 -80421357.49247 -62647366.59745  22942327.3444                   22942324.7814
 -24103067.12147 -18764017.08944  23033529.6334                   23033529.6094
  -4609955.34446  -3577700.55843  24374309.7974                   24374310.7974
 -60961468.07848 -47483599.07546  21799775.0634                   21799773.5704
 -45459921.44947 -35401063.16045  22685165.6564                   22685168.7384
 -27914869.26647 -21734185.43745  21825403.0394                   21825402.2304
    288620.59846    237791.43243  24032878.4064                   24032879.1524
 11  9 28  0 44  0.0000000  0 10G15G29G12G02G30G21G05G25G26G18
 -17256051.25847 -13428555.54145  22347712.3594                   22347711.8324
 -39394933.09048 -30680560.09446  20913585.3524                   20913584.4494
 -57720572.32046 -44958736.45544  23777049.4614                   23777050.7234
 -80470807.48447 -62685899.02745  22932917.2114                   22932914.9454
 -24172845.72747 -18818390.05044  23020250.9844                   23020251.9024
  -4770481.13746  -3702785.43743  24343763.3364                   24343764.0004
 -60989038.44948 -47505082.46746  21794528.2734                   21794527.1604
 -45494237.18447 -35427802.74145  22678636.1094                   22678639.0864
 -28071622.84447 -21856331.00245  21795573.3594                   21795573.3794
    105296.00046     94941.35143  23997992.4384                   23997992.5204
 11  9 28  0 44 30.0000000  0 10G15G29G12G02G30G21G05G25G26G18
 -17443648.10947 -13574734.82245  22312013.5634                   22312013.1684
 -39548859.76648 -30800502.89346  20884293.9694                   20884292.8794
 -57727672.97346 -44964269.52144  23775697.5394                   23775699.8484
 -80520105.97747 -62724313.41245  22923536.0944                   22923533.1414
 -24242116.39847 -18872367.22744  23007069.1254                   23007069.6214
  -4931003.49246  -3827867.70443  24313216.8834                   24313216.3524
 -61016344.46148 -47526359.86346  21789332.4304                   21789331.1134
 -45528217.95747 -35454281.31345  22672169.5234                   22672172.5474
 -28227807.67647 -21978033.39845  21765852.4774                   21765851.6094
    -77778.01246    -47713.57043  23963154.3444                   23963155.1644
 11  9 28  0 45  0.0000000  0 10G15G29G12G02G30G21G05G25G26G18
 -17630942.37947 -13720678.31545  22276373.0164                   22276372.4304
 -39702369.54748 -30920120.84246  20855082.1174                   20855080.7584
 -57734712.01246 -44969754.58844  23774358.6334                   23774360.2734
 -80569250.45747 -62762607.79245  22914184.4454                   22914181.6804
 -24310879.16847 -18925948.62944  22993984.3054                   22993985.0354
  -5091520.84846  -3952946.05144  24282671.4694                   24282671.3914
 -61043386.31648 -47547431.42546  21784186.3754                   21784185.5164
 -45561864.61347 -35480499.52345  22665766.8444                   22665769.6484
 -28383418.85247 -22099288.77745  21736240.6174                   21736239.9454
   -260597.99646   -190170.53743  23928364.8054                   23928365.6804
 11  9 28  0 45 30.0000000  0 10G15G29G12G02G30G21G05G25G26G18
 -17817933.03547 -13866385.22045  22240789.7424                   22240788.8554
 -39855462.32048 -31039413.84246  20825949.3834                   20825948.2034
 -57741694.27046 -44975195.42644  23773030.5004                   23773031.7774
 -80618242.57447 -62800783.45245  22904861.3524                   22904858.7664
 -24379138.43447 -18979137.69444  22980995.3444                   22980995.4614
  -5252035.50046  -4078022.28143  24252125.8834                   24252125.4184
 -61070168.34048 -47568300.51946  21779090.1954                   21779088.5784
 -45595182.30147 -35506461.40345  22659426.5084                   22659429.4964
 -28538455.43747 -22220096.44645  21706737.9384                   21706737.5004
   -443165.95746   -332431.08443  23893623.0704                   23893624.2194
 11  9 28  0 46  0.0000000  0 10G15G29G12G02G30G21G05G25G26G18
 -18004616.34447 -14011852.64745  22205264.7504                   22205263.8594
 -40008134.90247 -31158379.41846  20796896.4774                   20796895.5864
 -57748622.37146 -44980594.01544  23771711.6884                   23771712.9884
 -80667081.49647 -62838839.72545  22895567.6804                   22895564.7194
 -24446895.73847 -19031935.61444  22968101.1094                   22968101.4844
  -5412546.82046  -4203095.94543  24221581.9774                   24221581.2424
 -61096692.41048 -47588968.61446  21774042.4844                   21774041.2664
 -45628173.40647 -35532168.78645  22653148.9304                   22653151.9614
 -28692914.01647 -22340453.72845  21677345.7814                   21677344.7424
   -625479.90246   -474493.70743  23858930.1094                   23858931.3204
 11  9 28  0 46 30.0000000  0 10G15G29G12G02G30G21G05G25G26G18
 -18190991.41447 -14157079.87745  22169798.6644                   22169798.0204
 -40160387.64148 -31277017.84946  20767923.8204                   20767922.7344
 -57755501.39846 -44985954.42044  23770402.5314                   23770404.4774
 -80715768.75847 -62876777.82245  22886302.3914                   22886300.3284
 -24514155.43747 -19084345.77544  22955302.5554                   22955302.8404
  -5573057.34446  -4328168.93843  24191037.0784                   24191037.1254
 -61122962.78148 -47609439.02146  21769043.7504                   21769042.4104
 -45660842.92647 -35557625.61545  22646932.1334                   22646934.2584
 -28846793.39547 -22460359.64745  21648063.6094                   21648062.6214
   -807541.03947   -616359.35144  23824285.0394                   23824286.2274
 11  9 28  0 47  0.0000000  0 10G15G29G12G02G30G21G05G25G26G18
 -18377054.84847 -14302064.25745  22134391.7734                   22134391.5204
 -40312218.01647 -31395327.16346  20739031.7814                   20739030.6214
 -57762333.85547 -44991278.50943  23769102.4924                   23769104.1334
 -80764304.01647 -62914597.48745  22877066.7974                   22877064.1374
 -24580919.72347 -19136369.93944  22942597.7424                   22942598.8324
  -5733567.27746  -4453241.51243  24160493.1724                   24160493.6954
 -61148982.32448 -47629713.97146  21764092.1174                   21764090.7034
 -45693193.91847 -35582834.21645  22640776.0944                   22640778.5984
 -29000090.96547 -22579812.23745  21618891.8204                   21618891.1254
   -989348.31246   -758027.21044  23789687.6724                   23789688.8954
 11  9 28  0 47 30.0000000  0 10G15G29G12G02G30G21G05G25G26G18
 -18562805.02347 -14446804.56545  22099044.9224                   22099044.2304
 -40463624.77348 -31513306.39746  20710219.9064                   20710218.5434
 -57769123.89846 -44996569.54944  23767811.1564                   23767812.1954
 -80812687.62147 -62952298.97945  22867859.3674                   22867856.9844
 -24647192.09847 -19188010.74044  22929986.2424                   22929986.8404
  -5894078.22746  -4578314.84843  24129949.0554                   24129949.1454
 -61174754.03148 -47649795.80846  21759188.1564                   21759186.6174
 -45725230.60947 -35607797.91445  22634679.2274                   22634681.9414
 -29152805.30947 -22698810.36945  21589831.3594                   21589830.0784
  -1170902.14846   -899497.53244  23755139.1254                   23755140.2154
 11  9 28  0 48  0.0000000  0 10G15G29G12G02G30G21G05G25G26G18
 -18748238.20747 -14591297.86845  22063758.2584                   22063757.1644
 -40614605.10248 -31630953.34046  20681488.9614                   20681487.8244
 -57775874.10947 -45001829.53944  23766526.7584                   23766527.4414
 -80860918.72747 -62989881.63645  22858680.9924                   22858679.2734
 -24712974.49247 -19239269.76744  22917468.4534                   22917469.2304
  -6054590.03546  -4703388.88343  24099404.7034                   24099404.8364
 -61200279.95348 -47669686.11446  21754330.7274                   21754328.9304
 -45756955.58247 -35632518.71645  22628642.6024                   22628645.5634
 -29304932.94947 -22817351.31045  21560882.1884                   21560880.8914
  -1352201.25846  -1040769.42443  23720639.1484                   23720640.0274
 11  9 28  0 48 30.0000000  0 10G15G29G12G02G30G21G05G25G26G18
 -18933351.59847 -14735541.95845  22028531.9064                   22028531.4884
 -40765157.36748 -31748266.73746  20652839.7344                   20652838.8204
 -57782587.42647 -45007060.80144  23765249.0164                   23765250.4884
 -80908997.49247 -63027345.59444  22849531.8754                   22849529.6334
 -24778269.33647 -19290148.89344  22905043.1724                   22905043.8484
  -6215102.92247  -4828463.74344  24068860.1094                   24068860.3524
 -61225562.79348 -47689387.00946  21749519.3594                   21749518.0514
 -45788372.18047 -35656999.20745  22622664.3914                   22622667.1334
 -29456471.27347 -22935433.06645  21532045.1884                   21532044.6764
  -1533244.73446  -1181842.05343  23686187.2274                   23686188.5084
 11  9 28  0 49  0.0000000  0 10G15G29G12G02G30G21G05G25G26G18
 -19118144.00847 -14879535.95445  21993367.1334                   21993366.3444
 -40915281.30548 -31865246.37447  20624272.0704                   20624271.1454
 -57789268.54747 -45012266.94644  23763977.5084                   23763978.8364
 -80956924.87947 -63064691.62144  22840411.7974                   22840409.4924
 -24843080.67647 -19340651.21945  22892710.1644                   22892711.1484
  -6375618.68047  -4953540.88144  24038314.7194                   24038314.5084
 -61250606.49648 -47708901.57446  21744753.7424                   21744752.1254
 -45819484.97747 -35681242.99445  22616743.6724                   22616746.5124
 -29607419.02747 -23053054.62345  21503320.7344                   21503319.8014
  -1714033.44946  -1322716.25543  23651783.3444                   23651784.8754
 11  9 28  0 49 30.0000000  0 10G15G29G12G02G30G21G05G25G26G18
 -19302608.65647 -15023274.52446  21958264.3524                   21958264.0204
 -41064970.77048 -31981887.46046  20595787.2034                   20595786.0514
 -57795916.82047 -45017447.49144  23762712.6564                   23762714.1884
 -81004697.06647 -63101916.68044  22831321.2894                   22831318.7774
 -24907407.44547 -19390775.99645  22880468.8674                   22880469.9804
  -6536134.13747  -5078617.73144  24007769.9844                   24007769.9344
 -61275409.71148 -47728228.73946  21740033.7504                   21740032.3014
 -45850293.71947 -35705249.82745  22610881.2584                   22610883.2234
 -29757770.27047 -23170211.37445  21474710.0944                   21474709.0044
  -1894563.37146  -1463388.77443  23617429.8054                   23617431.4804
 11  9 28  0 50  0.0000000  0 10G15G29G12G02G30G21G05G25G26G18
 -19486746.77347 -15166758.67545  21923224.0784                   21923223.6254
 -41214227.43448 -32098191.31346  20567384.6644                   20567383.5124
 -57802539.23447 -45022607.90144  23761452.0554                   23761454.2194
 -81052317.62147 -63139023.59645  22822259.5004                   22822256.8094
 -24971256.07847 -19440528.16545  22868318.9384                   22868320.3484
  -6696653.92647  -5203697.94144  23977223.7974                   23977224.2234
 -61299979.26648 -47747373.84246  21735358.2424                   21735356.9614
 -45880805.44147 -35729025.22445  22605074.5944                   22605077.6564
 -29907526.27747 -23286904.29945  21446212.2424                   21446210.9304
  -2074836.96946  -1603861.52743  23583124.9304                   23583125.4614
 11  9 28  0 50 30.0000000  0 10G15G29G12G02G30G21G05G25G26G18
 -19670553.42248 -15309984.52245  21888246.9144                   21888246.3524
 -41363047.30148 -32214154.79546  20539065.0004                   20539064.0594
 -57809136.77047 -45027748.92244  23760196.9144                   23760198.7464
 -81099784.26247 -63176010.57844  22813226.9844                   22813224.1024
 -25034627.15647 -19489908.22044  22856260.4614                   22856260.9924
  -6857176.28547  -5328780.17444  23946677.1254                   23946677.2234
 -61324315.39148 -47766337.04946  21730727.0004                   21730725.9454
 -45911021.38747 -35752570.14445  22599325.1414                   22599327.8674
 -30056682.56647 -23403129.90145  21417828.8054                   21417828.0434
  -2254852.05546  -1744132.91143  23548869.4924                   23548869.4694
 11  9 28  0 51  0.0000000  0 10G15G29G12G02G30G21G05G25G26G18
 -18278596.68447 -14225342.81445  22153127.2734                   22153126.6914
 -39936001.14548 -31102170.74646  20810622.8054                   20810621.6884
 -56240289.55947 -43805270.67444  24058739.2424                   24058739.9774
 -79571672.64547 -61985274.25444  23104016.7034                   23104013.7114
 -23522098.62147 -18311314.54645  23144084.7504                   23144085.6484
  -5442273.39847  -4226258.28644  24215924.4224                   24215924.9844
 -59772996.95748 -46557517.47446  22025933.2114                   22025932.0634
 -44365521.28147 -34548284.37045  22893423.5554                   22893426.8834
 -28629808.82447 -22291280.17745  21689353.3914                   21689352.8834
   -859179.29746   -656595.49143  23814457.0234                   23814457.2894
 11  9 28  0 51 30.0000000  0 10G15G29G12G02G30G21G05G25G26G18
 -18461728.47347 -14368042.79845  22118278.3754                   22118277.6374
 -40083938.93448 -31217446.90247  20782471.1174                   20782469.7544
 -56246843.13747 -43810377.43744  24057491.3444                   24057493.1454
 -79618827.80547 -62022018.53044  23095043.4144                   23095040.6884
 -23584519.25847 -18359953.98944  23132205.9454                   23132207.4884
  -5602798.61347  -4351342.68544  24185377.1804                   24185377.5554
 -59796870.61348 -46576120.32646  22021390.2894                   22021389.0234
 -44395152.34847 -34571373.54745  22887785.2894                   22887788.3634
 -28777754.91447 -22406562.78545  21661200.2424                   21661199.3204
  -1038672.27747   -796460.03744  23780301.0944                   23780301.1644
 11  9 28  0 52  0.0000000  0 10G15G29G12G02G30G21G05G25G26G18
 -18644521.03947 -14510478.46246  22083493.8364                   22083493.4884
 -40231435.21548 -31332379.03847  20754403.5634                   20754402.3054
 -56253381.55546 -43815472.43544  24056247.5944                   24056249.0744
 -79665829.17647 -62058642.98244  23086099.2504                   23086096.7894
 -23646471.11347 -18408228.15144  23120416.9384                   23120418.6884
  -5763328.56647  -4476430.82444  24154828.9694                   24154829.3834
 -59820519.11348 -46594547.71946  22016890.0554                   22016888.9184
 -44424498.42247 -34594240.63945  22882200.4844                   22882203.8634
 -28925094.80147 -22521373.00445  21633162.4844                   21633161.4304
  -1217905.83747   -936122.39344  23746194.1884                   23746193.9654
 11  9 28  0 52 30.0000000  0 10G15G29G12G02G30G21G05G25G26G18
 -18826971.13348 -14652647.27046  22048775.1094                   22048774.2774
 -40378487.35948 -31446965.08647  20726420.5164                   20726419.0004
 -56259907.96146 -43820558.01644  24055005.7664                   24055007.2814
 -79712676.12947 -62095147.09644  23077184.5004                   23077181.8594
 -23707956.32847 -18456138.69244  23108716.7664                   23108718.3014
  -5923863.14847  -4601522.50444  24124280.2504                   24124280.4144
 -59843944.80948 -46612801.50946  22012432.5634                   22012431.0634
 -44453562.22747 -34616887.78145  22876670.3364                   22876672.8984
 -29071825.22348 -22635708.32745  21605240.6724                   21605239.5274
  -1396878.84847  -1075581.72944  23712136.8134                   23712137.0124
 11  9 28  0 53  0.0000000  0 10G15G29G12G02G30G21G05G25G26G18
 -19009077.51248 -14794548.23845  22014120.9064                   22014120.5044
 -40525094.82848 -31561204.64647  20698521.6564                   20698520.4964
 -56266426.67246 -43825637.62844  24053765.1724                   24053767.2114
 -79759369.71547 -62131531.70444  23068299.6414                   23068296.4614
 -23768979.04747 -18503688.85445  23097104.5944                   23097106.0474
  -6084404.16847  -4726619.21544  24093729.9064                   24093730.6724
 -59867151.32048 -46630884.49746  22008016.1954                   22008014.9104
 -44482348.37947 -34639318.57945  22871192.1564                   22871195.3634
 -29217945.61348 -22749568.29445  21577435.0944                   21577433.6374
  -1575591.74647  -1214838.40844  23678128.3524                   23678128.9804
 11  9 28  0 53 30.0000000  0 10G15G29G12G02G30G21G05G25G26G18
 -19190833.24248 -14936175.98446  21979534.2734                   21979533.2814
 -40671251.94548 -31675093.26146  20670709.2504                   20670708.0044
 -56272936.16046 -43830710.06744  24052526.8834                   24052528.4614
 -79805906.00847 -62167793.71844  23059444.0004                   23059440.5554
 -23829538.03147 -18550877.69644  23085580.3284                   23085582.1454
  -6244948.11346  -4851718.23243  24063178.8134                   24063179.0704
 -59890137.40248 -46648795.72846  22003642.6484                   22003641.0084
 -44510856.48047 -34661532.70345  22865767.5474                   22865770.8554
 -29363449.69148 -22862948.03545  21549746.1564                   21549744.9964
  -1754040.49647  -1353889.19344  23644169.6644                   23644171.1764
 11  9 28  0 54  0.0000000  0 10G15G29G12G02G30G21G05G25G26G18
 -19372236.87148 -15077529.36646  21945014.0864                   21945013.0824
 -40816958.17248 -31788630.55447  20642982.1564                   20642981.2154
 -56279441.53547 -43835779.29744  24051288.6174                   24051290.7424
 -79852285.98847 -62203933.95544  23050618.0474                   23050615.3524
 -23889637.40247 -18597708.38044  23074143.8754                   23074145.1954
  -6405496.60247  -4976820.78644  24032628.3364                   24032628.2544
 -59912907.08648 -46666538.33246  21999309.5634                   21999307.7154
 -44539091.09047 -34683533.70545  22860394.2734                   22860397.9454
 -29508336.18048 -22975846.51145  21522175.2814                   21522173.9414
  -1932225.68746  -1492734.66544  23610262.7974                   23610263.4064
 11  9 28  0 54 30.0000000  0 10G15G29G12G02G30G21G05G25G26G18
 -19553286.34848 -15218606.79145  21910561.4144                   21910560.3754
 -40962212.03948 -31901815.34047  20615341.1334                   20615339.8834
 -56285946.25047 -43840847.97844  24050051.5314                   24050052.9454
 -79898510.33647 -62239952.91744  23041821.9454                   23041818.6454
 -23949280.64547 -18644183.64744  23062794.3364                   23062795.3054
  -6566050.62947  -5101927.62644  24002075.5474                   24002074.8754
 -59935463.21947 -46684114.54446  21995017.0554                   21995015.4024
 -44567056.22347 -34705324.74145  22855072.7814                   22855076.1094
 -29652603.76247 -23088262.74245  21494721.8674                   21494720.6454
  -2110147.59047  -1631374.94944  23576405.1644                   23576405.7894
 11  9 28  0 55  0.0000000  0 10G15G29G12G02G30G21G05G25G26G18
 -19733976.70748 -15359404.38145  21876177.1024                   21876175.9494
 -41107009.38348 -32014644.39547  20587787.2814                   20587785.8054
 -56292450.48047 -43845916.27844  24048813.7194                   24048814.8324
 -79944576.21547 -62275848.41644  23033056.0784                   23033052.6414
 -24008468.00846 -18690303.64444  23051531.1644                   23051532.5554
  -6726608.45746  -5227037.39643  23971522.1804                   23971521.4734
 -59957806.08647 -46701524.56346  21990765.4924                   21990763.9104
 -44594752.85547 -34726906.53445  22849802.7504                   22849805.6454
 -29796247.71147 -23200193.02845  21467386.9144                   21467386.0004
  -2287803.12147  -1769807.68943  23542597.8834                   23542598.7074
 11  9 28  0 55 30.0000000  0 10G15G29G12G02G30G21G05G25G26G18
 -19914307.19148 -15499921.54445  21841861.4614                   21841860.4964
 -41251350.60248 -32127118.03346  20560319.7114                   20560318.5784
 -56298960.05147 -43850988.74344  24047574.5004                   24047576.7774
 -79990485.61347 -62311621.97844  23024319.7894                   23024316.3634
 -24067204.48846 -18736072.34144  23040353.3054                   23040355.3834
  -6887172.80947  -5352152.35543  23940967.1954                   23940967.0514
 -59979940.50847 -46718772.14945  21986553.2194                   21986552.0554
 -44622186.43447 -34748283.38145  22844582.0554                   22844584.9614
 -29939268.17247 -23311637.47445  21440171.2584                   21440170.3284
  -2465193.95747  -1908034.14744  23508842.3834                   23508842.3164
 11  9 28  0 56  0.0000000  0 10G15G29G12G02G30G21G05G25G26G18
 -20094272.14548 -15640153.88246  21807615.1564                   21807614.1294
 -41395230.83648 -32239232.45947  20532940.5634                   20532939.0314
 -56305475.22347 -43856065.55844  24046335.2344                   24046336.8554
 -80036235.62547 -62347271.32844  23015613.1484                   23015611.3674
 -24125490.16046 -18781489.76444  23029262.4924                   23029263.9964
  -7047741.22347  -5477270.40643  23910411.8754                   23910411.9574
 -60001865.92247 -46735856.88946  21982381.0554                   21982379.6094
 -44649357.52347 -34769455.68245  22839411.6334                   22839414.0744
 -30081659.82447 -23422591.95245  21413075.3054                   21413073.8524
  -2642316.96147  -2046051.94644  23475136.2274                   23475136.8244
 11  9 28  0 56 30.0000000  0 10G15G29G12G02G30G21G05G25G26G18
 -20273869.60248 -15780099.85446  21773438.6954                   21773437.8164
 -41538648.74647 -32350986.62647  20505648.8834                   20505647.6334
 -56311999.36747 -43861149.35244  24045093.7664                   24045095.0234
 -80081826.73847 -62382796.84944  23006937.7274                   23006935.1054
 -24183328.24646 -18826558.41744  23018255.8204                   23018258.0394
  -7208314.29747  -5602392.10144  23879856.3364                   23879855.3714
 -60023585.52347 -46752781.24446  21978248.3524                   21978246.4774
 -44676269.96547 -34790426.44345  22834290.7114                   22834292.6994
 -30223420.95347 -23533055.12446  21386098.7194                   21386097.6174
  -2819171.78547  -2183860.78944  23441482.0234                   23441482.0234
 11  9 28  0 57  0.0000000  0 10G15G29G12G02G30G21G05G25G26G18
 -20453100.16848 -15919759.93746  21739332.2734                   21739331.1604
 -41681606.23048 -32462382.02646  20478445.1334                   20478443.5944
 -56318538.83247 -43866245.06643  24043850.0314                   24043850.6414
 -80127261.86747 -62418200.84044  22998291.1644                   22998289.2504
 -24240725.10546 -18871283.30144  23007334.3134                   23007335.8444
  -7368896.05947  -5727520.59743  23849298.5004                   23849297.7854
 -60045105.18447 -46769549.80846  21974153.0554                   21974151.4734
 -44702930.66047 -34811201.02345  22829216.9614                   22829220.2274
 -30364553.11347 -23643028.16445  21359242.1024                   21359241.0164
  -2995761.85247  -2321463.34444  23407878.3754                   23407877.6804
 11  9 28  0 57 30.0000000  0 10G15G29G12G02G30G21G05G25G26G18
 -20631957.64848 -16059129.31546  21705296.6884                   21705295.4654
 -41824098.12148 -32573414.62447  20451329.7664                   20451328.1414
 -56325093.27347 -43871352.52944  24042602.2584                   24042603.8714
 -80172537.56647 -62453480.62545  22989675.7734                   22989673.9344
 -24297680.42647 -18915664.09544  22996496.3134                   22996497.1454
  -7529483.70747  -5852653.72944  23818740.0474                   23818738.7624
 -60066424.12147 -46786161.96946  21970095.7894                   21970094.5394
 -44729339.57447 -34831779.42045  22824191.9144                   22824194.3054
 -30505050.83247 -23752506.83945  21332506.5164                   21332505.1524
  -3172083.30947  -2458856.54143  23374324.4454                   23374324.7974
 11  9 28  0 58  0.0000000  0 10G15G29G12G02G30G21G05G25G26G18
 -20810440.52748 -16198206.80246  21671332.8204                   21671331.6024
 -41966123.21548 -32684083.48047  20424303.0314                   20424301.6724
 -56331666.55947 -43876474.58543  24041351.8134                   24041353.3404
 -80217654.52747 -62488636.71044  22981090.7974                   22981088.2424
 -24354197.68047 -18959703.54944  22985741.3524                   22985742.0744
  -7690078.36347  -5977792.27644  23788179.5314                   23788179.0824
 -60087545.14147 -46802619.89546  21966076.6334                   21966075.1684
 -44755500.93447 -34852164.93145  22819213.1484                   22819216.6454
 -30644912.84847 -23861490.17145  21305891.4454                   21305890.1644
  -3348136.35246  -2596040.58143  23340822.7894                   23340823.3484
 11  9 28  0 58 30.0000000  0 10G15G29G12G02G30G21G05G25G26G18
 -20988544.54748 -16336989.06546  21637440.2974                   21637439.2464
 -42107678.48848 -32794386.24347  20397365.7974                   20397364.6094
 -56338260.36347 -43881612.67443  24040096.6644                   24040097.9414
 -80262611.37147 -62523668.01644  22972535.2814                   22972533.3674
 -24410278.61347 -19003402.98144  22975069.8914                   22975070.7194
  -7850679.21147  -6102935.66044  23757618.3754                   23757617.6174
 -60108470.27047 -46818925.18946  21962094.8594                   21962093.4574
 -44781416.75847 -34872359.10945  22814281.9614                   22814284.2624
 -30784135.71947 -23969975.48345  21279398.1254                   21279396.9804
  -3523919.35946  -2733014.22843  23307371.9064                   23307372.9144
 11  9 28  0 59  0.0000000  0 10G15G29G12G02G30G21G05G25G26G18
 -19590841.18448 -15247869.47146  21903414.4534                   21903413.0784
 -40673337.48448 -31676717.88147  20670312.0944                   20670310.6334
 -54769457.57446 -42659169.00243  24338629.9064                   24338631.7894
 -78731986.48047 -61330973.29244  23263804.4224                   23263801.2814
 -22890504.24647 -17819163.24144  23264272.4384                   23264274.4964
  -6435860.96947  -5000479.73844  24026848.2344                   24026847.9494
 -58553781.05547 -45607479.04845  22257942.2974                   22257940.8954
 -43231669.65647 -33664763.98945  23109189.1724                   23109191.8324
 -29347292.89547 -22850357.64145  21552820.4064                   21552819.1804
  -2124006.17247  -1642172.63444  23573766.9304                   23573767.1804
 11  9 28  0 59 30.0000000  0 10G15G29G12G02G30G21G05G25G26G18
 -19768180.29347 -15386055.70746  21869667.8834                   21869666.8834
 -40813948.64148 -31786284.97747  20643554.5634                   20643553.0394
 -54776102.46546 -42664346.96244  24337365.1724                   24337367.1764
 -78776623.07047 -61365755.07944  23255309.6414                   23255307.0124
 -22945721.85247 -17862189.96344  23253764.9844                   23253766.8554
  -6596475.61747  -5125633.84944  23996284.3984                   23996284.3674
 -58574321.95347 -45623484.93545  22254033.4924                   22254032.1054
 -43257105.32847 -33684584.02945  23104348.7974                   23104352.2344
 -29485232.32848 -22957842.85645  21526571.3524                   21526570.0004
  -2299248.45347  -1778724.88644  23540419.0474                   23540419.7624
 11  9 28  1  0  0.0000000  0 10G15G29G12G02G30G21G05G25G26G18
 -19945133.13347 -15523940.94546  21835994.8204                   21835993.7114
 -40954085.12548 -31895482.18947  20616887.4694                   20616886.0904
 -54782777.47346 -42669548.32143  24336095.2974                   24336097.3164
 -78821099.46147 -61400411.99244  23246846.0554                   23246843.8524
 -23000512.39147 -17904883.91244  23243339.3444                   23243340.0984
  -6757097.73046  -5250793.82844  23965718.9534                   23965717.9844
 -58594674.43747 -45639344.02645  22250160.7344                   22250158.5314
 -43282306.12547 -33704221.05745  23099553.1954                   23099555.3444
 -29622527.11748 -23064825.74246  21500444.6884                   21500443.6604
  -2474219.79747  -1915066.01744  23507123.2114                   23507123.3284
 11  9 28  1  0 30.0000000  0 10G15G29G12G02G30G21G05G25G26G18
 -20121697.16848 -15661523.22946  21802395.6954                   21802394.6334
 -41093745.46548 -32004308.38847  20590310.9924                   20590309.4774
 -54789485.66446 -42674775.57843  24334819.2664                   24334821.2934
 -78865415.77047 -61434944.20644  23238413.3444                   23238409.9264
 -23054878.96147 -17947247.52444  23232993.9534                   23232994.4144
  -6917728.43446  -5375960.47544  23935151.5554                   23935151.6334
 -58614841.27747 -45655058.44446  22246323.0394                   22246321.1524
 -43307275.66847 -33723677.89645  23094801.7664                   23094804.7304
 -29759175.49248 -23171304.94645  21474441.3054                   21474440.2034
  -2648920.14147  -2051195.98644  23473877.9534                   23473878.7504
 11  9 28  1  1  0.0000000  0 10G15G29G12G02G30G21G05G25G26G18
 -20297868.23047 -15798799.30146  21768871.3204                   21768870.1054
 -41232926.16048 -32112760.83547  20563825.5864                   20563824.1524
 -54796228.21146 -42680029.57144  24333535.9064                   24333538.0904
 -78909569.93047 -61469350.05844  23230010.5084                   23230008.4844
 -23108822.73847 -17989281.63244  23222728.6254                   23222729.1994
  -7078365.98046  -5501132.44944  23904583.4304                   23904583.6764
 -58634823.08247 -45670628.69045  22242520.7814                   22242519.1174
 -43332015.48847 -33742955.71245  23090093.2274                   23090097.4924
 -29895173.90648 -23277277.67845  21448561.6954                   21448560.6954
  -2823347.23047  -2187113.01444  23440686.9924                   23440686.6134
 11  9 28  1  1 30.0000000  0 10G15G29G12G02G30G21G05G25G26G18
 -20473645.51247 -15935768.52846  21735421.7034                   21735420.5634
 -41371627.79348 -32220839.98847  20537431.2664                   20537430.0394
 -54803010.35246 -42685314.42444  24332244.9064                   24332247.4384
 -78953563.89147 -61503631.08444  23221639.2034                   23221636.4454
 -23162348.76247 -18030990.22344  23212543.0944                   23212543.7154
  -7239012.71547  -5626311.57344  23874013.3054                   23874012.5784
 -58654624.27747 -45686058.18446  22238752.9454                   22238750.7664
 -43356531.05147 -33762058.79345  23085428.3204                   23085431.6844
 -30030522.38747 -23382743.97445  21422805.4774                   21422804.6764
  -2997502.67647  -2322818.38944  23407545.4534                   23407545.4224
 11  9 28  1  2  0.0000000  0 10G15G29G12G02G30G21G05G25G26G18
 -20649024.38748 -16072427.31046  21702048.1174                   21702047.0164
 -41509846.24248 -32328542.63447  20511129.5164                   20511127.8284
 -54809832.81246 -42690630.72744  24330946.7504                   24330949.2344
 -78997395.46547 -61537785.58044  23213298.3914                   23213295.3054
 -23215458.05547 -18072374.12044  23202436.6564                   23202436.8674
  -7399667.09047  -5751496.69544  23843441.9614                   23843440.8754
 -58674245.34847 -45701347.32845  22235018.8284                   22235017.2974
 -43380823.71947 -33780988.19345  23080805.2274                   23080809.1094
 -30165217.17248 -23487700.89545  21397174.5234                   21397172.8554
  -3171384.51247  -2458310.54444  23374456.6564                   23374456.5394
 11  9 28  1  2 30.0000000  0 10G15G29G12G02G30G21G05G25G26G18
 -20824002.71547 -16208773.97046  21668750.8984                   21668749.8834
 -41647580.43748 -32435867.94647  20484919.5314                   20484917.9344
 -54816699.09447 -42695981.15344  24329640.6724                   24329642.6644
 -79041064.65647 -61571813.53844  23204988.4144                   23204985.7774
 -23268153.89847 -18113435.82244  23192408.7424                   23192409.7504
  -7560329.69947  -5876688.21744  23812868.6954                   23812867.4844
 -58693689.22747 -45716498.38945  22231319.0164                   22231317.2734
 -43404897.27047 -33799746.85945  23076224.8524                   23076228.5004
 -30299256.74648 -23592147.26645  21371666.9304                   21371666.3914
  -3344992.53947  -2593589.30644  23341419.8134                   23341419.6254
 11  9 28  1  3  0.0000000  0 10G15G29G12G02G30G21G05G25G26G18
 -20998575.24247 -16344804.43046  21635530.7194                   21635529.4574
 -41784826.22748 -32542812.67047  20458802.5004                   20458800.8754
 -54823609.55947 -42701365.96344  24328325.7734                   24328327.2584
 -79084568.94147 -61605712.94544  23196709.6804                   23196706.4064
 -23320436.83647 -18154175.76044  23182459.1954                   23182460.8714
  -7720998.60247  -6001884.67344  23782295.0704                   23782292.6254
 -58712955.67647 -45731511.19445  22227652.8984                   22227651.2424
 -43428752.61347 -33818335.48845  23071685.2274                   23071688.2774
 -30432636.72748 -23696079.67345  21346285.9694                   21346284.7234
  -3518323.53147  -2728652.25044  23308436.5394                   23308435.7274
 11  9 28  1  3 30.0000000  0 10G15G29G12G02G30G21G05G25G26G18
 -21172742.71948 -16480519.26646  21602388.0314                   21602386.6174
 -41921585.05548 -32649377.96347  20432778.1174                   20432776.5554
 -54830570.25047 -42706789.94844  24327000.7424                   24327002.8094
 -79127911.41047 -61639486.33744  23188461.9304                   23188458.9844
 -23372313.14847 -18194598.87444  23172587.3364                   23172589.1484
  -7881676.80547  -6127088.37244  23751718.6094                   23751717.4924
 -58732050.35547 -45746390.15846  22224018.6024                   22224017.5274
 -43452396.30147 -33836759.17245  23067186.6644                   23067189.5514
 -30565358.54747 -23799499.22646  21321029.5864                   21321028.8054
  -3691380.82447  -2863501.89344  23275504.0164                   23275503.5744
 11  9 28  1  4  0.0000000  0 10G15G29G12G02G30G21G05G25G26G18
 -21346503.48447 -16615917.18846  21569322.0784                   21569321.2664
 -42057856.15248 -32755563.19847  20406846.2584                   20406844.8634
 -54837585.15647 -42712256.16244  24325666.5234                   24325667.8014
 -79171092.78947 -61673134.18044  23180244.6334                   23180241.9494
 -23423786.69147 -18234708.11944  23162793.0704                   23162793.3914
  -8042366.22347  -6252300.80044  23721140.1724                   23721138.0474
 -58750977.08647 -45761138.24545  22220416.8834                   22220415.6644
 -43475832.67247 -33855021.31245  23062726.1724                   23062729.6484
 -30697421.55947 -23902405.42745  21295898.9774                   21295897.8754
  -3864165.04346  -2998138.76544  23242624.4384                   23242623.6454
 11  9 28  1  4 30.0000000  0 10G15G29G12G02G30G21G05G25G26G18
 -21519853.21947 -16750994.81546  21536334.6724                   21536333.2974
 -42193636.12948 -32861365.74447  20381008.4924                   20381006.7384
 -54844655.09447 -42717765.21044  24324320.6724                   24324322.7544
 -79214111.22747 -61706655.02844  23172058.7114                   23172056.0984
 -23474858.88347 -18274504.64744  23153074.8524                   23153075.2114
  -8203065.03947  -6377520.58644  23690560.2274                   23690559.2194
 -58769735.82447 -45775755.43345  22216847.3054                   22216845.9384
 -43499063.30147 -33873123.16145  23058305.9064                   23058309.1564
 -30828822.15247 -24004795.45346  21270894.2034                   21270892.9104
  -4036673.64546  -3132560.84544  23209796.2814                   23209796.9304
 11  9 28  1  5  0.0000000  0 10G15G29G12G02G30G21G05G25G26G18
 -21692789.28148 -16885750.11446  21503426.0944                   21503425.0824
 -42328923.00448 -32966784.05247  20355264.2194                   20355262.5664
 -54851783.29346 -42723319.73143  24322964.1174                   24322966.2194
 -79256966.33647 -61740048.61044  23163903.4774                   23163901.1024
 -23525532.60547 -18313990.62544  23143431.0474                   23143432.0474
  -8363773.34447  -6502747.72744  23659978.0704                   23659977.2624
 -58788329.11347 -45790243.69845  22213309.3204                   22213308.2274
 -43522091.59047 -33891067.28145  23053923.9614                   23053926.6484
 -30959558.57847 -24106667.93346  21246015.3754                   21246014.6334
  -4208906.70747  -3266768.23344  23177021.7664                   23177021.9694
 11  9 28  1  5 30.0000000  0 10G15G29G12G02G30G21G05G25G26G18
 -21865309.35548 -17020181.25846  21470596.4534                   21470595.1334
 -42463716.27048 -33071817.73447  20329613.8364                   20329612.2154
 -54858972.97746 -42728922.03143  24321595.6414                   24321598.3834
 -79299658.64847 -61773315.37944  23155779.9694                   23155776.8794
 -23575811.52746 -18353169.05744  23133862.5944                   23133864.7034
  -8524492.35547  -6627983.21944  23629394.0234                   23629393.5084
 -58806759.85947 -45804605.28145  22209802.5394                   22209800.4964
 -43544921.31247 -33908856.71345  23049579.5474                   23049582.5744
 -31089629.55147 -24208021.90646  21221264.0394                   21221262.8164
  -4380864.36347  -3400761.03144  23144299.5084                   23144299.7704
 11  9 28  1  6  0.0000000  0 10G15G29G12G02G30G21G05G25G26G18
 -22037410.05947 -17154285.62346  21437846.8984                   21437845.3954
 -42598013.07848 -33176464.55847  20304057.8594                   20304056.3714
 -54866226.21146 -42734574.05443  24320215.8524                   24320218.7704
 -79342186.96546 -61806454.32544  23147686.1174                   23147683.1954
 -23625697.71547 -18392041.41844  23124370.2734                   23124371.4184
  -8685221.19947  -6753226.35544  23598808.3834                   23598808.0164
 -58825029.37147 -45818841.25845  22206325.3444                   22206324.1954
 -43567554.94947 -33926493.36045  23045272.6254                   23045275.1644
 -31219032.67248 -24308855.47046  21196639.3204                   21196638.2624
  -4552545.20747  -3534538.16244  23111629.0314                   23111630.0354
 11  9 28  1  6 30.0000000  0 10G15G29G12G02G30G21G05G25G26G18
 -20633665.57448 -16060458.67846  21704970.4384                   21704969.1804
 -41156389.46148 -32053121.45247  20578389.6804                   20578388.2074
 -53298127.56646 -41512678.92843  24618614.6724                   24618617.7194
 -77809131.73446 -60611865.82144  23439417.0864                   23439414.0204
 -22099774.69146 -17203010.49444  23414743.8834                   23414745.0784
  -7270536.62146  -5650874.59644  23868013.1094                   23868013.2304
 -57267721.66847 -44605354.73045  22502671.2894                   22502669.6724
 -42014577.29747 -32716380.94545  23340794.2424                   23340797.4144
 -29772343.98448 -23181565.54046  21471934.8444                   21471934.0514
  -3148525.57047  -2440496.69244  23378805.2114                   23378805.5984
 11  9 28  1  7  0.0000000  0 10G15G29G12G02G30G21G05G25G26G18
 -20804920.91048 -16193904.33146  21672381.7194                   21672380.4734
 -41289688.74648 -32156991.00247  20553023.4844                   20553021.7974
 -53305516.69946 -41518436.70843  24617209.0164                   24617210.9774
 -77851331.73846 -60644748.94944  23431386.9454                   23431383.5554
 -22148885.02346 -17241278.29844  23405397.3984                   23405400.0234
  -7431285.89847  -5776133.67144  23837423.9224                   23837423.8204
 -57285676.42247 -44619345.41645  22499254.7504                   22499253.3954
 -42036829.19947 -32733720.14145  23336559.6804                   23336562.8554
 -29900406.70348 -23281354.64046  21447565.6484                   21447564.2464
  -3319652.57447  -2573842.22644  23346240.7584                   23346240.7464
 11  9 28  1  7 30.0000000  0 10G15G29G12G02G30G21G05G25G26G18
 -20975749.07848 -16327017.11546  21639874.3054                   21639873.2194
 -41422486.73448 -32260469.91747  20527753.2584                   20527751.5314
 -53312977.42246 -41524250.35343  24615789.6804                   24615791.1884
 -77893367.31246 -60677503.96344  23423387.7584                   23423385.1914
 -22197611.90247 -17279247.28744  23396125.5944                   23396127.6024
  -7592046.13346  -5901401.25144  23806832.2114                   23806832.0004
 -57303477.42247 -44633216.31245  22495867.3524                   22495865.7624
 -42058895.24247 -32750914.47045  23332360.8284                   23332363.6644
 -30027796.77348 -23380619.58646  21423323.9924                   21423322.5164
  -3490502.24647  -2706971.66044  23313728.9844                   23313728.7274
 11  9 28  1  8  0.0000000  0 10G15G29G12G02G30G21G05G25G26G18
 -21146146.47748 -16459794.23746  21607448.5394                   21607447.1844
 -41554780.64548 -32363556.05247  20502578.4924                   20502576.8444
 -53320511.55945 -41530121.09843  24614355.0944                   24614357.5704
 -77935236.70746 -60710129.43444  23415420.4614                   23415417.4534
 -22245956.94947 -17316918.80244  23386926.0164                   23386928.0634
  -7752815.57446  -6026676.00044  23776238.9384                   23776238.3094
 -57321125.12947 -44646967.76545  22492508.6644                   22492507.3134
 -42080777.16447 -32767965.37745  23328196.5164                   23328200.4454
 -30154511.08248 -23479357.96646  21399210.9694                   21399210.0164
  -3661072.52347  -2839883.43644  23281270.6724                   23281269.9804
 11  9 28  1  8 30.0000000  0 10G15G29G12G02G30G21G05G25G26G18
 -21316113.84448 -16592236.26646  21575104.3754                   21575103.6644
 -41686572.05548 -32466250.62247  20477499.4534                   20477497.6414
 -53328125.67246 -41536054.20343  24612906.3284                   24612908.7114
 -77976943.06246 -60742627.89844  23407483.8984                   23407480.9534
 -22293926.86347 -17354297.95644  23377798.0164                   23377799.5904
  -7913598.20746  -6151961.03744  23745643.0004                   23745641.9574
 -57338625.41047 -44660604.33845  22489178.9614                   22489177.2664
 -42102481.87947 -32784878.19544  23324066.9224                   23324070.0204
 -30280551.64548 -23577571.36145  21375226.3284                   21375224.7934
  -3831366.94547  -2972580.24244  23248864.5784                   23248864.0234
 11  9 28  1  9  0.0000000  0 10G15G29G12G02G30G21G05G25G26G18
 -21485644.96548 -16724338.36546  21542844.0864                   21542842.6884
 -41817855.60948 -32568549.45647  20452516.8594                   20452515.2854
 -53335818.29746 -41542048.51943  24611443.1644                   24611445.1764
 -78018482.24246 -60774996.12144  23399579.2344                   23399576.8984
 -22341520.62147 -17391384.05244  23368741.3134                   23368742.5354
  -8074390.08246  -6277253.27744  23715044.7034                   23715044.5594
 -57355976.61347 -44674124.75645  22485877.0944                   22485875.7504
 -42124008.73447 -32801652.40145  23319970.3364                   23319973.1334
 -30405913.07448 -23675255.55245  21351370.6484                   21351369.3794
  -4001380.95347  -3105058.56744  23216511.6884                   23216510.8484
 11  9 28  1  9 30.0000000  0 10G15G29G12G02G30G21G05G25G26G18
 -21654738.59448 -16856099.57846  21510666.7814                   21510665.2774
 -41948631.18448 -32670452.48547  20427631.4614                   20427629.4694
 -53343593.77046 -41548107.33543  24609963.9224                   24609965.7734
 -78059855.90646 -60807235.34344  23391706.1174                   23391703.1954
 -22388742.77347 -17428180.53744  23359755.2034                   23359756.0704
  -8235192.55947  -6402553.79244  23684445.8834                   23684444.8014
 -57373182.40647 -44687531.85345  22482602.4224                   22482601.1524
 -42145362.44147 -32818291.72844  23315907.1024                   23315909.8874
 -30530595.29348 -23772410.49445  21327644.2584                   21327643.1454
  -4171115.92247  -3237319.46344  23184212.0634                   23184211.7304
 11  9 28  1 10  0.0000000  0 10G15G29G12G02G30G21G05G25G26G18
 -21823389.66447 -16987515.93646  21478573.4924                   21478571.7034
 -42078894.60248 -32771956.40647  20402842.8134                   20402840.7234
 -53351452.25446 -41554230.85043  24608468.5554                   24608470.3164
 -78101061.12146 -60839343.32444  23383864.8594                   23383862.5474
 -22435593.98047 -17464688.00244  23350839.8444                   23350840.9844
  -8396003.50046  -6527860.89844  23653843.9844                   23653842.9694
 -57390242.55547 -44700825.49045  22479356.2734                   22479355.0354
 -42166543.86747 -32834796.79144  23311876.5314                   23311879.6054
 -30654594.31648 -23869033.06946  21304047.9924                   21304046.9884
  -4340569.28946  -3369360.90144  23151966.4384                   23151965.8054
 11  9 28  1 10 30.0000000  0 10G15G29G12G02G30G21G05G25G26G18
 -21991599.02047 -17118588.08846  21446563.9384                   21446562.4574
 -42208647.60948 -32873062.61747  20378151.8054                   20378149.9884
 -53359399.48846 -41560423.58044  24606956.2504                   24606958.3204
 -78142100.87146 -60871322.37444  23376055.3444                   23376052.6174
 -22482080.47347 -17500911.27444  23341993.6644                   23341994.8164
  -8556826.50446  -6653177.42544  23623240.2274                   23623239.3244
 -57407162.55147 -44714009.89245  22476136.1174                   22476134.9534
 -42187559.50847 -32851172.68145  23307877.2584                   23307880.6334
 -30777911.84848 -23965124.60845  21280581.7114                   21280580.0084
  -4509743.52346  -3501184.87944  23119773.6644                   23119772.6914
 11  9 28  1 11  0.0000000  0 10G15G29G12G02G30G21G05G25G26G18
 -22159362.33648 -17249312.70246  21414639.8594                   21414638.4414
 -42337886.90648 -32973768.52947  20353557.7034                   20353556.7774
 -53367436.37146 -41566686.09744  24605426.2974                   24605428.7114
 -78182972.93746 -60903170.73844  23368277.9304                   23368274.8954
 -22528203.45747 -17536851.28744  23333216.8754                   23333218.4104
  -8717659.83247  -6778501.95444  23592634.6174                   23592633.4224
 -57423942.60547 -44727085.26445  22472943.3364                   22472941.5394
 -42208410.73047 -32867420.46744  23303909.1254                   23303913.2664
 -30900544.52048 -24060682.50245  21257245.5864                   21257243.9924
  -4678636.78547  -3632789.90144  23087633.8754                   23087633.6884
 11  9 28  1 11 30.0000000  0 10G15G29G12G02G30G21G05G25G26G18
 -22326679.64148 -17379689.75346  21382800.3524                   21382798.8164
 -42466613.63348 -33074075.02347  20329062.1564                   20329060.5004
 -53375568.61746 -41573022.92043  24603878.0554                   24603881.3954
 -78223679.91046 -60934890.47844  23360531.8054                   23360528.8754
 -22573968.92247 -17572512.68444  23324508.1334                   23324509.0234
  -8878506.29747  -6903836.74244  23562026.4534                   23562024.5744
 -57440587.91847 -44740055.63645  22469775.8674                   22469774.3284
 -42229103.69147 -32883544.88645  23299971.3054                   23299974.8164
 -31022494.09848 -24155708.10946  21234039.2424                   21234037.9574
  -4847251.48447  -3764177.87144  23055547.6644                   23055546.2704
 11  9 28  1 12  0.0000000  0 10G15G29G12G02G30G21G05G25G26G18
 -22493546.31648 -17509715.68446  21351046.2344                   21351045.1954
 -42594823.91048 -33173979.11147  20304664.7114                   20304662.9844
 -53383796.42646 -41579434.26443  24602312.9534                   24602315.3954
 -78264219.26247 -60966479.62244  23352817.4694                   23352814.1254
 -22619377.52347 -17607896.05444  23315866.4844                   23315868.0124
  -9039363.52746  -7029179.93744  23531415.7734                   23531414.2074
 -57457098.16847 -44752920.77645  22466634.1804                   22466632.2504
 -42249639.23847 -32899546.69145  23296064.5164                   23296067.3914
 -31143756.51248 -24250198.26746  21210963.8984                   21210961.9804
  -5015584.98847  -3895346.69644  23023514.5394                   23023513.6724
 11  9 28  1 12 30.0000000  0 10G15G29G12G02G30G21G05G25G26G18
 -22659958.35948 -17639387.35346  21319379.2274                   21319377.7704
 -42722514.51248 -33273478.23947  20280365.7584                   20280363.9804
 -53392121.28146 -41585921.15843  24600729.2974                   24600731.0704
 -78304589.26247 -60997936.76944  23345135.1094                   23345132.3204
 -22664430.86747 -17643002.56544  23307293.5314                   23307294.5704
  -9200230.29747  -7154530.51744  23500804.1644                   23500802.2894
 -57473473.97747 -44765681.15545  22463518.1334                   22463516.1844
 -42270019.20347 -32915427.22345  23292186.0784                   23292189.4494
 -31264328.94148 -24344150.77845  21188019.8054                   21188018.0274
  -5183635.57047  -4026295.11444  22991535.7274                   22991534.7544
 11  9 28  1 13  0.0000000  0 10G15G29G12G02G30G21G05G25G26G18
 -22825912.18748 -17768701.96346  21287799.2114                   21287797.7544
 -42849683.10548 -33372570.61447  20256166.6644                   20256165.1214
 -53400544.67246 -41592484.93143  24599126.2664                   24599128.5124
 -78344788.89847 -61029261.18844  23337485.3204                   23337482.2934
 -22709131.22347 -17677833.99944  23298787.3054                   23298788.2304
  -9361105.80146  -7279887.92844  23470190.0944                   23470188.6254
 -57489716.68047 -44778337.81145  22460427.0554                   22460425.1994
 -42290245.88347 -32931188.33245  23288336.6564                   23288340.4654
 -31384209.34848 -24437564.03946  21165207.2274                   21165205.5434
  -5351402.18047  -4157022.21344  22959610.4454                   22959610.1564
 11  9 28  1 13 30.0000000  0 10G15G29G12G02G30G21G05G25G26G18
 -22991408.85947 -17897660.35146  21256305.9454                   21256304.7344
 -42976331.91848 -33471257.96347  20232066.0234                   20232064.3674
 -53409072.67646 -41599130.13043  24597503.4384                   24597506.3444
 -78384821.03547 -61060455.07244  23329866.9304                   23329864.7114
 -22753484.98447 -17712395.41544  23290347.4224                   23290347.9884
  -9521993.02747  -7405254.50144  23439574.6564                   23439572.9024
 -57505831.80947 -44790895.06245  22457360.5004                   22457358.6174
 -42310325.94547 -32946835.18945  23284515.4774                   23284519.2464
 -31503399.60948 -24530439.51845  21142526.1254                   21142524.4774
  -5518888.00047  -4287530.54744  22927739.3364                   22927738.6994
 11  9 28  1 14  0.0000000  0 10G15G29G12G02G30G21G05G25G26G18
 -23156445.36747 -18026260.16346  21224900.9534                   21224898.9304
 -43102458.82848 -33569538.63347  20208064.4534                   20208062.9064
 -53417707.43746 -41605858.55243  24595860.7424                   24595862.3284
 -78424685.25447 -61091518.12344  23322281.2664                   23322278.8954
 -22797494.91047 -17746688.84344  23281972.5864                   23281972.3524
  -9682891.95347  -7530630.18644  23408956.3364                   23408955.4344
 -57521820.86747 -44803354.06645  22454317.7974                   22454316.1994
 -42330262.17247 -32962369.96644  23280721.9844                   23280725.3914
 -31621898.20348 -24622776.05745  21119976.1334                   21119975.0434
  -5686092.16447  -4417819.39044  22895921.0394                   22895920.7854
 11  9 28  1 14 30.0000000  0  9G15G29G02G30G21G05G25G26G18
 -21745592.89148 -16926894.54646  21493377.1414                   21493375.0124
 -41652637.41448 -32439807.62947  20483956.8524                   20483954.6214
 -76888959.16847 -59894848.44744  23614520.6414                   23614517.9654
 -21265741.93046 -16553115.13344  23573455.1564                   23573455.4804
  -8268376.38347  -6428410.10344  23678129.7274                   23678128.9534
 -55962265.01247 -43588115.73945  22751091.5084                   22751090.0664
 -40774636.44147 -31750194.12744  23576748.0864                   23576751.2934
 -30164279.23048 -23486969.01545  21397351.7114                   21397350.4414
  -4277588.06647  -3320283.64544  23163950.4614                   23163950.1524
 11  9 28  1 15  0.0000000  0  9G15G29G02G30G21G05G25G26G18
 -21909699.53547 -17054769.79246  21462148.5004                   21462146.6804
 -41777713.82448 -32537269.73047  20460155.0234                   20460153.4384
 -76928484.53146 -59925647.49044  23606999.3984                   23606996.1954
 -21309071.06246 -16586878.11844  23565209.6024                   23565210.7504
  -8429296.39547  -6553802.17944  23647507.5784                   23647506.4264
 -55978006.25047 -43600381.65245  22748095.9384                   22748094.3914
 -40794292.35247 -31765510.48344  23573007.6254                   23573010.9884
 -30281388.48848 -23578222.93546  21375066.5394                   21375065.1804
  -4444225.93747  -3450131.22144  23132240.2344                   23132239.7504
 11  9 28  1 15 30.0000000  0  9G15G29G02G30G21G05G25G26G18
 -22073328.18448 -17182272.57346  21431010.8524                   21431009.3364
 -41902253.46148 -32634313.56447  20436456.1884                   20436454.2894
 -76967830.37147 -59956306.58844  23599512.0164                   23599508.8284
 -21352055.15646 -16620372.20044  23557029.8134                   23557032.0204
  -8590217.72747  -6679195.29944  23616884.7344                   23616884.7034
 -55993617.35947 -43612546.15445  22745125.1414                   22745123.4414
 -40813803.53547 -31780714.03644  23569294.4614                   23569297.4884
 -30397791.70348 -23668926.70145  21352915.9694                   21352914.2704
  -4610570.93747  -3579750.62944  23100586.0944                   23100585.1294
 11  9 28  1 16  0.0000000  0  9G15G29G02G30G21G05G25G26G18
 -22236472.27047 -17309397.77846  21399965.8204                   21399964.2154
 -42026250.59048 -32730934.68147  20412860.2504                   20412858.3984
 -77006992.57446 -59986822.61944  23592059.4144                   23592056.8444
 -21394693.01246 -16653596.54444  23548916.4384                   23548918.0984
  -8751135.88747  -6804585.94944  23586263.4844                   23586262.4384
 -56009096.14847 -43624607.55445  22742179.9534                   22742178.3364
 -40833169.04347 -31795804.10044  23565609.6954                   23565612.5164
 -30513483.69548 -23759076.25446  21330899.8594                   21330898.9344
  -4776618.90647  -3709138.54444  23068988.0234                   23068987.3984
 11  9 28  1 16 30.0000000  0  9G15G29G02G30G21G05G25G26G18
 -22399132.15648 -17436145.67746  21369012.5234                   21369010.7274
 -42149706.66848 -32827134.20047  20389367.3204                   20389365.4694
 -77045973.44546 -60017197.31744  23584641.3524                   23584639.0784
 -21436990.65646 -16686555.75244  23540867.7194                   23540868.8524
  -8912053.76247  -6929976.37744  23555642.2274                   23555639.9414
 -56024447.73047 -43636569.83045  22739258.5004                   22739256.9804
 -40852394.87947 -31810785.31144  23561951.0314                   23561954.5274
 -30628466.12148 -23848672.91946  21309019.7894                   21309018.5514
  -4942372.29347  -3838296.90744  23037446.0704                   23037445.5514
 11  9 28  1 17  0.0000000  0  9G15G29G02G30G21G05G25G26G18
 -22561308.48447 -17562516.77646  21338151.3674                   21338149.2384
 -42272623.00448 -32922913.13547  20365976.9614                   20365975.7304
 -77084775.72346 -60047432.89244  23577257.9694                   23577255.5314
 -21478954.07846 -16719254.53544  23532882.9224                   23532883.6884
  -9072974.29747  -7055368.87644  23525019.8364                   23525018.0944
 -56039676.75047 -43648436.59245  22736360.2894                   22736359.1334
 -40871487.17247 -31825662.46345  23558317.8754                   23558321.0944
 -30742740.82048 -23937718.08646  21287274.1484                   21287272.6804
  -5107833.54747  -3967227.68344  23005959.5004                   23005958.6454
 11  9 28  1 17 30.0000000  0  9G15G29G02G30G21G05G25G26G18
 -22723000.58648 -17688510.55146  21307382.1804                   21307380.5234
 -42395000.52348 -33018272.21547  20342689.4384                   20342687.5984
 -77123401.09047 -60077530.53844  23569907.5474                   23569904.9924
 -21520588.42646 -16751696.90744  23524959.8364                   23524960.6804
  -9233899.44947  -7180764.99644  23494396.3914                   23494394.5554
 -56054787.34847 -43660211.07545  22733485.2274                   22733483.6254
 -40890451.09447 -31840439.62944  23554708.7424                   23554712.8054
 -30856308.75048 -24026212.52746  21265662.8914                   21265661.5354
  -5273004.71547  -4095932.38444  22974528.1414                   22974527.0394
 11  9 28  1 18  0.0000000  0  9G15G29G02G30G21G05G25G26G18
 -22884207.52047 -17814126.29046  21276705.7504                   21276703.6334
 -42516839.06648 -33113211.33147  20319504.2274                   20319502.7664
 -77161850.84846 -60107491.43943  23562590.7974                   23562587.9224
 -21561898.29346 -16783886.45944  23517099.0084                   23517100.1564
  -9394830.69947  -7306165.83344  23463771.6884                   23463769.9734
 -56069782.79747 -43671895.82945  22730631.4064                   22730630.0314
 -40909291.25847 -31855120.26944  23551124.1564                   23551126.9414
 -30969170.34048 -24114156.58046  21244185.8594                   21244184.6724
  -5437887.05147  -4224412.01044  22943152.0944                   22943151.1294
 11  9 28  1 18 30.0000000  0  9G15G29G02G30G21G05G25G26G18
 -23044925.38347 -17939360.93546  21246121.8204                   21246119.8594
 -42638135.40648 -33207727.93047  20296422.0944                   20296420.3324
 -77200122.85946 -60137313.83143  23555308.0234                   23555305.2934
 -21602884.88746 -16815824.06744  23509299.6884                   23509300.3984
  -9555766.04747  -7431569.89844  23433146.7034                   23433144.5314
 -56084663.41447 -43683491.10945  22727799.9774                   22727798.6024
 -40928008.93447 -31869705.52844  23547562.4064                   23547565.7464
 -31081322.52348 -24201547.84046  21222843.9304                   21222842.5164
  -5602478.41047  -4352664.93844  22911831.3984                   22911830.1914
 11  9 28  1 19  0.0000000  0  9G15G29G02G30G21G05G25G26G18
 -23205156.63347 -18064216.37646  21215630.7584                   21215629.1054
 -42758893.12948 -33301824.82647  20273442.9454                   20273441.3634
 -77238221.97346 -60167001.46743  23548058.2974                   23548055.0744
 -21643556.30546 -16847516.06644  23501560.0944                   23501561.2934
  -9716710.14147  -7556980.76444  23402520.1484                   23402517.8524
 -56099436.23047 -43695002.38245  22724988.5944                   22724987.3874
 -40946612.32847 -31884201.73044  23544021.9924                   23544025.6214
 -31192769.31248 -24288389.46146  21201636.5944                   21201634.7544
  -5766783.57047  -4480694.82244  22880565.2274                   22880564.3594
 11  9 28  1 19 30.0000000  0  9G15G29G02G30G21G05G25G26G18
 -23364896.53147 -18188688.97746  21185233.1724                   21185231.6524
 -42879108.87148 -33395499.41947  20250566.5554                   20250564.7234
 -77276145.44146 -60196552.24743  23540841.2344                   23540838.6604
 -21683913.57047 -16878963.27444  23493879.9534                   23493881.5744
  -9877660.76247  -7682396.72944  23371892.1724                   23371890.3834
 -56114100.70747 -43706429.23745  22722197.8134                   22722196.6844
 -40965102.35547 -31898609.56744  23540503.5864                   23540507.2734
 -31303507.73448 -24374679.09545  21180563.4384                   21180561.9694
  -5930800.20747  -4608499.87944  22849353.7194                   22849352.9734
 11  9 28  1 20  0.0000000  0  9G15G29G02G30G21G05G25G26G18
 -23524142.61347 -18312776.77846  21154929.6334                   21154927.9614
 -42998780.58248 -33488750.08447  20227793.7274                   20227792.1524
 -77313892.64846 -60225965.65743  23533658.8594                   23533655.4184
 -21723959.31246 -16910167.78444  23486260.1644                   23486261.1644
 -10038617.73447  -7807817.66044  23341262.9694                   23341261.2464
 -56128658.78547 -43717773.16945  22719427.8134                   22719425.9414
 -40983481.81647 -31912931.29144  23537006.0234                   23537009.3794
 -31413536.50448 -24460415.76146  21159625.6954                   21159623.9574
  -6094527.84447  -4736079.75344  22818197.3914                   22818196.8484
 11  9 28  1 20 30.0000000  0  9G15G29G02G30G21G05G25G26G18
 -23682894.41447 -18436479.41546  21124719.9924                   21124718.6334
 -43117909.09848 -33581577.47647  20205124.4774                   20205122.5514
 -77351465.64546 -60255243.36743  23526508.3204                   23526505.7544
 -21763698.68746 -16941133.54344  23478697.4064                   23478698.7154
 -10199582.87547  -7933244.95144  23310632.3674                   23310630.4654
 -56143114.22747 -43729037.16045  22716677.1724                   22716675.2504
 -41001755.70747 -31927170.72544  23533528.9924                   23533531.8834
 -31522856.44548 -24545600.09145  21138822.6724                   21138820.9494
  -6257968.12947  -4863435.72744  22787095.2664                   22787094.4064
 11  9 28  1 21  0.0000000  0  9G15G29G02G30G21G05G25G26G18
 -23841150.55147 -18559795.83146  21094604.5784                   21094603.3404
 -43236494.41848 -33673981.59247  20182558.3984                   20182556.4024
 -77388865.03946 -60284385.74744  23519391.3754                   23519389.0594
 -21803136.05546 -16971863.97144  23471192.5554                   23471194.1724
 -10360557.17247  -8058679.38144  23279999.9224                   23279998.3954
 -56157470.10547 -43740223.54745  22713945.4534                   22713943.6024
 -41019928.45347 -31941331.33544  23530071.4774                   23530074.0354
 -31631468.06248 -24630232.50645  21118154.5634                   21118152.8484
  -6421122.05547  -4990568.55044  22756048.3054                   22756047.1054
 11  9 28  1 21 30.0000000  0  9G15G29G02G30G21G05G25G26G18
 -23998908.78147 -18682724.28046  21064584.4614                   21064583.3364
 -43354534.71948 -33765961.02547  20160096.1954                   20160094.3444
 -77426090.37946 -60313392.55043  23512308.0394                   23512305.0434
 -21842274.25046 -17002361.28144  23463744.8054                   23463746.1524
 -10521539.65647  -8184120.19045  23249365.8834                   23249364.3364
 -56171728.10947 -43751333.66145  22711231.6804                   22711230.1214
 -41038002.92247 -31955415.39244  23526631.5004                   23526634.6954
 -31739370.17248 -24714312.02846  21097621.5084                   21097619.8794
  -6583989.32847  -5117477.99944  22725055.7664                   22725054.4104
 11  9 28  1 22  0.0000000  0  9G15G29G02G30G21G05G25G26G18
 -24156165.45748 -18805261.88646  21034659.7664                   21034657.7974
 -43472027.95748 -33857514.17347  20137738.0704                   20137735.9264
 -77463140.07846 -60342262.44544  23505257.4144                   23505254.8134
 -21881115.07047 -17032626.90544  23456354.0394                   23456355.1374
 -10682529.39547  -8309566.64344  23218730.0474                   23218728.8674
 -56185889.00447 -43762368.11645  22708537.0944                   22708535.4104
 -41055980.86347 -31969424.23044  23523210.8754                   23523213.0274
 -31846560.79748 -24797837.16046  21077223.9614                   21077221.9184
  -6746568.70347  -5244163.12144  22694117.5784                   22694116.8834
 11  9 28  1 22 30.0000000  0  9G15G29G02G30G21G05G25G26G18
 -22737493.80148 -17699803.41246  21304623.7584                   21304622.0904
 -42013549.20748 -32721037.19147  20415277.2034                   20415275.2734
 -75924593.55946 -59143395.07244  23798033.5164                   23798031.1214
 -20344241.12547 -15835062.83044  23748811.3054                   23748812.7344
  -9268101.84447  -7207415.22444  23487887.0234                   23487885.4224
 -54624534.60547 -42545728.31245  23005652.9304                   23005651.4774
 -39498445.54347 -30755760.38244  23819599.5784                   23819603.4494
 -30377616.14147 -23653204.92946  21356754.4774                   21356752.9844
  -5333434.87147  -4143019.76144  22963028.2424                   22963026.8674
 11  9 28  1 23  0.0000000  0  9G15G29G02G30G21G05G25G26G18
 -22893740.71548 -17821554.20146  21274890.8754                   21274889.3444
 -42129943.87548 -32811734.31147  20393127.6724                   20393126.0634
 -75961291.35246 -59171990.80444  23791050.5864                   23791047.3404
 -20382496.85946 -15864872.52344  23741531.1804                   23741532.6764
  -9429106.12147  -7332873.03344  23457248.8594                   23457247.6174
 -54638506.57047 -42556615.55545  23002994.3444                   23002992.3554
 -39516239.97747 -30769626.23344  23816213.5704                   23816216.9064
 -30483381.29748 -23735619.31446  21336627.9694                   21336626.3914
  -5495437.17647  -4269255.22844  22932199.9304                   22932198.5514
 11  9 28  1 23 30.0000000  0  9G15G29G02G30G21G05G25G26G18
 -23049480.65248 -17942909.94646  21245254.3524                   21245252.8244
 -42245788.73448 -32902003.00547  20371083.1954                   20371081.2814
 -75997814.19146 -59200450.16244  23784100.2034                   23784097.6994
 -20420466.09446 -15894458.92443  23734305.2194                   23734307.1174
  -9590118.84447  -7458337.39944  23426609.0704                   23426607.6054
 -54652388.32047 -42567432.49445  23000352.1644                   23000350.6994
 -39533948.63747 -30783425.23444  23812843.7034                   23812847.3094
 -30588434.02348 -23817478.55446  21316637.0944                   21316635.4574
  -5657152.44147  -4395267.02444  22901426.2274                   22901425.1764
 11  9 28  1 24  0.0000000  0  9G15G29G02G30G21G05G25G26G18
 -23204712.71948 -18063869.94646  21215714.9304                   21215713.2154
 -42361084.14148 -32991843.56147  20349143.5004                   20349141.4614
 -76034162.99646 -59228773.94544  23777183.0394                   23777180.8164
 -20458153.34346 -15923825.70843  23727133.8754                   23727135.5634
  -9751140.24647  -7583808.53944  23395967.6954                   23395966.1294
 -54666183.30947 -42578181.84545  22997727.4064                   22997726.0594
 -39551575.90647 -30797160.83444  23809489.6644                   23809492.5824
 -30692775.18448 -23898783.32746  21296781.7664                   21296779.9534
  -5818581.96147  -4521056.15644  22870707.0944                   22870706.1374
 11  9 28  1 24 30.0000000  0  9G15G29G02G30G21G05G25G26G18
 -23359434.57848 -18184432.38346  21186272.1174                   21186270.8444
 -42475828.91848 -33081255.04947  20327308.1254                   20327306.1564
 -76070337.65646 -59256962.00044  23770299.3054                   23770296.4264
 -20495561.72746 -15952975.10943  23720015.0864                   23720016.5554
  -9912170.89147  -7709286.89044  23365324.6644                   23365322.2734
 -54679893.12147 -42588864.80445  22995118.4064                   22995117.0004
 -39569124.95347 -30810835.45444  23806149.4844                   23806153.0594
 -30796403.96148 -23979532.99245  21277062.1884                   21277060.0784
  -5979725.68447  -4646622.60644  22840042.7974                   22840041.9064
 11  9 28  1 25  0.0000000  0  9G15G29G02G30G21G05G25G26G18
 -23513645.89548 -18304597.00646  21156926.5634                   21156925.1024
 -42590022.91848 -33170237.35747  20305577.7114                   20305575.7584
 -76106339.18047 -59285015.15944  23763448.3754                   23763445.5664
 -20532695.73446 -15981910.78343  23712948.8594                   23712950.4774
 -10073211.78547  -7834773.20144  23334679.7114                   23334677.5044
 -54693520.88347 -42599483.83145  22992525.8364                   22992523.9804
 -39586600.14547 -30824452.53944  23802824.4924                   23802827.8554
 -30899321.10548 -24059728.14046  21257477.4614                   21257475.8524
  -6140584.41847  -4771967.00045  22809431.9694                   22809430.8874
 11  9 28  1 25 30.0000000  0  9G15G29G02G30G21G05G25G26G18
 -23667343.12548 -18424361.02746  21127679.1884                   21127677.7544
 -42703664.14848 -33258788.94147  20283952.4844                   20283950.6024
 -76142166.32047 -59312932.41144  23756631.0164                   23756628.2384
 -20569557.46146 -16010634.20043  23705934.7114                   23705935.5164
 -10234261.68047  -7960266.55445  23304032.6644                   23304030.5124
 -54707067.34047 -42610039.53045  22989947.5864                   22989946.1294
 -39604003.52747 -30838013.70244  23799512.6094                   23799515.7304
 -31001525.04347 -24139367.54846  21238028.5784                   21238026.9654
  -6301157.29347  -4897088.64144  22778876.2894                   22778875.3484
 11  9 28  1 26  0.0000000  0  9G15G29G02G30G21G05G25G26G18
 -23820522.87148 -18543721.81546  21098529.8754                   21098528.4654
 -42816750.23048 -33346907.93547  20262433.1024                   20262431.2814
 -76177818.08247 -59340713.05244  23749846.4694                   23749843.6334
 -20606149.07046 -16039147.19443  23698971.7034                   23698973.0124
 -10395318.95347  -8085765.61444  23273384.8674                   23273382.3014
 -54720533.50447 -42620532.64845  22987384.6644                   22987383.5474
 -39621337.15647 -30851520.45444  23796213.9614                   23796217.9614
 -31103014.09447 -24218449.89845  21218715.7814                   21218714.0394
  -6461443.21947  -5021986.68544  22748374.6564                   22748373.1414
 11  9 28  1 26 30.0000000  0  9G15G29G02G30G21G05G25G26G18
 -23973184.98448 -18662679.25346  21069479.3054                   21069477.3874
 -42929282.31248 -33434595.25547  20241018.5314                   20241016.7384
 -76213295.85947 -59368358.07444  23743095.4224                   23743093.0164
 -20642475.71146 -16067453.76543  23692058.5784                   23692060.2114
 -10556385.36347  -8211271.85644  23242734.4774                   23242732.5514
 -54733922.99247 -42630966.02445  22984837.2734                   22984835.6684
 -39638606.00847 -30864976.77444  23792928.5784                   23792932.2624
 -31203789.84047 -24296976.44246  21199539.0704                   21199537.5664
  -6621444.14847  -5146662.64244  22717927.5474                   22717926.1724
 11  9 28  1 27  0.0000000  0  9G15G29G02G30G21G05G25G26G18
 -24125325.22348 -18781230.05446  21040528.0554                   21040526.1414
 -43041256.68748 -33521847.99047  20219710.7114                   20219708.8984
 -76248597.23847 -59395865.68144  23736378.0554                   23736374.6334
 -20678537.99646 -16095554.30043  23685196.5554                   23685197.3094
 -10717458.56646  -8336783.33244  23212083.0554                   23212080.9654
 -54747235.22347 -42641339.20345  22982304.0634                   22982302.2074
 -39655810.75047 -30878383.15544  23789654.1254                   23789657.3554
 -31303849.21947 -24374944.75546  21180498.2504                   21180496.6994
  -6781157.20746  -5271114.30244  22687534.6484                   22687533.7344
 11  9 28  1 27 30.0000000  0  9G15G29G02G30G21G05G25G26G18
 -24276943.09048 -18899373.79946  21011676.2974                   21011674.0594
 -43152674.22348 -33608666.82747  20198508.6094                   20198506.8204
 -76283723.43447 -59423236.80744  23729693.8204                   23729691.0234
 -20714340.91447 -16123452.69743  23678384.4384                   23678384.6054
 -10878539.97347  -8462301.21744  23181430.3284                   23181428.2194
 -54760473.73847 -42651654.92645  22979784.8834                   22979783.1134
 -39672956.19147 -30891743.29344  23786391.0784                   23786394.5164
 -31403193.61747 -24452355.95446  21161593.5474                   21161591.8364
  -6940584.40647  -5395343.20845  22657196.9064                   22657196.0164
 11  9 28  1 28  0.0000000  0  9G15G29G02G30G21G05G25G26G18
 -24428037.47348 -19017109.63246  20982923.5704                   20982922.0554
 -43263535.06248 -33695051.87347  20177412.1644                   20177410.3204
 -76318675.18446 -59450471.96744  23723042.5474                   23723039.9924
 -20749888.84447 -16151152.45144  23671619.2814                   23671620.2814
 -11039630.43747  -8587826.15044  23150775.7814                   23150773.8444
 -54773641.44147 -42661915.48445  22977279.4224                   22977277.2894
 -39690046.45347 -30905060.43844  23783139.2114                   23783143.2424
 -31501823.87547 -24529210.68445  21142824.7814                   21142823.1844
  -7099726.88347  -5519350.24944  22626913.0394                   22626912.0354
 11  9 28  1 28 30.0000000  0  9G15G29G02G30G21G05G25G26G18
 -24578605.47748 -19134435.30246  20954271.5394                   20954269.6374
 -43373836.75848 -33781001.24247  20156422.8204                   20156421.0824
 -76353451.49646 -59477570.37444  23716424.5234                   23716422.1954
 -20785183.87547 -16178655.08244  23664903.2584                   23664904.6294
 -11200728.66447  -8713357.12744  23120119.2814                   23120117.5744
 -54786739.00847 -42672121.38245  22974786.5554                   22974785.3054
 -39707083.54747 -30918336.16744  23779898.3754                   23779900.9064
 -31599738.40648 -24605507.68046  21124192.2504                   21124190.7464
  -7258583.25847  -5643134.38145  22596683.6954                   22596682.4454
 11  9 28  1 29  0.0000000  0  9G15G29G02G30G21G05G25G26G18
 -24728646.56648 -19251350.39246  20925719.3444                   20925717.7894
 -43483580.35248 -33866515.70947  20135539.2034                   20135537.5784
 -76388053.73846 -59504533.22243  23709839.6174                   23709837.3204
 -20820230.71947 -16205964.36244  23658233.9924                   23658235.2664
 -11361836.36347  -8838895.53445  23089461.9924                   23089459.8874
 -54799769.80547 -42682275.25445  22972307.5004                   22972304.9534
 -39724072.22347 -30931574.13844  23776665.5864                   23776668.2894
 -31696938.63747 -24681248.09746  21105695.9614                   21105693.8954
  -7417155.40647  -5766697.00444  22566508.2034                   22566506.7344
 11  9 28  1 29 30.0000000  0  9G15G29G02G30G21G05G25G26G18
 -24878157.55548 -19367852.41446  20897268.6024                   20897266.7894
 -43592763.27048 -33951593.29447  20114762.4224                   20114760.5664
 -76422480.56246 -59531359.30543  23703288.7734                   23703285.6764
 -20855031.39147 -16233081.79944  23651611.6954                   23651613.3914
 -11522951.02747  -8964439.33344  23058802.5704                   23058800.7934
 -54812734.31247 -42692377.48545  22969840.1414                   22969837.8524
 -39741014.00847 -30944775.59844  23773440.8914                   23773444.8284
 -31793422.87148 -24756430.59645  21087335.1724                   21087333.9534
  -7575441.97747  -5890037.11145  22536387.5394                   22536385.9574
 11  9 28  1 30  0.0000000  0  9G15G29G02G30G21G05G25G26G18
 -25027137.60548 -19483940.71546  20868918.6644                   20868916.3404
 -43701385.87948 -34036234.27147  20094092.3524                   20094090.4924
 -76456732.74646 -59558049.39744  23696770.9694                   23696768.6254
 -20889590.23847 -16260010.79144  23645035.6724                   23645036.3954
 -11684074.57447  -9089990.07544  23028141.5864                   23028139.4774
 -54825635.42247 -42702430.27145  22967385.1724                   22967382.9654
 -39757913.38747 -30957943.99744  23770225.2504                   23770229.0474
 -31889192.13748 -24831055.97746  21069110.8834                   21069109.0664
  -7733444.12947  -6013155.59044  22506320.7734                   22506319.3444
 11  9 28  1 30 30.0000000  0  9G15G29G02G30G21G05G25G26G18
 -23600161.98448 -18372011.61646  21140463.1804                   21140461.0824
 -42234025.64148 -32892836.66947  20373321.6564                   20373319.8714
 -74915391.46946 -58357004.29143  23990077.7974                   23990075.5664
 -19348491.55947 -15059154.68144  23938296.2424                   23938298.1094
 -10269782.77747  -7987944.44144  23297272.1484                   23297269.9924
 -53263056.87547 -41484836.61045  23264733.1414                   23264731.8164
 -38199354.91047 -29743482.90244  24066809.7894                   24066813.0394
 -30408825.13348 -23677523.22946  21350815.7114                   21350813.6684
  -6315738.53147  -4908449.83944  22776100.6174                   22776099.4884
 11  9 28  1 31  0.0000000  0  9G15G29G02G30G21G05G25G26G18
 -23748076.69148 -18487269.77746  21112316.0234                   21112313.8674
 -42341527.18748 -32976604.08247  20352864.7664                   20352863.0204
 -74949296.60546 -58383423.86344  23983626.7974                   23983624.4104
 -19382578.73847 -15085716.15044  23931810.6414                   23931812.0124
 -10430924.43747  -8113509.28544  23266608.2274                   23266605.9964
 -53275839.16047 -41494796.84045  23262301.0784                   23262299.9454
 -38216180.71547 -29756593.98244  24063607.3364                   24063611.0594
 -30503165.94548 -23751035.51446  21332863.2734                   21332861.3834
  -6473174.43447  -5031127.09744  22746141.8284                   22746140.0354
 11  9 28  1 31 30.0000000  0  9G15G29G02G30G21G05G25G26G18
 -23895457.41048 -18602111.84846  21084270.2114                   21084268.1914
 -42448468.42248 -33059934.89947  20332514.7344                   20332512.5554
 -74983029.31646 -58409709.17743  23977207.5474                   23977204.8984
 -19416436.57446 -15112098.91744  23925366.9694                   23925368.5314
 -10592076.43747  -8239082.21344  23235941.8204                   23235939.6994
 -53288566.29347 -41504714.09644  23259879.5784                   23259877.7424
 -38232975.98847 -29769681.25444  24060411.4224                   24060414.8914
 -30596794.32848 -23823992.68045  21315046.1254                   21315044.3674
  -6630328.96547  -5153585.07744  22716236.2034                   22716235.0044
 11  9 28  1 32  0.0000000  0  9G15G29G02G30G21G05G25G26G18
 -24042303.11348 -18716537.02346  21056326.0704                   21056324.1054
 -42554849.50448 -33142829.24447  20312270.9534                   20312268.8284
 -75016590.62946 -58435860.85343  23970820.4224                   23970818.6334
 -19450069.11346 -15138306.07244  23918967.3204                   23918968.5274
 -10753239.08247  -8364663.44144  23205273.3204                   23205271.6884
 -53301240.71147 -41514590.25744  23257467.7734                   23257465.6844
 -38249744.44146 -29782747.65144  24057220.2194                   24057224.3204
 -30689710.67647 -23896394.99145  21297364.7344                   21297362.7234
  -6787202.91847  -5275824.43545  22686384.0474                   22686381.9924
 11  9 28  1 32 30.0000000  0  9G15G29G02G30G21G05G25G26G18
 -24188607.33248 -18830540.25646  21028485.2814                   21028483.6484
 -42660664.95348 -33225282.81147  20292134.7584                   20292133.1134
 -75049975.58246 -58461875.09643  23964467.6254                   23964465.3834
 -19483475.10246 -15164336.74244  23912609.9534                   23912611.7034
 -10914407.96147  -8490249.47045  23174604.0314                   23174602.1724
 -53313859.85247 -41524423.36145  23255066.2114                   23255064.2344
 -38266484.73046 -29795792.08544  24054034.3594                   24054038.7114
 -30781910.42247 -23968238.91546  21279819.5474                   21279818.0984
  -6943791.75047  -5397841.63745  22656586.3364                   22656584.0634
 11  9 28  1 33  0.0000000  0  9G15G29G02G30G21G05G25G26G18
 -24334372.14548 -18944123.16846  21000747.4384                   21000745.3054
 -42765917.72348 -33307297.93547  20272105.8674                   20272104.0204
 -75083187.85546 -58487754.79743  23958148.1884                   23958144.9654
 -19516661.48847 -15190196.30244  23906294.7894                   23906296.8794
 -11075586.30147  -8615842.95544  23143933.1174                   23143930.4414
 -53326428.65247 -41534217.23544  23252674.6804                   23252672.6724
 -38283203.57846 -29808819.80044  24050853.5554                   24050857.0824
 -30873397.41448 -24039527.45845  21262410.4304                   21262408.2584
  -7100099.39547  -5519639.70944  22626841.8524                   22626839.6214
 11  9 28  1 33 30.0000000  0  9G15G29G02G30G21G05G25G26G18
 -24479593.53148 -19057282.64246  20973112.6804                   20973110.6254
 -42870605.12948 -33388872.50647  20252184.4224                   20252182.5944
 -75116225.29346 -58513498.26043  23951861.4384                   23951858.5824
 -19549629.43046 -15215885.69344  23900020.9614                   23900022.7584
 -11236771.94547  -8741442.05244  23113260.0634                   23113258.2074
 -53338946.89847 -41543971.70945  23250292.5784                   23250290.7504
 -38299901.94546 -29821831.55744  24047675.7194                   24047679.4184
 -30964169.36348 -24110258.81846  21245136.5234                   21245135.0984
  -7256124.03147  -5641217.27444  22597151.0554                   22597149.4104
 11  9 28  1 34  0.0000000  0  9G15G29G02G30G21G05G25G26G18
 -24624268.14148 -19170016.06446  20945581.6414                   20945580.0234
 -42974724.77348 -33470004.68247  20232371.0084                   20232369.2584
 -75149086.32846 -58539104.24343  23945608.3914                   23945604.8324
 -19582380.69546 -15241406.11743  23893788.3984                   23893790.2734
 -11397962.43747  -8867044.96944  23082586.3674                   23082584.2034
 -53351415.13747 -41553687.20644  23247919.8134                   23247918.2384
 -38316581.30546 -29834828.50944  24044501.4064                   24044505.6994
 -31054225.11748 -24180432.11246  21227999.9694                   21227998.1454
  -7411864.49247  -5762573.39844  22567514.5164                   22567513.0004
 11  9 28  1 34 30.0000000  0  9G15G29G02G30G21G05G25G26G18
 -24768398.28548 -19282325.21746  20918155.1414                   20918152.6454
 -43078279.95748 -33550697.00047  20212665.1414                   20212663.3794
 -75181774.68447 -58564575.72543  23939387.6484                   23939384.4654
 -19614922.40647 -15266763.33843  23887596.3524                   23887598.1644
 -11559162.13347  -8992655.05244  23051911.1094                   23051909.2194
 -53363838.57847 -41563367.78945  23245555.7274                   23245554.0784
 -38333248.60547 -29847816.07844  24041329.6644                   24041334.3094
 -31143568.59048 -24250050.37646  21210998.0944                   21210996.7234
  -7567324.56647  -5883711.00545  22537931.3284                   22537929.7234
 11  9 28  1 35  0.0000000  0  9G15G29G02G30G21G05G25G26G18
 -24911977.96948 -19394205.44546  20890832.6804                   20890830.3914
 -43181265.78548 -33630945.68147  20193067.6484                   20193065.8404
 -75214285.77047 -58589909.10343  23933200.9454                   23933198.4534
 -19647253.53146 -15291956.46143  23881443.7584                   23881445.9654
 -11720365.88747  -9118268.28244  23021235.3364                   23021232.7384
 -53376215.02746 -41573011.78845  23243200.9454                   23243198.9884
 -38349902.63347 -29860793.28244  24038161.1564                   24038164.8284
 -31232195.48048 -24319110.27945  21194133.1254                   21194131.3404
  -7722500.00047  -6004626.84945  22508402.4774                   22508400.6884
 11  9 28  1 35 30.0000000  0  9G15G29G02G30G21G05G25G26G18
 -25055004.46948 -19505654.61146  20863615.2664                   20863613.1724
 -43283680.37948 -33710749.23447  20173579.0084                   20173577.1024
 -75246618.66846 -58615103.57743  23927048.0474                   23927045.9264
 -19679376.44546 -15316987.37943  23875331.2734                   23875333.4384
 -11881572.61747  -9243883.81745  22990558.4224                   22990556.2584
 -53388545.14146 -41582619.67045  23240854.1954                   23240852.4884
 -38366545.48047 -29873761.76744  24034994.2424                   24034997.5514
 -31320105.26648 -24387611.37546  21177404.6414                   21177402.7624
  -7877390.15247  -6125320.38745  22478928.0944                   22478926.7074
 11  9 28  1 36  0.0000000  0  9G15G29G02G30G21G05G25G26G18
 -25197475.35948 -19616670.84946  20836503.7974                   20836501.9104
 -43385522.95348 -33790107.06247  20154198.8754                   20154197.1094
 -75278773.09446 -58640158.95043  23920930.0234                   23920927.0634
 -19711293.93746 -15341858.17643  23869257.4614                   23869259.3554
 -12042781.32047  -9369500.92145  22959881.1484                   22959879.2814
 -53400830.32447 -41592192.51245  23238516.7664                   23238514.7734
 -38383179.55947 -29886723.43144  24031828.5784                   24031832.8914
 -31407297.64548 -24455553.47645  21160812.2344                   21160810.3874
  -8031994.69947  -6245791.38045  22449507.5554                   22449506.1094
 11  9 28  1 36 30.0000000  0  9G15G29G02G30G21G05G25G26G18
 -25339387.21948 -19727251.46846  20809498.9924                   20809497.1134
 -43486790.53148 -33869016.84047  20134928.2274                   20134926.3404
 -75310746.82846 -58665073.62043  23914845.4304                   23914842.3094
 -19743007.32446 -15366569.99443  23863222.7584                   23863224.0984
 -12203989.87547  -9495117.89245  22929204.1564                   22929202.1484
 -53413069.88346 -41601729.82045  23236187.5084                   23236185.5044
 -38399806.10547 -29899679.23644  24028664.8054                   24028668.8984
 -31493770.85948 -24522935.16146  21144356.8364                   21144355.3484
  -8186311.89547  -6366038.46945  22420141.7734                   22420139.8134
 11  9 28  1 37  0.0000000  0  9G15G29G02G30G21G05G25G26G18
 -25480735.60548 -19837393.03346  20782601.3284                   20782599.1214
 -43587479.96148 -33947476.11947  20115767.8364                   20115766.1334
 -75342536.85246 -58689845.06143  23908795.6564                   23908792.3834
 -19774516.90646 -15391122.94643  23857226.3914                   23857228.0984
 -12365194.78147  -9620732.02045  22898527.6564                   22898525.8164
 -53425262.69947 -41611230.70445  23233867.0234                   23233865.5354
 -38416425.13747 -29912629.20744  24025501.9534                   24025505.8834
 -31579522.18048 -24589754.35145  21128039.2894                   21128037.4614
  -8340339.00447  -6486059.49845  22390831.7194                   22390829.6024
 11  9 28  1 37 30.0000000  0  9G15G29G02G30G21G05G25G26G18
 -25621519.40648 -19947094.64546  20755810.9694                   20755809.0664
 -43687591.14848 -34025484.81447  20096716.8834                   20096715.0204
 -75374143.40246 -58714473.57943  23902780.8834                   23902778.6254
 -19805826.49247 -15415520.12543  23851269.4064                   23851269.8634
 -12526396.41047  -9746343.55745  22867852.0944                   22867850.3324
 -53437411.02747 -41620696.93645  23231555.1254                   23231553.9574
 -38433040.09047 -29925575.95944  24022340.1884                   24022344.4304
 -31664552.68748 -24656011.86745  21111858.8524                   21111856.4344
  -8494076.59847  -6605854.94145  22361576.1094                   22361574.5314
 11  9 28  1 38  0.0000000  0  9G15G29G02G30G21G05G25G26G18
 -25761737.25848 -20056355.27246  20729128.4224                   20729126.0984
 -43787123.61748 -34103042.56847  20077776.7664                   20077774.7934
 -75405566.87946 -58738959.42143  23896801.2584                   23896798.8364
 -19836939.59847 -15439764.11443  23845348.9304                   23845348.8674
 -12687594.82047  -9871952.60745  22837176.7894                   22837175.0664
 -53449516.64847 -41630129.89245  23229251.4224                   23229250.0044
 -38449654.24647 -29938522.08444  24019179.3674                   24019183.2074
 -31748862.62148 -24721707.90746  21095814.5084                   21095812.8094
  -8647525.31647  -6725425.29745  22332376.0314                   22332374.1484
 11  9 28  1 38 30.0000000  0  9G15G29G02G30G21G05G25G26G18
 -24325957.08248 -18937565.46946  21002348.2664                   21002346.1374
 -42310647.68448 -32952541.82247  20358740.7114                   20358738.6884
 -73861380.44146 -57535697.34243  24190650.6954                   24190647.8914
 -18292432.62947 -14236252.25843  24139258.1254                   24139259.9304
 -11273357.91447  -8769949.72745  23106297.8594                   23106295.4964
 -51886154.84847 -40411925.89344  23526748.8134                   23526747.4454
 -36890844.18047 -28723864.98743  24315811.0864                   24315814.2384
 -30257023.98848 -23559236.22946  21379702.1024                   21379700.0004
  -7225254.31247  -5617162.08645  22603024.4694                   22603022.8014
 11  9 28  1 39  0.0000000  0  9G15G29G02G30G21G05G25G26G18
 -24465025.18048 -19045930.18246  20975884.5084                   20975882.1564
 -42409008.45348 -33029186.57047  20340023.3364                   20340021.4924
 -73892424.72346 -57559887.62243  24184742.8834                   24184739.5744
 -18323149.72346 -14260187.73443  24133412.8674                   24133414.7624
 -11434535.01647  -8895542.19045  23075626.7344                   23075623.7304
 -51898166.93047 -40421285.94244  23524463.4844                   23524462.2854
 -36907452.83647 -28736806.77343  24312650.3364                   24312653.2274
 -30339881.72748 -23623800.66546  21363935.0084                   21363933.0434
  -7378113.10547  -5736272.72745  22573936.9224                   22573935.1374
 11  9 28  1 39 30.0000000  0  9G15G29G02G30G21G05G25G26G18
 -24603510.64548 -19153840.89646  20949531.1644                   20949528.9454
 -42506776.96148 -33105369.80847  20321418.6334                   20321416.5084
 -73923273.74246 -57583925.79844  24178872.1804                   24178869.3874
 -18353667.98446 -14283968.26343  24127605.6024                   24127606.6134
 -11595695.55947  -9021121.73345  23044958.2194                   23044955.9064
 -51910129.16447 -40430607.16944  23522187.0394                   23522185.4454
 -36924057.51247 -28749745.52243  24309491.0314                   24309494.1214
 -30422008.29748 -23687795.39245  21348306.8524                   21348304.6644
  -7530671.59447  -5855149.38745  22544905.7424                   22544904.0704
 11  9 28  1 40  0.0000000  0  9G15G29G02G30G21G05G25G26G18
 -24741410.41448 -19261295.20946  20923289.9144                   20923287.6914
 -42603951.55148 -33181090.24347  20302926.8594                   20302924.8834
 -73953926.04346 -57607810.73643  24173039.7114                   24173036.7774
 -18383989.37947 -14307595.39143  24121836.7584                   24121837.9804
 -11756837.37947  -9146686.67845  23014294.1414                   23014291.8634
 -51922041.80146 -40439889.74844  23519920.0474                   23519918.6684
 -36940659.85547 -28762682.40843  24306331.4144                   24306334.5904
 -30503402.84048 -23751219.68346  21332817.9694                   21332815.9144
  -7682928.83247  -5973791.29545  22515932.1024                   22515930.2114
 11  9 28  1 40 30.0000000  0  9G15G29G02G30G21G05G25G26G18
 -24878720.70348 -19368290.19746  20897160.4384                   20897158.3404
 -42700529.22748 -33256345.56047  20284548.4614                   20284546.6914
 -73984379.17646 -57631540.38743  24167244.7664                   24167241.8914
 -18414114.89547 -14331069.91843  24116103.3204                   24116104.8444
 -11917957.96147  -9272235.11245  22983633.8284                   22983631.0394
 -51933904.18447 -40449133.16044  23517663.1724                   23517661.3554
 -36957260.49647 -28775617.99643  24303172.5784                   24303176.2344
 -30584063.70348 -23814072.29545  21317468.7194                   21317466.3594
  -7834882.54747  -6092196.69745  22487015.6024                   22487013.9414
 11  9 28  1 41  0.0000000  0  9G15G29G02G30G21G05G25G26G18
 -25015434.40648 -19474820.30946  20871145.0474                   20871142.7584
 -42796503.98848 -33331131.08647  20266285.0864                   20266283.0744
 -74014627.57446 -57655110.60143  24161488.1254                   24161486.4104
 -18444042.07446 -14354389.83343  24110408.0164                   24110410.0514
 -12079051.26647  -9397762.25945  22952978.7424                   22952976.5394
 -51945712.12147 -40458334.14644  23515416.2274                   23515413.9384
 -36973856.72347 -28788550.11544  24300014.1644                   24300018.7504
 -30663985.44948 -23876348.95645  21302259.7194                   21302257.8834
  -7986527.62947  -6210361.58145  22458158.9534                   22458157.3714
 11  9 28  1 41 30.0000000  0  9G15G29G02G30G21G05G25G26G18
 -25151549.34848 -19580883.85146  20845243.0234                   20845240.8674
 -42891874.87148 -33405446.03747  20248136.6724                   20248134.7934
 -74044670.21146 -57678520.50743  24155771.5554                   24155768.8714
 -18473773.52046 -14377557.30943  24104750.6724                   24104752.2464
 -12240116.04347  -9523267.18145  22922329.5634                   22922326.6214
 -51957466.59047 -40467493.47344  23513179.4144                   23513177.2624
 -36990450.81646 -28801480.58844  24296855.9774                   24296860.1844
 -30743168.41048 -23938049.94545  21287192.0554                   21287190.1054
  -8137863.43447  -6328285.49245  22429360.7034                   22429358.6414
 11  9 28  1 42  0.0000000  0  9G15G29G02G30G21G05G25G26G18
 -25287060.52348 -19686476.93246  20819455.8914                   20819454.0004
 -42986637.69548 -33479287.18847  20230103.8984                   20230102.4654
 -74074503.85946 -57701767.48143  24150094.6484                   24150091.8244
 -18503308.73046 -14400571.76444  24099130.1334                   24099132.8914
 -12401148.37947  -9648746.82945  22891685.2424                   22891683.1724
 -51969165.34447 -40476609.37244  23510953.2114                   23510951.1724
 -37007041.93446 -28814408.82044  24293699.1024                   24293702.8634
 -30821609.10548 -23999172.54545  21272265.1954                   21272263.2384
  -8288886.53547  -6445965.71745  22400621.7424                   22400619.8484
 11  9 28  1 42 30.0000000  0  9G15G29G02G30G21G05G25G26G18
 -25421963.07048 -19791595.77046  20793785.2974                   20793782.6454
 -43080788.71548 -33552651.60447  20212187.6094                   20212185.4694
 -74104124.50446 -57724848.59543  24144457.5944                   24144455.1484
 -18532647.46946 -14423433.19844  24093546.8834                   24093549.1644
 -12562144.12547  -9774197.97945  22861048.7734                   22861046.7854
 -51980806.11747 -40485680.10544  23508737.6644                   23508736.0084
 -37023629.28546 -28827334.05444  24290542.3674                   24290547.5204
 -30899304.78548 -24059714.61046  21257479.8364                   21257478.2194
  -8439593.71947  -6563399.78545  22371943.3914                   22371941.5234
 11  9 28  1 43  0.0000000  0  9G15G29G02G30G21G05G25G26G18
 -25556250.88348 -19896235.56746  20768230.7734                   20768228.6954
 -43174322.88748 -33625535.36647  20194388.7274                   20194386.7114
 -74133527.78546 -57747760.28443  24138863.0164                   24138859.7934
 -18561788.39846 -14446140.48343  24088002.0864                   24088003.5234
 -12723098.26247  -9899616.70245  22830420.4144                   22830418.4384
 -51992386.35247 -40494703.66644  23506534.6414                   23506532.8364
 -37040211.45346 -28840255.31543  24287386.1804                   24287391.9104
 -30976251.67248 -24119673.20246  21242837.4924                   21242835.7664
  -8589980.69947  -6680584.34545  22343325.3674                   22343323.1884
 11  9 28  1 43 30.0000000  0  9G15G29G02G30G21G05G25G26G18
 -25689926.68048 -20000398.48946  20742793.1644                   20742790.8834
 -43267243.96948 -33697941.38547  20176706.2584                   20176704.5704
 -74162717.71946 -57770505.70443  24133307.8984                   24133305.6804
 -18590738.73046 -14468699.22843  24082492.9384                   24082495.5634
 -12884013.90247 -10025005.44545  22799799.3444                   22799796.3204
 -52003911.16447 -40503684.00644  23504340.9224                   23504339.2624
 -37056795.16446 -28853177.75344  24284232.1024                   24284235.5164
 -31052454.47747 -24179051.98945  21228336.8754                   21228334.5634
  -8740051.93047  -6797522.86045  22314767.2344                   22314765.9494
 11  9 28  1 44  0.0000000  0  9G15G29G02G30G21G05G25G26G18
 -25822983.84048 -20104079.34646  20717473.3674                   20717470.7234
 -43359546.49648 -33769865.41747  20159141.7814                   20159140.2034
 -74191688.93746 -57793080.73843  24127794.8054                   24127792.2304
 -18619496.50446 -14491107.88943  24077020.5784                   24077022.5314
 -13044885.54747 -10150359.89445  22769186.2584                   22769183.6294
 -52015377.11347 -40512618.51944  23502158.7584                   23502157.7624
 -37073378.12946 -28866099.59343  24281076.0554                   24281080.1484
 -31127908.56248 -24237847.36446  21213978.3674                   21213976.2274
  -8889802.34047  -6914211.38745  22286271.0864                   22286269.4574
 11  9 28  1 44 30.0000000  0  9G15G29G02G30G21G05G25G26G18
 -25955422.19147 -20207278.01646  20692270.7974                   20692268.8914
 -43451231.04748 -33841307.91347  20141694.6334                   20141692.8914
 -74220442.56646 -57815486.12743  24122323.6334                   24122320.2934
 -18648066.04747 -14513369.91544  24071584.1724                   24071586.5084
 -13205713.97747 -10275680.68845  22738581.7734                   22738579.1564
 -52026786.71146 -40521509.09344  23499987.8914                   23499986.2274
 -37089964.25846 -28879023.88344  24277920.3204                   24277924.0634
 -31202615.83248 -24296060.79745  21199761.6804                   21199759.7814
  -9039233.25447  -7030650.95145  22257834.9304                   22257833.8404
 11  9 28  1 45  0.0000000  0  9G15G29G02G30G21G05G25G26G18
 -26087238.68448 -20309992.11746  20667187.3594                   20667185.0434
 -43542295.89148 -33912267.51447  20124365.7424                   20124363.8634
 -74248977.10246 -57837720.84343  24116894.5004                   24116891.2664
 -18676448.88746 -14535486.45543  24066183.0784                   24066184.7464
 -13366496.85247 -10400965.96045  22707985.5314                   22707982.3364
 -52038139.72347 -40530355.60444  23497827.5554                   23497825.8364
 -37106554.84047 -28891951.63244  24274762.8134                   24274766.7814
 -31276575.49647 -24353691.67545  21185687.9304                   21185685.8594
  -9188343.52747  -7146840.66145  22229460.1254                   22229457.7624
 11  9 28  1 45 30.0000000  0  9G15G29G02G30G21G05G25G26G18
 -26218432.21547 -20412220.81146  20642221.8444                   20642219.5984
 -43632741.13748 -33982744.30647  20107154.6254                   20107152.5274
 -74277292.48046 -57859784.81343  24111505.1094                   24111502.9614
 -18704648.53146 -14557460.21544  24060816.9694                   24060819.1054
 -13527233.50447 -10526215.25445  22677398.2034                   22677395.8554
 -52049437.75446 -40539159.27144  23495677.4224                   23495675.5904
 -37123152.96147 -28904885.22744  24271604.6484                   24271608.0904
 -31349788.53547 -24410740.78245  21171755.4384                   21171753.9534
  -9337133.80147  -7262781.04945  22201146.0944                   22201144.3954
 11  9 28  1 46  0.0000000  0  9G15G29G02G30G21G05G25G26G18
 -26348998.34047 -20513960.59746  20617375.7194                   20617373.4654
 -43722563.23448 -34052735.53447  20090061.8594                   20090059.9924
 -74305385.30546 -57881675.31143  24106159.6644                   24106155.8204
 -18732664.89846 -14579291.20143  24055486.0474                   24055487.2814
 -13687920.05547 -10651425.45845  22646820.7814                   22646818.2624
 -52060678.98046 -40547918.65944  23493538.4064                   23493537.2154
 -37139758.24647 -28917824.40744  24268444.9844                   24268447.9264
 -31422252.74647 -24467206.38245  21157966.3364                   21157964.5664
  -9485600.93747  -7378469.61245  22172893.8524                   22172892.1884
 11  9 28  1 46 30.0000000  0  9G15G29G02G30G21G05G25G26G18
 -24903514.27348 -19387609.34846  20892442.3204                   20892440.0354
 -42236341.52748 -32894640.68647  20372880.4774                   20372878.5514
 -72757837.66445 -56675794.04742  24400648.0234                   24400644.0514
 -17185082.86746 -13373383.22743  24349980.8054                   24349982.3054
 -12273133.92647  -9548994.64445  22916045.6484                   22916042.9454
 -50496447.14546 -39329036.72844  23791202.3364                   23791200.3134
 -35580955.41447 -27703172.88244  24565074.6644                   24565079.4964
 -29918549.12147 -23295489.25545  21444111.5164                   21444109.8164
  -8058322.94947  -6266304.84045  22444495.9844                   22444493.9144
 11  9 28  1 47  0.0000000  0  9G15G29G02G30G21G05G25G26G18
 -25032827.29347 -19488372.69846  20867835.0474                   20867832.2624
 -42324922.00848 -32963664.42847  20356023.9454                   20356022.1094
 -72785491.03946 -56697342.09443  24395386.2584                   24395381.8284
 -17212747.57846 -13394940.13243  24344715.7504                   24344718.4574
 -12433724.65247  -9674130.19145  22885485.6884                   22885483.3164
 -50507584.62946 -39337715.29544  23789082.5474                   23789080.9104
 -35597588.34447 -27716133.56144  24561909.8524                   24561913.4104
 -29989523.41047 -23350793.87945  21430605.7274                   21430603.6374
  -8206150.12947  -6381494.75845  22416365.0394                   22416362.9224
 11  9 28  1 47 30.0000000  0  9G15G29G02G30G21G05G25G26G18
 -25161511.18747 -19588645.83046  20843346.9844                   20843344.8204
 -42412880.73448 -33032203.67947  20339285.9924                   20339284.3524
 -72812924.03546 -56718718.44543  24390165.7974                   24390161.8594
 -17240240.48846 -13416363.24743  24339484.8674                   24339486.1764
 -12594265.65247  -9799227.00045  22854935.8284                   22854933.2464
 -50518671.50446 -39346354.42644  23786973.1564                   23786971.2774
 -35614238.80547 -27729107.91143  24558741.5864                   24558744.2544
 -30059753.46947 -23405518.58245  21417241.0394                   21417239.2234
  -8353657.22347  -6496435.24945  22388295.0234                   22388293.1484
 11  9 28  1 48  0.0000000  0  9G15G29G02G30G21G05G25G26G18
 -25289564.92647 -19688427.91646  20818979.1724                   20818976.7304
 -42500217.57048 -33100258.34047  20322666.4534                   20322664.5634
 -72840136.37546 -56739922.87043  24384986.7424                   24384984.0554
 -17267564.93746 -13437655.06043  24334284.5864                   24334286.8134
 -12754756.31647  -9924284.56945  22824395.5474                   22824393.0004
 -50529709.19146 -39354955.23744  23784872.3054                   23784870.7384
 -35630909.51647 -27742098.13543  24555568.6884                   24555572.9224
 -30129240.25047 -23459664.11345  21404018.3834                   21404016.5164
  -8500844.47347  -6611126.52045  22360286.3674                   22360284.4804
 11  9 28  1 48 30.0000000  0  9G15G29G02G30G21G05G25G26G18
 -25416985.68747 -19787716.78546  20794732.2344                   20794729.5554
 -42586930.80148 -33167827.08047  20306165.4614                   20306163.5354
 -72867126.89546 -56760954.42343  24379849.9144                   24379847.2544
 -17294722.49246 -13458816.86343  24329117.0474                   24329118.8324
 -12915195.22347 -10049301.82045  22793865.1804                   22793861.9654
 -50540697.50047 -39363517.55844  23782781.7034                   23782779.7854
 -35647601.62947 -27755104.95243  24552392.5634                   24552396.4534
 -30197983.15647 -23513229.99245  21390936.5164                   21390934.9844
  -8647711.00047  -6725567.87845  22332338.8284                   22332336.4184
 11  9 28  1 49  0.0000000  0  8G15G29G30G21G05G25G26G18
 -25543774.70747 -19886513.38946  20770604.7894                   20770602.3554
 -42673022.76248 -33234911.70347  20289782.7424                   20289780.9844
 -17321718.73446 -13479852.88143  24323980.0394                   24323981.3094
 -13075583.06647 -10174279.27845  22763343.6024                   22763341.3984
 -50551640.44147 -39372044.50544  23780699.5314                   23780697.1954
 -35664320.24246 -27768132.52943  24549210.3054                   24549214.6054
 -30265985.91047 -23566219.13445  21377996.1254                   21377994.8014
  -8794259.04347  -6839761.04645  22304451.3364                   22304449.7304
 11  9 28  1 49 30.0000000  0  8G15G29G30G21G05G25G26G18
 -25669925.44947 -19984812.63546  20746599.0164                   20746596.7234
 -42758488.19148 -33301508.13347  20273519.1414                   20273517.5004
 -17348551.56746 -13500761.63843  24318873.3594                   24318875.2464
 -13235914.46547 -10299212.74645  22732833.9384                   22732831.1524
 -50562533.46947 -39380532.59644  23778626.2664                   23778624.7194
 -35681062.87546 -27781178.76243  24546024.2424                   24546028.1334
 -30333243.91447 -23618627.95845  21365197.5634                   21365195.7664
  -8940483.92647  -6953702.43645  22276625.6024                   22276623.8794
 11  9 28  1 50  0.0000000  0  8G15G29G30G21G05G25G26G18
 -25795431.65248 -20082609.62846  20722715.6564                   20722713.5634
 -42843321.79748 -33367612.22547  20257375.9924                   20257374.1054
 -17375218.68746 -13521541.30543  24313799.0704                   24313800.3714
 -13396183.55547 -10424097.66045  22702335.3524                   22702332.8284
 -50573373.12147 -39388979.07344  23776563.3834                   23776561.7114
 -35697826.87946 -27794241.66143  24542833.9454                   24542839.5234
 -30399752.97347 -23670453.19845  21352541.0084                   21352539.4614
  -9086380.46547  -7067387.91745  22248862.1804                   22248860.0634
 11  9 28  1 50 30.0000000  0  8G15G29G30G21G05G25G26G18
 -25920283.94948 -20179897.10246  20698957.1334                   20698954.6134
 -42927514.96148 -33433217.27147  20241354.4694                   20241352.5474
 -17401714.96546 -13542187.77243  24308757.3204                   24308759.9844
 -13556380.10947 -10548926.03345  22671850.9924                   22671848.4184
 -50584152.18747 -39397378.34344  23774512.6254                   23774510.8364
 -35714606.69146 -27807316.94843  24539641.1094                   24539646.7624
 -30465505.86347 -23721689.20545  21340028.9144                   21340027.2424
  -9231940.85547  -7180811.50045  22221163.3524                   22221161.0744
 11  9 28  1 51  0.0000000  0  8G15G29G30G21G05G25G26G18
 -26044488.19148 -20276679.58546  20675321.9694                   20675319.9224
 -43011074.77348 -33498328.79147  20225453.4924                   20225451.4534
 -17428050.41846 -13562708.91243  24303746.2424                   24303747.6954
 -13716511.34447 -10673703.53545  22641379.1334                   22641375.9104
 -50594878.92247 -39405736.81244  23772471.1564                   23772468.8834
 -35731411.96546 -27820412.02443  24536444.0234                   24536448.1884
 -30530510.79347 -23772342.38745  21327659.0554                   21327657.3244
  -9377172.38747  -7293978.83745  22193526.5084                   22193524.9884
 11  9 28  1 51 30.0000000  0  8G15G29G30G21G05G25G26G18
 -26168040.46147 -20372954.04946  20651810.8054                   20651808.2854
 -43093998.12548 -33562944.37347  20209673.6804                   20209671.8714
 -17454225.31246 -13583105.02143  24298764.7584                   24298765.9454
 -13876573.38347 -10798427.11145  22610920.4144                   22610917.5234
 -50605551.75847 -39414053.33644  23770440.2974                   23770438.0394
 -35748242.53147 -27833526.77043  24533241.2814                   24533245.8794
 -30594766.26247 -23822411.56645  21315431.3914                   21315429.6804
  -9522073.00047  -7406888.28645  22165952.5164                   22165950.5514
 11  9 28  1 52  0.0000000  0  8G15G29G30G21G05G25G26G18
 -26290945.03548 -20468723.79746  20628422.2664                   20628420.2304
 -43176290.59448 -33627068.35747  20194013.7194                   20194011.8674
 -17480248.28146 -13603382.64144  24293813.4224                   24293814.5634
 -14036571.44147 -10923100.84445  22580473.2504                   22580470.3204
 -50616176.96547 -39422332.69044  23768418.2894                   23768416.6844
 -35765106.43047 -27846667.53643  24530032.2664                   24530036.1294
 -30658278.47747 -23871901.59845  21303345.4924                   21303343.5784
  -9666648.35547  -7519544.32445  22138440.7504                   22138438.0434
 11  9 28  1 52 30.0000000  0  8G15G29G30G21G05G25G26G18
 -26413203.00448 -20563989.70146  20605157.4064                   20605155.0204
 -43257954.32048 -33690702.40447  20178473.9844                   20178471.5704
 -17506124.30146 -13623545.79743  24288888.8594                   24288890.8284
 -14196506.43047 -11047725.43045  22550038.9144                   22550036.0124
 -50626758.21946 -39430577.79544  23766404.2814                   23766402.7074
 -35782008.12947 -27859837.69843  24526815.7504                   24526820.1524
 -30721050.79347 -23920815.07645  21291400.4384                   21291398.8594
  -9810900.04747  -7631948.14345  22110990.4304                   22110988.4414
 11  9 28  1 53  0.0000000  0  8G15G29G30G21G05G25G26G18
 -26534814.56248 -20658751.92146  20582015.5554                   20582013.4774
 -43338990.25048 -33753847.26947  20163053.3364                   20163051.2344
 -17531857.48046 -13643597.65243  24283992.0634                   24283994.0234
 -14356378.44547 -11172300.93545  22519615.8524                   22519613.1254
 -50637297.78147 -39438790.47644  23764398.2734                   23764397.0044
 -35798951.35547 -27873040.22943  24523592.8054                   24523595.6844
 -30783085.34047 -23969153.67545  21279595.7034                   21279593.8404
  -9954829.84047  -7744101.12945  22083601.7504                   22083599.4264
 11  9 28  1 53 30.0000000  0  8G15G29G30G21G05G25G26G18
 -26655777.98048 -20753009.09146  20558997.0474                   20558994.8984
 -43419397.77348 -33816502.47047  20147752.2424                   20147750.1054
 -17557450.52347 -13663540.31343  24279121.9454                   24279123.5554
 -14516186.28547 -11296826.45145  22489205.8444                   22489203.2424
 -50647796.18046 -39446971.02544  23762401.2114                   23762399.5704
 -35815938.30547 -27886276.79443  24520359.4384                   24520362.6484
 -30844383.07448 -24016918.12345  21267931.1334                   21267929.0474
 -10098437.80947  -7856003.34645  22056273.2664                   22056271.3204
 11  9 28  1 54  0.0000000  0  8G15G29G30G21G05G25G26G18
 -26776092.53948 -20846760.65346  20536102.1174                   20536099.6684
 -43499177.35548 -33878668.35447  20132570.7114                   20132568.6214
 -17582906.63346 -13683376.29943  24274277.4304                   24274279.3364
 -14675929.18047 -11421301.37945  22458807.5394                   22458804.8594
 -50658254.62946 -39455120.50244  23760410.8364                   23760409.3324
 -35832971.73846 -27899549.64743  24517118.0314                   24517122.8914
 -30904945.21547 -24064109.37845  21256406.3674                   21256404.4694
 -10241724.45347  -7967655.17545  22029007.6954                   22029004.9774
 11  9 28  1 54 30.0000000  0  8G15G29G30G21G05G25G26G18
 -25320335.90248 -19712404.79746  20813123.1094                   20813121.0234
 -42002909.12948 -32712745.04847  20417300.8594                   20417298.9304
 -16032810.48046 -12475509.20543  24569250.9844                   24569252.2194
 -13260183.62947 -10318122.95145  22728214.8754                   22728212.2034
 -49093256.94546 -38235641.80444  24058219.3754                   24058218.4884
 -34274636.25446 -26685262.29343  24813659.0164                   24813663.5634
 -29389353.95747 -22883129.17345  21544813.9064                   21544811.9304
  -8809267.88347  -6851455.16545  22301594.7504                   22301592.4064
 11  9 28  1 55  0.0000000  0  8G15G29G30G21G05G25G26G18
 -25439353.72348 -19805145.90746  20790474.5314                   20790472.4844
 -42081437.00048 -32773935.57247  20402357.6254                   20402355.7544
 -16058005.41846 -12495141.66143  24564456.6024                   24564458.4104
 -13419798.07847 -10442497.76645  22697841.0314                   22697838.4264
 -49103643.19146 -38243735.00844  24056243.5944                   24056242.3364
 -34291773.97746 -26698616.37643  24810398.2504                   24810402.4104
 -29448452.98848 -22929180.33145  21533567.6414                   21533565.9494
  -8951916.30547  -6962609.67645  22274449.3054                   22274446.4654
 11  9 28  1 55 30.0000000  0  8G15G29G30G21G05G25G26G18
 -25557725.35248 -19897383.50346  20767949.5004                   20767947.2734
 -42159342.53148 -32834641.17847  20387532.8134                   20387530.7154
 -16083077.72746 -12514678.54343  24559686.4454                   24559687.3594
 -13579350.20348 -10566824.04645  22667479.7424                   22667476.4304
 -49113998.38746 -38251804.01444  24054273.2814                   24054271.7234
 -34308971.09846 -26712016.71543  24807124.9454                   24807130.1024
 -29506825.99648 -22974665.75545  21522459.8984                   21522457.7974
  -9094249.68447  -7073518.70845  22247364.1804                   22247361.7774
 11  9 28  1 56  0.0000000  0  7G15G29G30G21G05G26G18
 -25675447.46148 -19989114.97246  20745547.5314                   20745545.0904
 -42236623.42248 -32894860.03447  20372826.5234                   20372824.6414
 -16108028.03546 -12534120.35943  24554937.5164                   24554939.8954
 -13738836.92248 -10691099.36045  22637130.5164                   22637127.4144
 -49124321.22346 -38259847.76944  24052308.6254                   24052307.3284
 -29564471.76647 -23019584.52345  21511489.3134                   21511487.8674
  -9236265.88748  -7184180.60445  22220339.2814                   22220337.1844
 11  9 28  1 56 30.0000000  0  7G15G29G30G21G05G26G18
 -25792521.30548 -20080341.30746  20723269.2504                   20723266.7814
 -42313281.80548 -32954593.82647  20358239.0004                   20358236.9884
 -16132861.40246 -12553471.08643  24550212.1174                   24550213.3164
 -13898259.03547 -10815324.31745  22606792.9774                   22606789.9734
 -49134614.69946 -38267868.69544  24050350.0704                   24050349.0004
 -29621393.81248 -23063939.34245  21500658.0864                   21500656.2704
  -9377967.32048  -7294597.21445  22193374.7504                   22193371.4104
 11  9 28  1 57  0.0000000  0  7G15G29G30G21G05G26G18
 -25908939.36748 -20171056.64046  20701115.4844                   20701112.8094
 -42389311.48848 -33013837.71047  20343770.8204                   20343768.7934
 -16157574.40246 -12572728.02742  24545509.5634                   24545511.3134
 -14057609.18747 -10939493.20545  22576470.1724                   22576466.9574
 -49144873.60246 -38275862.64644  24048398.1334                   24048396.4574
 -29677587.08247 -23107726.28645  21489964.7584                   21489962.9414
  -9519348.38748  -7404764.20745  22166470.0474                   22166468.2234
 11  9 28  1 57 30.0000000  0  7G15G29G30G21G05G26G18
 -26024695.65648 -20261256.30046  20679088.0004                   20679085.6374
 -42464707.39148 -33072587.75747  20329423.5864                   20329421.1764
 -16182164.84445 -12591889.42242  24540829.4844                   24540831.2734
 -14216881.59847 -11063601.51645  22546160.9144                   22546158.5234
 -49155093.70347 -38283826.35944  24046453.6024                   24046451.2664
 -29733047.67647 -23150942.30245  21479411.1174                   21479408.5904
  -9660403.48848  -7514677.19045  22139628.5004                   22139626.5554
 11  9 28  1 58  0.0000000  0  7G15G29G30G21G05G26G18
 -26139795.18448 -20350944.19546  20657184.9454                   20657182.4964
 -42539475.76248 -33130848.80047  20315195.8524                   20315193.5824
 -16206641.41445 -12610962.10542  24536172.0554                   24536174.6294
 -14376081.09447 -11187653.02145  22515866.1564                   22515863.5554
 -49165281.86347 -38291765.19144  24044514.3524                   24044512.5944
 -29787782.98448 -23193593.18145  21468995.1484                   21468993.1134
  -9801139.35248  -7624341.41845  22112847.3134                   22112844.7384
 11  9 28  1 58 30.0000000  0  7G15G29G30G21G05G26G18
 -26254239.08248 -20440121.22746  20635407.1254                   20635404.7624
 -42613618.28948 -33188622.18647  20301086.7274                   20301084.6094
 -16231008.83646 -12629949.76943  24531536.1094                   24531537.6094
 -14535208.60947 -11311648.42345  22485585.8054                   22485582.8554
 -49175441.02047 -38299681.42244  24042580.8834                   24042579.9734
 -29841796.27047 -23235681.42345  21458716.9614                   21458714.6644
  -9941557.85548  -7733758.35345  22086126.3834                   22086123.7544
 11  9 28  1 59  0.0000000  0  7G15G29G30G21G05G26G18
 -26368028.45748 -20528788.23146  20613753.7584                   20613751.1214
 -42687137.69548 -33245910.01247  20287096.3444                   20287094.4494
 -16255272.21046 -12648856.28943  24526917.9384                   24526920.9454
 -14694264.91447 -11435588.32945  22455318.2504                   22455315.0434
 -49185574.27347 -38307577.49444  24040653.0474                   24040650.9694
 -29895090.99247 -23277209.76945  21448574.9064                   21448573.2584
 -10081661.46547  -7842929.90945  22059465.4064                   22059463.1844
 11  9 28  1 59 30.0000000  0  7G15G29G30G21G05G26G18
 -26481165.89848 -20616947.24546  20592224.0704                   20592221.8324
 -42760037.13748 -33302714.75547  20273224.1644                   20273222.1914
 -16279437.35246 -12667686.34643  24522319.9614                   24522322.2114
 -14853252.34447 -11559474.57445  22425063.0784                   22425061.1134
 -49195685.37546 -38315456.24444  24038728.8984                   24038726.9454
 -29947671.84447 -23318181.84745  21438569.3524                   21438567.2584
 -10221453.54747  -7951858.72545  22032863.9304                   22032861.0944
 11  9 28  2  0  0.0000000  0  7G15G29G30G21G05G26G18
 -26593649.24648 -20704596.56046  20570819.3594                   20570816.8914
 -42832315.05948 -33359035.20247  20259470.0864                   20259468.0704
 -16303505.86746 -12686441.05044  24517740.0164                   24517742.4414
 -15012167.92247 -11683304.82545  22394823.4224                   22394820.5864
 -49205774.02346 -38323317.49543  24036809.1024                   24036807.2274
 -29999538.84447 -23358597.67045  21428699.7424                   21428697.4614
 -10360933.08247  -8060543.99845  22006321.7504                   22006319.5744
 11  9 28  2  0 30.0000000  0  7G15G29G30G21G05G26G18
 -26705480.24648 -20791737.56746  20549538.6174                   20549536.2154
 -42903974.96548 -33414874.06947  20245833.8524                   20245831.8674
 -16327483.31246 -12705124.82343  24513177.0784                   24513179.4144
 -15171013.50847 -11807080.53745  22364596.0784                   22364593.3484
 -49215843.42246 -38331163.83243  24034892.8754                   24034890.4844
 -30050696.15647 -23398460.48245  21418964.5164                   21418962.5594
 -10500103.29748  -8168988.24545  21979838.6024                   21979835.6954
 11  9 28  2  1  0.0000000  0  7G15G29G30G21G05G26G18
 -26816657.20348 -20878368.92146  20528382.4224                   20528379.7544
 -42975015.82848 -33470230.57047  20232315.0704                   20232312.8524
 -16351371.51647 -12723739.05044  24508631.5704                   24508633.8484
 -15329787.03947 -11930800.10945  22334381.7344                   22334379.0234
 -49225893.89846 -38338995.36143  24032980.7274                   24032978.6334
 -30101144.43047 -23437770.80945  21409364.2194                   21409362.5744
 -10638963.25047  -8277190.72345  21953414.3914                   21953412.0634
 11  9 28  2  1 30.0000000  0  7G15G29G30G21G05G26G18
 -26927184.38348 -20964493.95446  20507349.9224                   20507347.3794
 -43045443.02348 -33525108.88947  20218913.4774                   20218911.1724
 -16375178.33247 -12742289.85744  24504101.5474                   24504104.1724
 -15488492.39547 -12054466.55745  22304181.5944                   22304178.6334
 -49235931.22346 -38346816.63343  24031070.6094                   24031068.3014
 -30150890.38347 -23476533.88045  21399897.7584                   21399895.9924
 -10777518.31247  -8385155.63045  21927047.6884                   21927045.1644
 11  9 28  2  2  0.0000000  0  7G15G29G30G21G05G26G18
 -27037061.66447 -21050112.58246  20486440.9064                   20486438.1254
 -43115257.40648 -33579509.68947  20205627.9924                   20205626.0514
 -16398907.16447 -12760779.89043  24499585.7424                   24499587.6844
 -15647128.88347 -12178079.32945  22273994.1174                   22273990.4024
 -49245956.71546 -38354628.75443  24029162.2974                   24029160.0394
 -30199935.98047 -23514751.21145  21390564.7974                   21390562.8714
 -10915769.33247  -8492883.62045  21900739.4224                   21900736.9414
 11  9 28  2  2 30.0000000  0  7G15G29G30G21G05G26G18
 -25570864.12148 -19907620.94746  20765448.5784                   20765446.1954
 -41609036.43048 -32405830.98447  20492252.3594                   20492250.0274
 -14847139.29347 -11551610.15144  24794877.5234                   24794880.1294
 -14230269.43047 -11074032.93145  22543613.0704                   22543609.8984
 -47680550.48046 -37134831.73843  24327049.0474                   24327047.5354
 -28672860.94147 -22324822.59645  21681157.9384                   21681155.8404
  -9478291.49247  -7372770.94445  22174282.9144                   22174280.1414
 11  9 28  2  3  0.0000000  0  7G15G29G30G21G05G26G18
 -25679441.78948 -19992226.88546  20744787.1884                   20744784.4304
 -41677628.32448 -32459279.19947  20479199.3984                   20479197.5904
 -14870722.45347 -11569986.64343  24790388.9614                   24790392.3554
 -14388767.02047 -11197537.48745  22513451.9304                   22513448.6804
 -47690556.94946 -37142628.99144  24325145.0234                   24325143.5704
 -28720512.98847 -22361954.03445  21672089.5554                   21672087.3674
  -9615937.67647  -7480027.62645  22148089.1334                   22148086.7344
 11  9 28  2  3 30.0000000  0  7G15G29G30G21G05G26G18
 -25787369.73448 -20076326.54546  20724248.8284                   20724246.6454
 -41745610.43448 -32512252.25347  20466263.0394                   20466261.0554
 -14894238.03946 -11588310.46543  24785915.5164                   24785916.6174
 -14547194.19147 -11320987.15245  22483304.1954                   22483300.8364
 -47700556.29746 -37150420.68344  24323241.9384                   24323240.6564
 -28767471.67647 -22398545.21945  21663153.7274                   21663151.9654
  -9753282.84447  -7587049.77245  22121953.1414                   22121950.7734
 11  9 28  2  4  0.0000000  0  7G15G29G30G21G05G26G18
 -25894650.08248 -20159921.59246  20703834.3674                   20703831.3554
 -41812986.03548 -32564752.70747  20453441.8594                   20453439.9024
 -14917691.57846 -11606585.96243  24781451.4694                   24781453.2384
 -14705552.34047 -11444383.05545  22453169.9924                   22453166.7624
 -47710551.96946 -37158209.58744  24321340.8054                   24321338.6414
 -28813741.41447 -22434599.53445  21654348.4774                   21654346.7274
  -9890330.03147  -7693839.69245  22095873.9924                   22095871.5784
 11  9 28  2  4 30.0000000  0  7G15G29G30G21G05G26G18
 -26001281.98448 -20243011.34246  20683542.9844                   20683540.3914
 -41879755.30948 -32616780.69547  20440736.3364                   20440734.0434
 -14941085.53146 -11624815.02043  24777000.6094                   24777001.9694
 -14863840.38747 -11567724.33845  22423048.1414                   22423045.1914
 -47720544.46546 -37165995.94944  24319439.3594                   24319437.2464
 -28859323.59847 -22470118.10945  21645674.7734                   21645672.8204
 -10027079.34047  -7800397.52945  22069851.5004                   22069848.7934
 11  9 28  2  5  0.0000000  0  7G15G29G30G21G05G26G18
 -26107267.37148 -20325597.32146  20663374.5864                   20663372.0594
 -41945921.19948 -32668338.50547  20428145.0004                   20428143.0864
 -14964425.43446 -11643001.91543  24772558.0234                   24772559.9344
 -15022059.91047 -11691012.22645  22392940.4534                   22392937.0744
 -47730537.16846 -37173782.50544  24317537.6414                   24317535.6884
 -28904222.91847 -22505104.57945  21637130.6174                   21637128.9924
 -10163533.68747  -7906725.51645  22043885.5164                   22043882.3984
 11  9 28  2  5 30.0000000  0  7G15G29G30G21G05G26G18
 -26212605.89148 -20407679.25746  20643329.3134                   20643326.5514
 -42011483.59848 -32719426.08047  20415668.7584                   20415666.8244
 -14987713.74246 -11661148.68443  24768126.8754                   24768128.5594
 -15180209.09447 -11814245.30645  22362845.6954                   22362842.2814
 -47740530.75847 -37181569.73044  24315636.3594                   24315634.4774
 -28948440.51247 -22539559.83245  21628716.5234                   21628714.4614
 -10299693.37147  -8012823.87545  22017974.8284                   22017971.9494
 11  9 28  2  6  0.0000000  0  7G15G29G30G21G05G26G18
 -26317298.60248 -20489257.95946  20623406.5944                   20623404.3754
 -42076445.41848 -32770045.66747  20403307.1414                   20403304.9924
 -15010954.85946 -11679258.63943  24763704.6884                   24763705.7074
 -15338288.77047 -11937424.21745  22332763.6024                   22332760.6804
 -47750527.64547 -37189359.55244  24313733.4694                   24313731.3914
 -28991980.28547 -22573486.91345  21620431.1094                   21620429.1254
 -10435560.60947  -8118694.37945  21992119.8284                   21992117.1334
 11  9 28  2  6 30.0000000  0  7G15G29G30G21G05G26G18
 -26421346.41848 -20570334.14246  20603607.0234                   20603604.6094
 -42140808.26648 -32820198.51947  20391059.4304                   20391057.3364
 -15034153.09046 -11697335.14542  24759288.4454                   24759291.9964
 -15496298.88347 -12060548.92445  22302695.4454                   22302692.1254
 -47760529.86347 -37197153.50144  24311829.9924                   24311828.3524
 -29034845.30547 -22606888.21745  21612274.4224                   21612272.3134
 -10571137.04347  -8224338.26845  21966320.5944                   21966317.6764
 11  9 28  2  7  0.0000000  0  7G15G29G30G21G05G26G18
 -26524750.43048 -20650908.67446  20583929.9384                   20583927.3244
 -42204573.89848 -32869886.01747  20378925.0004                   20378922.8594
 -15057312.602 6                  24754883.445
 -15654239.68447 -12183619.62445  22272639.9144                   22272637.1024
 -47770539.93446 -37204953.59144  24309925.1094                   24309923.5514
 -29077038.90247 -22639766.33145  21604245.0704                   21604243.5124
 -10706423.95747  -8329756.56345  21940576.1954                   21940573.7154
 11  9 28  2  7 30.0000000  0  7G15G29G30G21G05G26G18
 -26627507.48848 -20730979.07346  20564375.8984                   20564373.6644
 -42267740.16448 -32919106.47247  20366904.9384                   20366902.9304
 -15080433.34446 -11733397.68052  24750482.2734                   24750484.2194
 -15812107.05948 -12306633.11545  22242598.8134                   22242595.7194
 -47780555.45746 -37212757.94144  24308019.3524                   24308017.9774
 -29118559.92647 -22672120.36545  21596343.8914                   21596341.4614
 -10841419.84848  -8434948.08845  21914887.3674                   21914884.5354
 11  9 28  2  8  0.0000000  0  6G15G29G21G05G26G18
 -26729619.82048 -20810547.09846  20544944.7734                   20544942.3484
 -42330310.71548 -32967862.73547  20354997.9534                   20354996.1414
 -15969902.16848 -12429590.28745  22212571.5164                   22212568.2934
 -47790579.61346 -37220568.94343  24306112.4614                   24306110.3984
 -29159412.89847 -22703953.83645  21588569.7974                   21588567.6644
 -10976126.89148  -8539914.54745  21889253.2194                   21889250.4304
 11  9 28  2  8 30.0000000  0  6G15G29G21G05G26G18
 -26831090.48848 -20889615.11946  20525635.5004                   20525633.1254
 -42392289.16448 -33016157.61547  20343204.0084                   20343202.1684
 -16127627.30947 -12552492.94145  22182557.9774                   22182554.1524
 -47800616.94145 -37228390.29443  24304201.7814                   24304200.0864
 -29199603.52047 -22735271.18745  21580921.6724                   21580920.2234
 -11110549.55148  -8644659.40845  21863673.4774                   21863670.5984
 11  9 28  2  9  0.0000000  0  6G15G29G21G05G26G18
 -26931910.99648 -20968176.53547  20506449.7424                   20506447.5044
 -42453668.14848 -33063985.38047  20331524.1024                   20331521.8794
 -16285272.78947 -12675333.52645  22152558.3524                   22152555.0314
 -47810660.09846 -37236216.17843  24302290.4694                   24302288.9804
 -29239125.45347 -22766067.50045  21573400.5864                   21573399.0124
 -11244680.04748  -8749176.61445  21838149.6024                   21838146.4064
 11  9 28  2  9 30.0000000  0  6G15G29G21G05G26G18
 -27032078.48848 -21046229.08846  20487388.5704                   20487386.1684
 -42514445.60548 -33111344.42647  20319958.4614                   20319956.2424
 -16442835.33647 -12798109.49245  22122575.4224                   22122572.2934
 -47820706.52746 -37244044.64243  24300378.8134                   24300377.2934
 -29277978.17247 -22796342.35145  21566007.6724                   21566005.8874
 -11378515.99648  -8853464.29645  21812681.1254                   21812678.0004
 11  9 28  2 10  0.0000000  0  6G15G29G21G05G26G18
 -27131592.87948 -21123772.74146  20468451.4534                   20468449.1054
 -42574622.60948 -33158235.58447  20308507.3754                   20308505.2274
 -16600313.55947 -12920819.75645  22092607.8444                   22092604.7704
 -47830757.88746 -37251876.83543  24298467.0554                   24298464.9734
 -29316163.65247 -22826097.23445  21558741.2424                   21558739.1484
 -11512058.09848  -8957523.00545  21787268.8914                   21787266.3284
 11  9 28  2 10 30.0000000  0  6G15G29G21G05G26G18
 -27230458.04747 -21200810.51246  20449637.8834                   20449635.5944
 -42634203.98448 -33204662.62847  20297169.0634                   20297167.2664
 -16757710.50847 -13043466.66345  22062656.3204                   22062653.2504
 -47840818.52745 -37259716.42243  24296551.3594                   24296550.3164
 -29353688.29747 -22855337.22245  21551600.6804                   21551598.4534
 -11645310.92648  -9061356.32445  21761911.5234                   21761908.4614
 11  9 28  2 11  0.0000000  0  6G15G29G21G05G26G18
 -25753252.62548 -20049741.32146  20730740.8524                   20730738.5784
 -41117770.57448 -32023026.18747  20585736.9774                   20585734.6414
 -15339600.99647 -11938446.21445  22332513.4454                   22332510.0354
 -46275470.59846 -36039964.74643  24594427.9844                   24594425.3634
 -27815134.70747 -21656464.29345  21844377.3984                   21844375.4614
 -10202852.28948  -7937362.51045  22036402.5394                   22036399.5474
 11  9 28  2 11 30.0000000  0  6G15G29G21G05G26G18
 -25850825.48447 -20125772.08246  20712173.5864                   20712171.1374
 -41176169.23848 -32068531.63447  20574623.8284                   20574622.1414
 -15496836.85247 -12060967.60245  22302592.2114                   22302589.5004
 -46285558.40646 -36047825.37043  24592508.1414                   24592506.3594
 -27851350.04747 -21684684.03345  21837485.7894                   21837483.8484
 -10335534.07848  -8040750.85945  22011154.0784                   22011151.2234
 11  9 28  2 12  0.0000000  0  6G15G29G21G05G26G18
 -25947755.23047 -20201301.73846  20693728.5084                   20693725.7464
 -41233980.93448 -32113579.68647  20563622.4924                   20563620.5704
 -15653993.93747 -12183427.62145  22272686.2274                   22272683.2624
 -46295664.05546 -36055699.97543  24590585.3914                   24590582.9654
 -27886917.06647 -21712398.58945  21830717.8834                   21830715.1994
 -10467934.12548  -8143919.68145  21985958.7974                   21985955.9534
 11  9 28  2 12 30.0000000  0  6G15G29G21G05G26G18
 -26044043.01247 -20276331.14747  20675405.3754                   20675402.7624
 -41291208.19548 -32158172.35247  20552732.7974                   20552730.5274
 -15811072.19547 -12305826.21145  22242795.5704                   22242791.8094
 -46305790.20346 -36063590.49743  24588658.3834                   24588656.1724
 -27921839.56647 -21739610.91045  21824072.4384                   21824069.8874
 -10600054.75448  -8246870.76145  21960817.1094                   21960813.9344
 11  9 28  2 13  0.0000000  0  6G15G29G21G05G26G18
 -26139689.37148 -20350860.74946  20657204.2424                   20657201.8134
 -41347852.05548 -32202310.40947  20541953.7894                   20541951.5984
 -15968070.75847 -12428162.69845  22212919.7584                   22212916.3134
 -46315937.25846 -36071497.28443  24586727.2274                   24586725.5784
 -27956120.02747 -21766322.95845  21817548.7424                   21817546.4414
 -10731896.87948  -8349604.83145  21935728.4614                   21935724.8014
 11  9 28  2 13 30.0000000  0  7G15G29G22G21G05G26G18
 -26234696.91048 -20424892.56746  20639124.9694                   20639122.5084
 -41403916.14548 -32245996.70447  20531284.9924                   20531282.8164
  26536856.17657  20692874.22753  24714314.3054                   24714312.8954
 -16124991.02048 -12550438.16945  22183058.9614                   22183055.4454
 -46326108.75846 -36079423.12443  24584791.3134                   24584789.7544
 -27989763.50047 -21792538.64245  21811146.9064                   21811144.6134
 -10863463.63748  -8452124.33045  21910692.0634                   21910688.6524
 11  9 28  2 14  0.0000000  0  7G15G29G22G21G05G26G18
 -26329072.96547 -20498432.32047  20621165.8524                   20621163.2734
 -41459408.46548 -32289237.45747  20520725.4614                   20520722.6134
  26369133.64547  20562181.58943  24682398.1334                   24682395.2304
 -16281838.43448 -12672656.88845  22153211.7504                   22153208.3524
 -46336312.37546 -36087374.03443  24582850.0634                   24582848.2034
 -28022779.34447 -21818265.27145  21804863.9304                   21804861.7034
 -10994762.25048  -8554434.89145  21885706.7274                   21885703.3834
 11  9 28  2 14 30.0000000  0  7G15G29G22G21G05G26G18
 -26422823.05948 -20571484.30947  20603325.8364                   20603323.0664
 -41514335.94548 -32332038.08647  20510273.1884                   20510270.7774
  26201598.41446  20431634.85743  24650517.1094                   24650514.6294
 -16438617.76647 -12794822.55845  22123377.2504                   22123374.0904
 -46346554.87946 -36095355.17343  24580900.9454                   24580899.4304
 -28055175.58647 -21843509.08845  21798698.7664                   21798697.1414
 -11125799.21948  -8656541.57046  21860771.0004                   21860768.1844
 11  9 28  2 15  0.0000000  0  7G15G29G22G21G05G26G18
 -26515946.87547 -20644048.30646  20585605.1644                   20585602.1844
 -41568699.23848 -32374399.07547  20499928.0084                   20499925.6684
  26034251.45746  20301234.85143  24618671.6174                   24618669.2234
 -16595327.37547 -12916933.89245  22093556.6254                   22093553.1454
 -46356836.10946 -36103366.57844  24578944.8364                   24578943.0314
 -28086953.98447 -21868271.48045  21792651.7504                   21792649.7074
 -11256574.96548  -8758444.69646  21835885.1174                   21835882.3244
 11  9 28  2 15 30.0000000  0  7G15G29G22G21G05G26G18
 -26608444.47348 -20716124.31246  20568003.0554                   20568000.4344
 -41622498.60248 -32416320.64547  20489690.1724                   20489687.7704
  25867093.27346  20170982.00443  24586861.7194                   24586860.0744
 -16751965.16848 -13038989.27046  22063749.5474                   22063745.8204
 -46367156.75446 -36111408.64343  24576980.1024                   24576977.9184
 -28118116.71547 -21892554.12345  21786721.6564                   21786719.5124
 -11387089.88348  -8860144.56945  21811049.2974                   21811045.8404
 11  9 28  2 16  0.0000000  0  7G15G29G22G21G05G26G18
 -26700313.05148 -20787710.19746  20550521.3834                   20550518.4344
 -41675732.32048 -32457801.46047  20479560.5164                   20479557.8204
  25700127.23846  20040878.75343  24555089.2504                   24555087.6254
 -16908526.59048 -13160985.12646  22033956.5634                   22033953.1484
 -46377514.17646 -36119479.39444  24575010.2034                   24575007.9844
 -28148662.63747 -21916356.13045  21780908.8834                   21780907.2624
 -11517340.93048  -8961638.83745  21786263.0554                   21786260.2464
 11  9 28  2 16 30.0000000  0  7G15G29G22G21G05G26G18
 -26791556.22348 -20858808.74346  20533158.4224                   20533155.4924
 -41728404.91848 -32498845.02947  20469536.7734                   20469534.6804
  25533349.36346  19910922.31143  24523352.0164                   24523350.7114
 -17065014.52047 -13282923.71045  22004177.8364                   22004174.3874
 -46387912.64546 -36127582.10443  24573030.5474                   24573029.7894
 -28178598.28147 -21939682.60445  21775212.5784                   21775210.1644
 -11647332.63348  -9062931.03445  21761526.4144                   21761523.2274
 11  9 28  2 17  0.0000000  0  7G15G29G22G21G05G26G18
 -26882170.43447 -20929417.19247  20515915.2194                   20515912.1884
 -41780514.05148 -32539449.53447  20459620.8754                   20459618.7344
  25366763.96146  19781115.77543  24491651.5164                   24491649.5274
 -17221423.69948 -13404800.96546  21974414.1884                   21974410.9264
 -46398349.53146 -36135714.77543  24571045.2814                   24571042.6644
 -28207922.42647 -21962532.59145  21769632.1804                   21769630.1524
 -11777061.78948  -9164018.63746  21736839.7664                   21736836.6484
 11  9 28  2 17 30.0000000  0  7G15G29G22G21G05G26G18
 -26972156.16448 -20999535.92146  20498791.1644                   20498788.3094
 -41832060.89548 -32579615.89847  20449811.6564                   20449809.6604
  25200370.92646  19651459.11643  24459988.4694                   24459986.0824
 -17377752.91847 -13526615.87945  21944665.6954                   21944662.6644
 -46408825.15246 -36143877.64643  24569051.7504                   24569049.4264
 -28236637.43447 -21984907.92145  21764167.9924                   21764166.4064
 -11906529.40648  -9264902.44945  21712202.8054                   21712199.9144
 11  9 28  2 18  0.0000000  0  7G15G29G22G21G05G26G18
 -27061514.19148 -21069165.52946  20481786.8284                   20481784.1374
 -41883047.19148 -32619345.47147  20440109.6024                   20440107.3484
  25034169.91846  19521952.12443  24428361.4454                   24428359.3164
 -17534001.40248 -13648367.90846  21914932.5474                   21914929.2544
 -46419341.02046 -36152071.76043  24567050.1414                   24567048.5594
 -28264746.26247 -22006810.91245  21758819.1024                   21758816.7464
 -12035736.32448  -9365583.09645  21687615.8364                   21687612.4264
 11  9 28  2 18 30.0000000  0  7G15G29G22G21G05G26G18
 -27150247.08648 -21138308.00946  20464901.3524                   20464898.7154
 -41933476.58248 -32658641.10347  20430513.1254                   20430510.8984
  24868158.67647  19392592.94043  24396769.9694                   24396768.4574
 -17690170.35248 -13770057.94146  21885214.5234                   21885211.1054
 -46429900.09846 -36160299.71043  24565040.3364                   24565039.4184
 -28292254.06647 -22028245.55545  21753584.8444                   21753582.5044
 -12164685.39148  -9466062.84045  21663077.3204                   21663074.1214
 11  9 28  2 19  0.0000000  0  7G15G29G22G21G05G26G18
 -25662929.56248 -19979359.26646  20747928.5784                   20747925.6994
 -40407925.59448 -31469900.05647  20720815.4694                   20720813.3284
  26277765.79747  20490988.40144  24665009.3134                   24665007.3244
 -16270830.05147 -12664078.45846  22155306.3914                   22155302.6454
 -44865079.32446 -34940958.92443  24862816.4614                   24862814.9264
 -26743739.27347 -20821610.65045  22048257.1804                   22048254.8444
 -10717950.39848  -8338736.80945  21938381.8444                   21938378.6954
 11  9 28  2 19 30.0000000  0  7G15G29G22G21G05G26G18
 -25750412.45348 -20047527.73047  20731281.0784                   20731278.3284
 -40457243.12948 -31508329.30947  20711430.6564                   20711428.7704
  26112136.29347  20361926.69644  24633490.5474                   24633488.6374
 -16426833.96947 -12785639.91046  22125619.7584                   22125616.1214
 -44875725.00446 -34949254.25743  24860790.6804                   24860789.4184
 -26770051.05947 -20842113.35245  22043250.1024                   22043248.1684
 -10846385.24248  -8438815.84845  21913941.5164                   21913938.1954
 11  9 28  2 20  0.0000000  0  7G15G29G22G21G05G26G18
 -25837272.59848 -20115210.93246  20714752.2034                   20714749.4144
 -40506008.51648 -31546328.29847  20702150.8834                   20702148.8874
  25946695.63346  20233012.17444  24602007.8914                   24602006.1994
 -16582754.85247 -12907136.65046  22095948.6644                   22095945.3054
 -44886416.63346 -34957585.43543  24858756.4534                   24858754.0234
 -26795770.21947 -20862154.26145  22038356.3444                   22038354.0314
 -10974565.55548  -8538696.54345  21889549.8524                   21889546.4414
 11  9 28  2 20 30.0000000  0  7G15G29G22G21G05G26G18
 -25923511.40248 -20182409.97646  20698341.5474                   20698338.9344
 -40554224.04748 -31583898.84447  20692975.9454                   20692973.7194
  25781443.46947  20104244.50544  24570561.9224                   24570559.3554
 -16738592.82447 -13028568.80446  22066293.6334                   22066289.9184
 -44897155.93046 -34965953.72443  24856712.2664                   24856710.7034
 -26820900.50447 -20881736.30045  22033574.1644                   22033571.9384
 -11102492.73847  -8638380.01245  21865205.7344                   21865202.0394
 11  9 28  2 21  0.0000000  0  7G15G29G22G21G05G26G18
 -26009129.88748 -20249125.64746  20682048.9304                   20682046.1684
 -40601891.49248 -31621042.31447  20683905.2664                   20683903.2464
  25616379.16446  19975623.19944  24539150.0314                   24539148.5394
 -16894346.90648 -13149935.57746  22036654.5704                   22036651.1294
 -44907944.07046 -34974360.07243  24854659.4304                   24854657.1214
 -26845445.03947 -20900861.90145  22028903.2584                   22028900.8524
 -11230168.33648  -8737867.43546  21840909.9224                   21840906.5664
 11  9 28  2 21 30.0000000  0  7G15G29G22G21G05G26G18
 -26094130.19948 -20315359.64246  20665873.7344                   20665871.1214
 -40649014.12148 -31657761.24446  20674937.8054                   20674935.8244
  25451501.09847  19847147.07544  24507775.1804                   24507773.1484
 -17050017.41848 -13271237.23846  22007031.8134                   22007027.8404
 -44918783.52046 -34982806.44142  24852597.1094                   24852595.0904
 -26869408.02747 -20919534.38445  22024342.9454                   22024340.5784
 -11357593.96148  -8837160.07045  21816661.4614                   21816658.4304
 11  9 28  2 22  0.0000000  0  7G15G29G22G21G05G26G18
 -26178508.89548 -20381109.25746  20649817.0234                   20649814.3634
 -40695589.16848 -31694053.48646  20666074.8834                   20666073.0594
  25286813.48846  19718819.34644  24476436.1414                   24476433.4694
 -17205599.04747 -13392469.65346  21977425.0704                   21977421.4144
 -44929670.55146 -34991289.76943  24850525.6254                   24850523.6454
 -26892788.44147 -20937752.85645  22019893.8054                   22019891.5784
 -11484767.46547  -8936256.26045  21792461.2034                   21792457.8284
 11  9 28  2 22 30.0000000  0  6G15G29G22G21G26G18
 -26262265.87948 -20446374.41546  20633878.6094                   20633875.6374
 -40741617.12548 -31729919.42846  20657316.0394                   20657313.9304
  25122316.77746  19590640.38843  24445132.4774                   24445130.6564
 -17361088.60947 -13513630.31246  21947836.5944                   21947833.0904
 -26915587.97347 -20955518.75645  22015555.1564                   22015553.4884
 -11611688.25047  -9035155.52345  21768308.8204                   21768305.7624
 11  9 28  2 23  0.0000000  0  6G15G29G22G21G26G18
 -26345399.69948 -20511154.00247  20618058.4454                   20618055.8914
 -40787097.75848 -31765358.87246  20648661.6884                   20648659.6644
  24958013.47746  19462612.10343  24413866.8914                   24413863.5784
 -17516484.03547 -13634717.62146  21918265.8204                   21918262.0274
 -26937807.75847 -20972832.88145  22011327.3984                   22011325.2384
 -11738355.27347  -9133857.05346  21744205.0004                   21744201.8484
 11  9 28  2 23 30.0000000  0  6G15G29G22G21G26G18
 -26427907.05948 -20575445.42546  20602357.8444                   20602355.6804
 -40832027.90248 -31800369.37646  20640111.3134                   20640109.1914
  24793907.53546  19334737.60143  24382639.0704                   24382636.2424
 -17671779.72347 -13755727.21946  21888713.8134                   21888710.3914
 -26959445.94147 -20989693.79645  22007209.9144                   22007207.6054
 -11864764.95747  -9232358.06045  21720149.5004                   21720146.3874
 11  9 28  2 24  0.0000000  0  6G15G29G22G21G26G18
 -26509780.98848 -20639243.28047  20586777.9694                   20586775.0824
 -40876401.89148 -31834946.51246  20631667.4384                   20631665.3874
  24630006.70746  19207022.97843  24351448.5704                   24351444.8324
 -17826966.02047 -13876651.57246  21859182.9454                   21859179.4414
 -26980497.96547 -21006097.99445  22003203.6724                   22003201.4804
 -11990910.72347  -9330653.42646  21696145.1724                   21696141.6054
 11  9 28  2 24 30.0000000  0  6G15G29G22G21G26G18
 -26591025.51648 -20702550.68547  20571317.6024                   20571314.6684
 -40920224.64548 -31869094.11347  20623328.3364                   20623326.3834
  24466306.87146  19079464.92443  24320297.3594                   24320294.8054
 -17982045.57847 -13997492.76346  21829672.4694                   21829668.7704
 -27000970.15247 -21022050.36445  21999307.9144                   21999305.2664
 -12116796.41048  -9428746.12746  21672189.8984                   21672186.6724
 11  9 28  2 25  0.0000000  0  6G15G29G22G21G26G18
 -26671643.84048 -20765370.15247  20555976.4844                   20555973.8794
 -40963500.38748 -31902815.47247  20615093.3204                   20615091.3244
  24302805.95346  18952061.88343  24289184.1724                   24289180.5784
 -18137019.03947 -14118251.28246  21800181.8204                   21800178.4344
 -27020867.57447 -21037554.82545  21995520.9534                   21995519.4494
 -12242425.25447  -9526638.70645  21648283.5084                   21648280.0944
 11  9 28  2 25 30.0000000  0  6G15G29G22G21G26G18
 -26751639.88748 -20827704.72047  20540753.4454                   20540751.2234
 -41006233.23448 -31936113.79346  20606961.4144                   20606959.3754
  24139501.05546  18824811.51743  24258108.2734                   24258105.4574
 -18291888.00047 -14238928.36646  21770711.2274                   21770707.5704
 -27040196.12147 -21052616.05245  21991843.2274                   21991841.5744
 -12367800.89147  -9624333.95446  21624425.3444                   21624421.7664
 11  9 28  2 26  0.0000000  0  6G15G29G22G21G26G18
 -26831014.85548 -20889555.33247  20525649.0944                   20525646.3914
 -41048425.75448 -31968991.08346  20598932.6884                   20598930.8444
  23976391.16047  18697713.16143  24227069.3364                   24227066.2934
 -18446652.04747 -14359523.69446  21741260.8364                   21741256.8284
 -27058959.20347 -21067236.65745  21988273.0314                   21988270.8554
 -12492925.28947  -9721833.44445  21600615.1094                   21600611.6844
 11  9 28  2 26 30.0000000  0  6G15G29G22G21G26G18
 -26909770.50048 -20950923.36547  20510662.4224                   20510659.7734
 -41090080.08648 -32001449.00546  20591005.9144                   20591003.7344
  23813475.89847  18570766.38144  24196067.6484                   24196064.4844
 -18601310.09847 -14480036.44046  21711830.2974                   21711826.8014
 -27077160.53947 -21081419.54845  21984809.0784                   21984807.0474
 -12617799.66047  -9819138.12246  21576852.0474                   21576848.6844
 11  9 28  2 27  0.0000000  0  6G15G29G22G21G26G18
 -26987908.49648 -21011810.10847  20495793.0864                   20495790.7584
 -41131199.05948 -32033489.76946  20583181.2194                   20583179.0274
  23650754.01246  18443970.33944  24165102.4844                   24165098.9144
 -18755862.07848 -14600466.52246  21682419.9064                   21682416.2234
 -27094804.13347 -21095167.79845  21981451.5234                   21981449.8014
 -12742425.79347  -9916249.36646  21553136.5474                   21553133.0864
 11  9 28  2 27 30.0000000  0  6G15G29G22G21G26G18
 -25490008.81648 -19844615.54247  20780834.2584                   20780831.7074
 -39596364.37148 -30837514.67646  20875250.5004                   20875248.4614
  25063649.47347  19544928.06244  24433967.4454                   24433964.8874
 -17334882.25048 -13493209.47846  21952823.2974                   21952819.6094
 -25536473.63347 -19880884.30745  22277992.4384                   22277990.5704
 -11291381.80547  -8785565.70646  21829261.0474                   21829257.1954
 11  9 28  2 28  0.0000000  0  6G15G29G22G21G26G18
 -25566919.07848 -19904545.60946  20766198.5704                   20766195.7114
 -39636421.79748 -30868728.25546  20867628.3444                   20867625.7774
  24901309.70346  19418429.73744  24403074.7584                   24403071.7814
 -17489221.41447 -13613473.74546  21923453.5314                   21923450.0434
 -25553014.65247 -19893773.42845  22274844.7894                   22274842.3014
 -11415517.93047  -8882295.13246  21805638.1024                   21805635.2384
 11  9 28  2 28 30.0000000  0  6G15G29G22G21G26G18
 -25643215.97348 -19963997.73347  20751680.0634                   20751677.4804
 -39675950.69948 -30899530.00746  20860106.0784                   20860103.5984
  24739161.38746  19292080.65744  24372218.5314                   24372216.4384
 -17643452.09447 -13733653.45546  21894104.1024                   21894100.8014
 -25569008.09847 -19906235.87645  22271801.0634                   22271799.1414
 -11539409.98848  -8978834.37845  21782062.4924                   21782059.0594
 11  9 28  2 29  0.0000000  0  7G15G29G22G09G21G26G18
 -25718904.87948 -20022976.09546  20737276.8914                   20737273.6024
 -39714956.69148 -30929924.27746  20852683.2584                   20852680.8484
  24577200.35946  19165877.42643  24341397.8364                   24341394.6524
  29672275.06656  23136870.92253  24962169.9534                   24962169.2974
 -17797576.48847 -13853750.36246  21864775.4774                   21864771.7464
 -25584461.52747 -19918277.51545  22268860.4144                   22268858.3714
 -11663063.31247  -9075187.59045  21758532.2584                   21758528.5084
 11  9 28  2 29 30.0000000  0  7G15G29G22G09G21G26G18
 -25793991.83648 -20081485.39446  20722987.9614                   20722985.4454
 -39753446.86348 -30959916.62746  20845358.6724                   20845356.5824
  24415421.31347  19039816.01944  24310613.2424                   24310609.2074
  29493729.94546  22997744.98243  24928193.7424                   24928192.6564
 -17951598.30147 -13973767.31746  21835466.1254                   21835462.7154
 -25599382.67647 -19929904.39745  22266021.0474                   22266019.0944
 -11786483.28947  -9171358.96746  21735045.9614                   21735042.4924
 11  9 28  2 30  0.0000000  0  7G15G29G22G09G21G26G18
 -25868482.38348 -20139529.98046  20708812.8054                   20708809.9304
 -39791427.43748 -30989511.88146  20838131.4844                   20838129.3594
  24253819.77346  18913892.88243  24279860.5004                   24279856.9574
  29315098.73046  22858551.95243  24894202.0084                   24894199.9574
 -18105520.39147 -14093706.58446  21806175.4534                   21806171.8244
 -25613779.19947 -19941122.47645  22263281.7894                   22263279.4384
 -11909675.16447  -9267352.62346  21711603.4384                   21711600.3014
 11  9 28  2 30 30.0000000  0  7G15G29G22G09G21G26G18
 -25942376.53148 -20197109.83346  20694751.5084                   20694748.5944
 -39828898.91848 -31018710.43946  20831000.5314                   20830998.6094
  24092396.46146  18788108.74044  24249142.6254                   24249139.8014
  29136385.27046  22719294.86743  24860194.0864                   24860192.0864
 -18259340.57447 -14213566.43446  21776904.2504                   21776900.8284
 -25627653.05947 -19951933.28845  22260641.9384                   22260639.4574
 -12032639.17247  -9363168.69846  21688203.9614                   21688200.4344
 11  9 28  2 31  0.0000000  0  7G15G29G22G09G21G26G18
 -26015677.04348 -20254227.09346  20680802.9534                   20680800.0274
 -39865865.43748 -31047515.53246  20823966.2734                   20823964.2504
  23931149.52046  18662461.92843  24218458.2424                   24218455.5084
  28957590.78946  22579974.63643  24826170.0554                   24826168.9104
 -18413058.85247 -14333346.87546  21747652.6484                   21747649.4884
 -25641008.98847 -19962340.51444  22258099.9454                   22258097.7274
 -12155377.36747  -9458808.82146  21664847.8524                   21664843.9574
 11  9 28  2 31 30.0000000  0  7G15G29G22G09G21G26G18
 -26088382.06648 -20310880.34946  20666967.2974                   20666964.5354
 -39902325.23848 -31075925.77146  20817028.3754                   20817025.9414
  23770082.21546  18536955.11343  24187807.1174                   24187804.9924
  28778721.16046  22440595.80743  24792131.8204                   24792130.5554
 -18566670.66447 -14453044.35346  21718421.5084                   21718417.6334
 -25653846.79747 -19972343.99544  22255657.3834                   22255654.7074
 -12277887.56247  -9554271.29746  21641534.5084                   21641531.3484
 11  9 28  2 32  0.0000000  0  7G15G29G22G09G21G26G18
 -26160492.21148 -20367070.07246  20653245.0944                   20653242.4534
 -39938279.77348 -31103942.30246  20810186.3914                   20810183.8244
  23609194.62546  18411588.30444  24157192.3524                   24157189.4024
  28599779.16046  22301160.64843  24758080.5084                   24758079.1254
 -18720174.26247 -14572657.53346  21689210.9384                   21689207.4804
 -25666169.29747 -19981945.94544  22253312.1884                   22253309.5864
 -12400170.84847  -9649556.94646  21618265.1024                   21618261.8874
 11  9 28  2 32 30.0000000  0  7G15G29G22G09G21G26G18
 -26232007.75048 -20422796.46046  20639636.4304                   20639633.6294
 -39973730.26247 -31131566.05346  20803440.3364                   20803438.3284
  23448487.23446  18286361.92043  24126610.3444                   24126607.3674
  28420769.07846  22161672.45243  24724015.5234                   24724014.8554
 -18873567.42647 -14692184.64446  21660021.1334                   21660017.0004
 -25677978.73047 -19991148.11944  22251064.4384                   22251062.6844
 -12522226.73847  -9744665.42146  21595038.4454                   21595035.2424
 11  9 28  2 33  0.0000000  0  7G15G29G22G09G21G26G18
 -26302932.52048 -20478062.50846  20626139.6884                   20626137.1174
 -40008681.11347 -31158800.49846  20796789.4064                   20796786.9064
  23287957.64846  18161274.04943  24096062.5084                   24096059.5234
  28241690.87146  22022131.11843  24689938.4144                   24689937.2974
 -19026850.85547 -14811626.26046  21630852.5164                   21630848.6724
 -25689280.76647 -19999954.89444  22248914.2894                   22248912.1764
 -12644058.64147  -9839599.35146  21571854.8754                   21571851.4804
 11  9 28  2 33 30.0000000  0  7G15G29G22G09G21G26G18
 -26373268.60548 -20532869.84046  20612755.2664                   20612752.3324
 -40043135.27347 -31185647.89946  20790233.1564                   20790231.0084
  23127604.78147  18036323.91544  24065548.6884                   24065544.7464
  28062546.43046  21882538.17043  24655847.9064                   24655846.4064
 -19180024.27747 -14930982.14546  21601704.0084                   21601700.4304
 -25700079.23047 -20008369.30244  22246859.1414                   22246857.3244
 -12765668.13747  -9934359.95846  21548713.2664                   21548709.9494
 11  9 28  2 34  0.0000000  0  7G15G29G22G09G21G26G18
 -26443018.10248 -20587220.08146  20599482.1644                   20599479.4534
 -40077095.71947 -31212110.59646  20783770.4924                   20783768.6804
  22967427.14146  17911510.29144  24035067.5164                   24035063.8444
  27883337.34446  21742894.83243  24621746.0554                   24621745.0474
 -19333087.40247 -15050252.07846  21572577.1414                   21572573.7664
 -25710378.53947 -20016394.72744  22244899.3204                   22244897.0744
 -12887057.53948 -10028949.08046  21525613.5704                   21525610.1724
 11  9 28  2 34 30.0000000  0  7G15G29G22G09G21G26G18
 -26512181.83648 -20641113.90446  20586320.6724                   20586318.3674
 -40110564.08648 -31238189.85146  20777401.7424                   20777399.4144
  22807425.07047  17786833.47144  24004620.2504                   24004616.2854
  27704066.71546  21603203.56543  24587631.9614                   24587630.5204
 -19486037.99248 -15169434.33346  21543471.8284                   21543467.7734
 -25720181.40247 -20024033.31744  22243034.0704                   22243031.6334
 -13008227.26247 -10123367.02046  21502555.5084                   21502552.5594
 11  9 28  2 35  0.0000000  0  7G15G29G22G09G21G26G18
 -26580760.87148 -20694552.10046  20573270.5634                   20573268.0204
 -40143541.79348 -31263886.77746  20771126.5784                   20771124.1374
  22647598.73847  17662293.55044  23974206.2504                   23974202.2464
  27524738.39146  21463467.27943  24553506.3754                   24553504.3554
 -19638873.82847 -15288527.17446  21514387.9694                   21514384.3874
 -25729490.43747 -20031287.12644  22241262.2974                   22241260.3554
 -13129177.54347 -10217613.96346  21479539.5784                   21479536.3134
 11  9 28  2 35 30.0000000  0  7G15G29G22G09G21G26G18
 -26648758.89548 -20747537.55646  20560331.3444                   20560328.4184
 -40176032.93747 -31289204.55246  20764943.3364                   20764941.2854
  22487945.77747  17537888.76944  23943824.7274                   23943821.1174
  27345352.82446  21323686.43944  24519369.8134                   24519369.1174
 -19791595.32847 -15407530.91746  21485326.1174                   21485321.9924
 -25738311.03947 -20038160.33844  22239583.6954                   22239581.4414
 -13249911.36747 -10311692.24646  21456564.7424                   21456561.4454
 11  9 28  2 36  0.0000000  0  7G15G29G22G09G21G26G18
 -25140753.43048 -19572468.36146  20847295.2584                   20847292.3324
 -38632617.39547 -30086543.10146  21058645.6414                   21058643.5084
                                  23903892.44147  18641223.87943  24213270.8054
  24213266.3094   28741339.89146  22411468.72343  24785017.1254   24785016.5704
 -18368775.42248 -14298840.05546  21756079.5234                   21756075.9654
 -24171224.69947 -18817054.11944  22537790.3984                   22537788.5664
 -11795004.58247  -9177998.62046  21733424.4064                   21733420.7624
 11  9 28  2 36 30.0000000  0  7G15G29G22G09G21G26G18
 -25207588.87548 -19624547.91846  20834576.6954                   20834573.9804
 -38664138.11747 -30111104.71946  21052647.6024                   21052645.6684
                                  23744589.46547  18517091.76143  24182956.5474
  24182951.8054   28561851.90246  22271607.94243  24750862.6094   24750861.0274
 -18521261.12147 -14417660.06246  21727062.2974                   21727058.6644
 -24179073.80947 -18823170.29744  22536297.0164                   22536294.9534
 -11915305.16847  -9271739.29846  21710531.4614                   21710528.2734
 11  9 28  2 37  0.0000000  0  7G15G29G22G09G21G26G18
 -25273847.28548 -19676177.84846  20821968.0554                   20821965.1604
 -38695178.63747 -30135292.15046  21046740.7504                   21046738.6024
                                  23585458.66046  18393093.82844  24152674.7504
  24152671.2234   28382314.73846  22131708.98043  24716697.7034   24716695.3524
 -18673628.66847 -14536387.99946  21698067.9224                   21698064.3914
 -24186444.43747 -18828913.66044  22534894.5554                   22534892.4494
 -12035392.11747  -9365313.51046  21687680.1484                   21687676.7854
 11  9 28  2 37 30.0000000  0  7G15G29G22G09G21G26G18
 -25339530.21948 -19727359.34146  20809469.1484                   20809466.1414
 -38725741.17247 -30159107.13046  21040924.7814                   21040922.8554
                                  23426500.44946  18269230.41744  24122425.8364
  24122421.8834   28202731.29746  21991773.88143  24682524.0164   24682521.9614
 -18825876.38348 -14655022.55346  21669095.9064                   21669092.4414
 -24193339.60947 -18834286.51244  22533582.6174                   22533580.1094
 -12155266.63747  -9458722.22546  21664868.6254                   21664865.3444
 11  9 28  2 38  0.0000000  0  7G15G29G22G09G21G26G18
 -25404636.48848 -19778091.48646  20797079.9144                   20797076.8984
 -38755825.48048 -30182549.44946  21035200.2344                   21035198.0204
                                  23267716.48846  18145502.74543  24092209.5634
  24092205.8094   28023106.82846  21851806.87343  24648341.9694   24648339.8714
 -18978000.07848 -14773560.48246  21640148.1094                   21640144.1764
 -24199759.97347 -18839289.40944  22532360.3524                   22532358.2894
 -12274927.07448  -9551964.07746  21642097.8444                   21642094.7034
 11  9 28  2 38 30.0000000  0  7G15G29G22G09G21G26G18
 -25469171.19547 -19828378.26046  20784799.1564                   20784796.2464
 -38785437.16848 -30205623.50746  21029565.1644                   21029562.6174
                                  23109103.14146  18021908.06343  24062026.2114
  24062022.3794   27843440.68046  21711807.35743  24614152.6564   24614150.9614
 -19130002.20347 -14892003.65546  21611222.8834                   21611219.2934
 -24205712.78147 -18843927.95244  22531228.0944                   22531225.6994
 -12394378.02748  -9645042.70846  21619367.4064                   21619363.9574
 11  9 28  2 39  0.0000000  0  7G15G29G22G09G21G26G18
 -25533135.63747 -19878220.67546  20772627.0634                   20772624.8404
 -38814578.14548 -30228330.77246  21024019.8204                   21024017.6954
                                  22950660.41046  17898446.27643  24031876.2504
  24031871.6564   27663736.42646  21571778.12043  24579956.4454   24579954.4494
 -19281880.54347 -15010350.40746  21582321.5314                   21582317.7504
 -24211200.41847 -18848204.04344  22530183.4534                   22530181.6334
 -12513620.12148  -9737958.61346  21596676.2034                   21596672.9304
 11  9 28  2 39 30.0000000  0  7G15G29G22G09G21G26G18
 -25596529.25047 -19927618.28346  20760563.8444                   20760560.9774
 -38843248.65248 -30250671.43846  21018563.7664                   21018562.0004
                                  22792389.84046  17775118.65944  24001758.2344
  24001754.4224   27483998.53946  21431722.70043  24545753.0634   24545751.1024
 -19433631.43747 -15128597.82246  21553444.0164                   21553440.1914
 -24216224.65647 -18852119.03744  22529227.3204                   22529224.9804
 -12632652.24247  -9830710.87946  21574024.8674                   21574021.6884
 11  9 28  2 40  0.0000000  0  7G15G29G22G09G21G26G18
 -25659355.47347 -19976573.76446  20748608.1644                   20748605.3594
 -38871452.27347 -30272648.30546  21013197.0704                   21013194.8284
                                  22634289.98846  17651924.07844  23971672.9844
  23971668.9614   27304228.59046  21291642.33243  24511543.6954   24511542.6684
 -19585254.87148 -15246745.91746  21524591.1094                   21524587.1604
 -24220790.04347 -18855676.50344  22528358.6094                   22528356.2704
 -12751477.03147  -9923301.59846  21551413.6414                   21551409.8634
 11  9 28  2 40 30.0000000  0  7G15G29G22G09G21G26G18
 -25721614.91447 -20025087.61246  20736760.8914                   20736757.9844
 -38899191.10547 -30294262.99646  21007918.6254                   21007916.5084
                                  22476360.52347  17528862.28644  23941619.4304
  23941616.0234   27124429.38745  21151539.01343  24477328.4614   24477327.6294
 -19736749.38747 -15364793.56946  21495762.6254                   21495759.1884
 -24224899.61746 -18858878.75844  22527576.8054                   22527574.6174
 -12870094.98047 -10015731.14846  21528841.1724                   21528837.6524
 11  9 28  2 41  0.0000000  0  8G15G29G22G09G06G21G26G18
 -25783311.34448 -20073162.74346  20725020.5084                   20725017.5164
 -38926469.14547 -30315518.62146  21002727.5634                   21002726.0274
                                  22318599.23447  17405931.48544  23911598.8054
  23911594.7704   26944602.23446  21011414.05043  24443110.1724   24443108.1684
  31246263.39156  24363473.57353  24792621.6334                   24792621.0904
 -19888114.85948 -15482740.67146  21466958.4614                   21466955.0664
 -24228558.62146 -18861729.94744  22526880.4694                   22526878.4964
 -12988508.85247 -10108001.66846  21506307.8984                   21506304.3284
 11  9 28  2 41 30.0000000  0  8G15G29G22G09G06G21G26G18
 -25844449.78548 -20120803.07846  20713385.9064                   20713382.9224
 -38953291.99247 -30336419.55546  20997623.5704                   20997621.4654
                                  22161002.77347  17283129.14344  23881609.4614
  23881605.0394   26764746.88745  20871267.17443  24408883.5864   24408881.5634
  31067141.01346  24223897.84943  24758536.1954                   24758534.2384
 -20039352.79748 -15600588.39746  21438179.1954                   21438175.4614
 -24231773.46946 -18864235.04444  22526268.5784                   22526266.7274
 -13106722.84447 -10200116.43346  21483812.4844                   21483808.8914
 11  9 28  2 42  0.0000000  0  8G15G29G22G09G06G21G26G18
 -25905037.98848 -20168014.66046  20701856.5864                   20701853.6334
 -38979668.30948 -30356972.54746  20992604.5554                   20992602.3554
                                  22003564.22747  17160449.82944  23851648.9614
  23851644.9614   26584859.54346  20731095.24843  24374652.7814   24374650.7624
  30888275.60946  24084522.28643  24724498.5864                   24724497.4224
 -20190468.38347 -15718340.78146  21409422.7664                   21409419.2194
 -24234554.17646 -18866401.80144  22525738.9224                   22525737.0704
 -13224744.88747 -10292081.61746  21461353.0784                   21461349.9224
 11  9 28  2 42 30.0000000  0  8G15G29G22G09G06G21G26G18
 -25965076.44547 -20214797.86046  20690431.6484                   20690428.9534
 -39005599.23448 -30377178.47046  20987669.7664                   20987667.7974
                                  21846284.33247  17037894.13744  23821719.9064
  23821716.1024   26404944.36346  20590901.69543  24340415.3914   24340414.2344
  30709670.40645  23945349.47443  24690510.4534                   24690509.4304
 -20341458.94147 -15835995.72646  21380690.1414                   21380686.4614
 -24236902.76246 -18868231.90144  22525292.8444                   22525290.4574
 -13342574.19947 -10383896.64246  21438931.0784                   21438927.7304
 11  9 28  2 43  0.0000000  0  8G15G29G22G09G06G21G26G18
 -26024565.01248 -20261152.59346  20679111.2274                   20679108.1914
 -39031085.14848 -30397037.65046  20982820.0164                   20982817.9384
                                  21689164.88347  16915463.46544  23791821.5314
  23791817.3524   26225006.36346  20450690.32243  24306174.8834   24306172.8794
  30531329.68046  23806382.80542  24656574.5704                   24656573.1024
 -20492320.69148 -15953550.32546  21351982.2504                   21351978.2814
 -24238820.61346 -18869726.35044  22524927.3754                   22524925.2274
 -13460209.47347 -10475560.46646  21416546.0474                   21416542.5314
 11  9 28  2 43 30.0000000  0  8G15G29G22G09G06G21G26G18
 -26083502.54747 -20307077.93646  20667896.3984                   20667892.8324
 -39056125.36348 -30416549.52446  20978055.1254                   20978053.0314
                                  21532208.30547  16793159.71344  23761953.7814
  23761949.0314   26045051.38746  20310465.75643  24271930.3754   24271928.8954
  30353258.65245  23667626.25842  24622688.0784                   24622686.8634
 -20643048.89148 -16071000.84446  21323299.5864                   21323296.1024
 -24240308.28546 -18870885.54544  22524644.6724                   22524642.3404
 -13577648.87147 -10567071.64946  21394198.1334                   21394194.6094
 11  9 28  2 44  0.0000000  0  8G15G29G22G09G06G21G26G18
 -26141891.44548 -20352575.76846  20656784.8284                   20656781.9104
 -39080722.86748 -30435716.43346  20973374.2584                   20973372.1334
                                  21375413.66047  16670982.12544  23732116.1804
  23732112.4454   25865081.85946  20170229.78443  24237683.1884   24237682.1174
  30175458.38745  23529080.69142  24588852.8914                   24588852.4614
 -20793642.66048 -16188346.61546  21294642.3054                   21294638.7814
 -24241369.62947 -18871712.60544  22524442.7194                   22524440.7624
 -13694894.43047 -10658431.80146  21371886.7814                   21371883.6174
 11  9 28  2 44 30.0000000  0  8G15G29G22G09G06G21G26G18
 -24624308.47348 -19170043.57546  20945571.2344                   20945568.2814
 -37529456.34848 -29226937.33546  21268570.4924                   21268568.2234
                                  22794208.79747  17776536.83244  24002104.2344
  24002099.8754   27260529.48446  21257591.66944  24503227.1884   24503226.5704
  31573360.07045                  24618354.80542  24854865.1884   24854863.7624
 -19368672.84848 -15077980.49946  21565805.3594                   21565801.0904
 -22666585.12947 -17644607.82044  22824113.9304                   22824111.8444
 -12236520.15648  -9522036.23446  21649406.5394                   21649403.0634
 11  9 28  2 45  0.0000000  0  8G15G29G22G09G06G21G26G18
 -24681597.55148 -19214684.42546  20934669.5554                   20934666.6564
 -37553168.19948 -29245414.11146  21264058.0394                   21264055.9494
                                  22637744.44147  17654616.67044  23972329.7344
  23972325.5354   27080546.80546  21117345.46944  24468978.0084   24468976.9534
  31396115.50445                  24480242.27742  24821136.1414   24821135.6294
 -19518985.90648 -15195107.54446  21537201.7274                   21537197.6174
 -22666796.56647 -17644772.58144  22824074.3984                   22824071.7304
 -12353373.09848  -9613090.45646  21627170.2034                   21627166.3094
 11  9 28  2 45 30.0000000  0  8G15G29G22G09G06G21G26G18
 -24738340.42248 -19258899.64446  20923871.4924                   20923869.0204
 -37576441.64548 -29263549.27346  21259629.3524                   21259627.5824
                                  22481443.68447  17532823.96344  23942586.5164
  23942582.8674   26900561.08246  20977096.86144  24434728.1334   24434726.1604
  31219151.00846                  24342347.97243  24787461.2274   24787460.4414
 -19669156.85948 -15312123.84846  21508624.9534                   21508621.1684
 -22666588.89847 -17644610.76944  22824113.5864                   22824111.4454
 -12470032.00848  -9703993.48046  21604970.6884                   21604966.5594
 11  9 28  2 46  0.0000000  0  8G15G29G22G09G06G21G26G18
 -24794536.68748 -19302688.94146  20913177.9534                   20913175.0234
 -37599276.99648 -29281343.06846  21255284.0314                   21255281.8524
                                  22325308.44547  17411160.23044  23912874.7734
  23912870.9414   26720577.33646  20836849.85143  24400478.9384   24400476.1804
  31042471.10546                  24204675.35943  24753840.0704   24753839.3324
 -19819181.53548 -15429026.18146  21480076.1254                   21480071.9224
 -22665963.55947 -17644123.51144  22824231.9844                   22824230.7274
 -12586495.87548  -9794744.51646  21582808.0634                   21582804.5124
 11  9 28  2 46 30.0000000  0  8G15G29G22G09G06G21G26G18
 -24850187.24248 -19346053.00446  20902587.6954                   20902584.9104
 -37621675.70748 -29298796.62546  21251021.4924                   21251019.6764
                                  22169339.16847  17289625.75544  23883194.7664
  23883191.0434   26540599.34046  20696607.25343  24366229.9694   24366228.0164
  30866078.68046                  24067226.84143  24720274.4144   24720273.5664
 -19969058.09848 -15545813.08746  21451555.5004                   21451551.6294
 -22664922.92247 -17643312.64744  22824430.2344                   22824428.1254
 -12702764.79348  -9885343.63546  21560682.7814                   21560679.4304
 11  9 28  2 47  0.0000000  0  8G15G29G22G09G06G21G26G18
 -24905293.12148 -19388992.64446  20892101.6094                   20892098.7544
 -37643639.43448 -29315911.24446  21246842.0864                   21246839.8794
                                  22013536.21547  17168220.92944  23853546.0314
  23853542.8054   26360631.26646  20556372.43543  24331982.5084   24331981.2854
  30689976.49246                  23930004.45543  24686763.6884   24686762.8954
 -20118783.83248 -15662482.48446  21423063.8984                   21423059.8164
 -22663469.82447 -17642180.40144  22824707.3204                   22824705.3754
 -12818838.50447  -9975790.66646  21538594.7424                   21538590.9064
 11  9 28  2 47 30.0000000  0  8G15G29G22G09G06G21G26G18
 -24959856.28548 -19431509.39346  20881718.4774                   20881715.5394
 -37665170.91848 -29332689.03846  21242745.0554                   21242742.5634
                                  21857899.07446  17046945.31444  23823928.9694
  23823925.6564   26180675.89546  20416147.54843  24297738.3284   24297737.0554
  30514166.84046                  23793009.97443  24653307.3364   24653307.1174
 -20268356.64548 -15779032.70446  21394600.7974                   21394597.1454
 -22661607.32046 -17640729.12144  22825061.3754                   22825059.9884
 -12934718.47748 -10066086.73846  21516543.5164                   21516540.0204
 11  9 28  2 48  0.0000000  0  8G15G29G22G09G06G21G26G18
 -25013879.91448 -19473605.72346  20871437.9144                   20871435.5784
 -37686273.29348 -29349132.47146  21238729.0164                   21238726.9924
                                  21702426.11347  16925797.62744  23794344.2344
  23794340.3164   26000735.06346  20275933.98644  24263496.5704   24263495.4694
  30338650.61746                  23656244.15143  24619907.3134   24619906.7234
 -20417776.57448 -15895463.80146  21366167.3834                   21366163.2544
 -22659340.23046 -17638962.58144  22825492.6414                   22825490.8594
 -13050406.91447 -10156233.55946  21494528.7734                   21494525.2814
 11  9 28  2 48 30.0000000  0  8G15G29G22G09G06G21G26G18
 -25067362.90648 -19515280.78046  20861260.8284                   20861258.0984
 -37706946.46948 -29365241.43846  21234795.2814                   21234793.1914
                                  21547120.15647  16804780.04244  23764789.9844
  23764786.1764   25820814.51246  20135736.16143  24229259.2814   24229257.3444
  30163432.65646                  23519710.78643  24586564.9844   24586563.4104
 -20567038.80948 -16011772.02746  21337763.5634                   21337759.7234
 -22656669.10946 -17636881.18944  22826001.3674                   22825999.4414
 -13165901.43748 -10246229.27246  21472550.7894                   21472547.1724
 11  9 28  2 49  0.0000000  0  8G15G29G22G09G06G21G26G18
 -25120310.44148 -19556538.59746  20851184.6804                   20851182.3204
 -37727196.31648 -29381020.56346  21230941.9694                   21230939.6484
                                  21391977.14147  16683889.45944  23735266.9924
  23735262.3954   25640913.94946  19995553.98343  24195025.0634   24195022.9774
  29988511.97346                  23383409.04143  24553278.9694   24553278.1254
 -20716145.07048 -16127958.71046  21309389.7894                   21309385.8134
 -22653600.61346 -17634490.25344  22826585.4144                   22826583.2774
 -13281206.50048 -10336077.36446  21450609.2274                   21450605.6054
 11  9 28  2 49 30.0000000  0  8G15G29G22G09G06G21G26G18
 -25172720.69548 -19597377.75046  20841211.7894                   20841209.1604
 -37747021.39548 -29396468.69046  21227169.6254                   21227167.1454
                                  21237000.39547  16563128.47244  23705776.4844
  23705772.4534   25461040.21546  19855392.67743  24160796.2814   24160794.0514
  29813894.49246                  23247343.51443  24520050.2274   24520049.0594
 -20865089.65648 -16244019.40446  21281046.3284                   21281042.6374
 -22650134.21546 -17631789.15644  22827244.3204                   22827242.7424
 -13396319.48048 -10425775.76146  21428703.7504                   21428700.0474
 11  9 28  2 50  0.0000000  0  8G15G29G22G09G06G21G26G18
 -25224598.62148 -19637802.10646  20831339.6024                   20831336.8874
 -37766427.19548 -29411590.12146  21223476.8054                   21223474.5944
                                  21082186.76647  16442494.51544  23676315.8204
  23676311.9774   25281193.37946  19715252.31043  24126572.5944   24126570.0234
  29639579.01246                  23111513.36343  24486878.3594   24486877.5274
 -21013873.98448 -16359955.22846  21252733.6724                   21252729.9844
 -22646276.83246 -17628783.44644  22827978.8054                   22827976.7774
 -13511244.25448 -10515327.52846  21406834.2424                   21406830.9344
 11  9 28  2 50 30.0000000  0  8G15G29G22G09G06G21G26G18
 -25275941.95348 -19677809.90646  20821569.1564                   20821566.5234
 -37785412.28548 -29426383.70446  21219863.8984                   21219862.0124
                                  20927539.94946  16321990.58444  23646887.6884
  23646883.1564   25101380.68046  19575138.50743  24092354.2974   24092353.1454
  29465571.91445                  22975923.47043  24453765.0474   24453765.1174
 -21162492.03148 -16475761.48446  21224452.5234                   21224448.4574
 -22642027.35546 -17625472.20644  22828787.2274                   22828785.6094
 -13625977.34048 -10604729.90646  21385001.3444                   21384997.9654
 11  9 28  2 51  0.0000000  0  8G15G29G22G09G06G21G26G18
 -25326753.03148 -19717402.94246  20811900.5164                   20811897.3834
 -37803979.45748 -29440851.63746  21216330.6254                   21216328.6564
                                  20773058.99247  16201615.86444  23617491.1644
  23617486.5234   24921604.64546  19435053.34343  24058144.6024   24058142.3054
  29291874.73845                  22840575.15543  24420712.0394   24420711.3674
 -21310942.84848 -16591437.43046  21196202.9534                   21196199.3594
 -22637389.78947 -17621858.55344  22829669.6334                   22829667.9264
 -13740520.28948 -10693984.13246  21363204.2504                   21363201.0864
 11  9 28  2 51 30.0000000  0  8G15G29G22G09G06G21G26G18
 -25377034.05148 -19756582.96546  20802332.2114                   20802329.3714
 -37822130.93748 -29454995.65746  21212876.4924                   21212874.2504
                                  20618743.97747  16081370.44644  23588125.8364
  23588120.6094   24741868.79746  19294999.47043  24023942.5314   24023940.1054
  29118490.10945                  22705470.46143  24387717.9614   24387716.3984
 -21459223.93448 -16706981.12046  21167985.8134                   21167982.1914
 -22632367.05947 -17617944.80444  22830625.8054                   22830624.1524
 -13854873.69148 -10783090.66246  21341443.4844                   21341439.9184
 11  9 28  2 52  0.0000000  0  8G15G29G22G09G06G21G26G18
 -25426789.42248 -19795353.37546  20792864.1414                   20792861.2274
 -37839872.17248 -29468820.00646  21209500.6884                   21209498.5434
                                  20464591.29347  15961251.55844  23558791.3284
  23558786.8794   24562173.26646  19154976.97543  23989746.7194   23989745.2034
  28945416.97346                  22570608.27743  24354783.5314   24354780.9654
 -21607336.67648 -16822393.62846  21139801.4304                   21139797.4454
 -22626965.72347 -17613736.01744  22831654.1094                   22831651.3524
 -13969041.53148 -10872052.60646  21319718.2974                   21319714.7194
 11  9 28  2 52 30.0000000  0  8G15G29G22G09G06G21G26G18
 -25476018.03148 -19833713.32646  20783496.3524                   20783493.1914
 -37857202.44148 -29482324.13446  21206202.8834                   21206200.3834
                                  20310604.05147  15841261.56844  23529489.0704
  23529484.6454   24382524.68846  19014991.16043  23955561.3984   23955558.7704
  28772661.04346                  22435993.35643  24321909.4774   24321907.9534
 -21755275.97748 -16937671.00146  21111649.4224                   21111645.4774
 -22621185.61346 -17609232.04144  22832753.7734                   22832751.4414
 -14083021.63748 -10960868.23846  21298028.6094                   21298024.7424
 11  9 28  2 53  0.0000000  0  8G15G29G22G09G06G21G26G18
 -23949302.85248 -18644065.12946  21074020.4534                   21074017.6724
 -36298706.58248 -28267911.78646  21502774.9384                   21502772.7584
                                  21732204.00847  16949001.88244  23800010.1804
  23800006.5084   25778349.14846  20102646.58443  24221178.1564   24221175.7584
  30175647.15646                  23529229.30343  24588888.3444   24588887.1604
 -20327617.85548 -15825210.11046  21383323.6644                   21383319.6884
 -21039613.28947 -16376838.05544  23133716.4144                   23133714.3444
 -12621393.64848  -9821937.33946  21576167.2194                   21576163.3364
 11  9 28  2 53 30.0000000  0  8G15G29G22G09G06G21G26G18
 -23997489.40648 -18681613.10046  21064850.9844                   21064848.0634
 -36315228.09448 -28280785.71246  21499630.9774                   21499628.3794
                                  21578540.66047  16829264.25844  23770768.9614
  23770764.5904   25598797.78547  19962736.52343  24187010.6334   24187008.6094
  30003526.03146                  23395108.98743  24556134.9774   24556132.8794
 -20475210.24648 -15940217.15346  21355237.8204                   21355233.9884
 -21033091.65247 -16371756.32444  23134958.3754                   23134955.9384
 -12735005.80548  -9910466.27246  21554547.1724                   21554544.1054
 11  9 28  2 54  0.0000000  0  8G15G29G22G09G06G21G26G18
 -24045159.29748 -18718758.45546  21055779.5394                   21055776.5204
 -36331350.32448 -28293348.49646  21496562.5554                   21496560.4884
                                  21425037.56647  16709651.54244  23741558.1564
  23741554.1724   25419298.31646  19822866.81543  24152852.2194   24152850.7664
  29831724.02046                  23261237.36043  24523442.8754   24523440.5004
 -20622627.75848 -16055087.92246  21327184.9694                   21327181.2814
 -21026205.65247 -16366390.64044  23136268.3594                   23136266.1644
 -12848436.99248  -9998854.20346  21532962.2194                   21532958.7934
 11  9 28  2 54 30.0000000  0  8G15G29G22G09G06G21G26G18
 -24092313.05147 -18755501.64646  21046806.5704                   21046803.6454
 -36347074.50047 -28305601.10346  21493570.4454                   21493568.0944
                                  21271695.40647  16590164.20844  23712378.1254
  23712373.5984   25239855.19947  19683041.03743  24118705.5314   24118703.7974
  29660244.73446                  23127617.14844  24490810.3754   24490808.9924
 -20769867.16848 -16169819.91346  21299166.3204                   21299162.5824
 -21018957.32847 -16360742.63444  23137648.7114                   23137645.4144
 -12961686.63348 -10087100.65646  21511411.6334                   21511407.8594
 11  9 28  2 55  0.0000000  0  8G15G29G22G09G06G21G26G18
 -24138951.00448 -18791842.91646  21037931.7664                   21037928.7544
 -36362401.45348 -28317544.20246  21490653.8364                   21490651.7034
                                  21118515.40247  16470803.22644  23683228.9144
  23683224.4694   25060473.84846  19543263.37544  24084570.6254   24084569.3094
  29489092.29346                  22994251.71843  24458241.6884   24458240.4264
 -20916924.27048 -16284409.85646  21271182.4924                   21271178.6524
 -21011348.12946 -16354813.38844  23139096.2894                   23139093.9454
 -13074753.61748 -10175204.79146  21489895.6644                   21489892.0744
 11  9 28  2 55 30.0000000  0  8G15G29G22G09G06G21G26G18
 -24185076.98848 -18827785.23146  21029153.8984                   21029151.3914
 -36377335.05547 -28329180.78546  21487811.9384                   21487810.0004
                                  20965495.97347  16351567.40645  23654110.1804
  23654106.1844   24881155.82446  19403535.12644  24050447.4304   24050446.0514
  29318267.09446                  22861141.21644  24425734.8524   24425733.7274
 -21063799.67248 -16398858.20146  21243232.8914                   21243228.8054
 -21003383.22746 -16348607.07844  23140611.2814                   23140609.6604
 -13187640.25048 -10263168.37746  21468413.8674                   21468410.2734
 11  9 28  2 56  0.0000000  0  8G15G29G22G09G06G21G26G18
 -24230694.23848 -18863331.13946  21020473.1174                   21020470.6484
 -36391879.60547 -28340514.23246  21485044.1254                   21485042.2234
                                  20812635.38747  16232455.29944  23625022.0004
  23625017.3634   24701902.77047  19263857.42544  24016336.8984   24016334.8594
  29147769.75846                  22728286.18843  24393289.9924   24393288.6564
 -21210492.78548 -16513164.50846  21215318.1644                   21215314.1024
 -20995066.85546 -16342126.85344  23142193.3834                   23142192.2814
 -13300349.09448 -10350993.43446  21446966.5784                   21446962.3524
 11  9 28  2 56 30.0000000  0  8G15G29G22G09G06G21G26G18
 -24275801.69148 -18898479.80146  21011889.9774                   21011886.9224
 -36406034.27048 -28351543.85146  21482350.8284                   21482349.0124
                                  20659936.32047  16113469.10545  23595964.0234
  23595960.0744   24522721.21547  19124235.48844  23982239.5084   23982237.7894
  28977605.68846                  22595690.89143  24360908.3984   24360907.1994
 -21356997.96948 -16627324.37846  21187439.0864                   21187435.2034
 -20986399.67646 -16335373.25443  23143843.1724                   23143841.6254
 -13412877.65248 -10438678.00246  21425552.5474                   21425549.1454
 11  9 28  2 57  0.0000000  0  8G15G29G22G09G06G21G26G18
 -24320403.23848 -18933234.24546  21003402.2664                   21003399.7234
 -36419803.44547 -28362273.08246  21479730.6254                   21479728.3754
                                  20507396.55947  15994607.00045  23566937.1414
  23566933.0204   24343612.55547  18984670.33344  23948156.1334   23948154.9064
  28807775.04746                  22463355.38843  24328590.9064   24328588.8164
 -21503315.28148 -16741337.84646  21159595.9844                   21159592.0904
 -20977386.79746 -16328350.31243  23145558.6334                   23145556.6134
 -13525228.69948 -10526224.23846  21404172.7814                   21404169.0274
 11  9 28  2 57 30.0000000  0  8G15G29G22G09G06G21G26G18
 -24364503.23048 -18967597.87246  20995010.4844                   20995007.6214
 -36433192.02748 -28372705.77146  21477182.9454                   21477180.6294
                                  20355013.66447  15875867.14844  23537939.1174
  23537935.0434   24164577.57047  18845162.57144  23914087.3594   23914085.6094
  28638277.96146                  22331279.78843  24296335.9144   24296334.7114
 -21649444.83648 -16855205.01246  21131788.5004                   21131784.1334
 -20968033.62946 -16321062.20043  23147338.0234                   23147336.6484
 -13637405.23848 -10613634.52246  21382826.4694                   21382822.9774
 11  9 28  2 58  0.0000000  0  8G15G29G22G09G06G21G26G18
 -24408100.91848 -19001570.09146  20986714.0164                   20986710.9344
 -36446199.87547 -28382841.77146  21474707.8524                   21474705.4224
                                  20202789.76247  15757251.20244  23508971.6174
  23508967.4884   23985622.23046  18705716.91844  23880033.2504   23880031.4144
  28469119.07046                  22199467.68143  24264145.9774   24264145.0124
 -21795382.66048 -16968922.78346  21104017.3134                   21104013.2664
 -20958340.83646 -16313509.44343  23149183.1174                   23149180.7894
 -13749405.55148 -10700907.48946  21361513.4384                   21361509.8364
 11  9 28  2 58 30.0000000  0  8G15G29G22G09G06G21G26G18
 -24451198.65648 -19035152.74246  20978513.2034                   20978510.2114
 -36458829.55148 -28392683.09146  21472304.3984                   21472302.0354
                                  20050724.33247  15638758.67644  23480034.7664
  23480030.0864   23806749.80546  18566335.85044  23845994.2194   23845993.0124
  28300300.44946                  22067920.80343  24232021.6024   24232020.6414
 -21941126.14548 -17082489.11546  21076283.1414                   21076279.0514
 -20948312.00046 -16305694.80244  23151091.0634                   23151089.3984
 -13861230.28948 -10788043.61746  21340233.8834                   21340230.1134
 11  9 28  2 59  0.0000000  0  8G15G29G22G09G06G21G26G18
 -24493797.68748 -19068346.79146  20970406.3984                   20970403.6954
 -36471082.70748 -28402231.01246  21469972.5944                   21469970.5514
                                  19898818.07047  15520390.22444  23451127.5784
  23451123.4774   23627964.71546  18427022.82944  23811972.2814   23811971.3914
  28131825.09846                  21936641.36844  24199961.9614   24199960.9494
 -22086672.98848 -17195902.22946  21048586.5944                   21048582.7704
 -20937949.51647 -16297620.20043  23153064.0004                   23153061.8284
 -13972879.39148 -10875042.90646  21318987.8444                   21318983.9414
 11  9 28  2 59 30.0000000  0  8G15G29G22G09G06G21G26G18
 -24535902.07448 -19101155.40046  20962394.0314                   20962391.1914
 -36482964.54748 -28411489.61046  21467711.7344                   21467709.3404
                                  19747068.41047  15402143.80444  23422250.5864
  23422246.1954   23449267.78947  18287778.48044  23777967.8594   23777966.7934
  27963692.72746                  21805629.15743  24167966.7034   24167965.3794
 -22232023.35548 -17309162.24346  21020926.8524                   21020923.0944
 -20927258.91047 -16289289.90644  23155097.6804                   23155096.2384
 -14084356.24248 -10961907.96346  21297774.8204                   21297770.8094
 11  9 28  3  0  0.0000000  0  8G15G29G22G09G06G21G26G18
 -24577516.18448 -19133581.97746  20954475.7664                   20954472.4454
 -36494479.17648 -28420462.07246  21465520.5704                   21465518.3634
                                  19595473.10547  15284017.68644  23393402.7814
  23393398.3014   23270660.64146  18148604.12344  23743979.7894   23743978.5274
  27795903.87146                  21674884.73444  24136038.0864   24136036.5744
 -22377177.01248 -17422268.98246  20993305.9224                   20993301.6134
 -20916245.17246 -16280707.84544  23157193.3054                   23157192.0434
 -14195663.07048 -11048640.54546  21276593.4224                   21276589.7424
 11  9 28  3  0 30.0000000  0  8G15G29G22G09G06G21G26G18
 -24618638.49648 -19165625.32946  20946649.9534                   20946647.1414
 -36505625.80948 -28429147.76946  21463399.5394                   21463396.9144
                                  19444035.28547  15166014.21144  23364585.4384
  23364580.1174   23092150.16846  18009505.08644  23710010.6334   23710008.7704
  27628464.25446                  21544412.34544  24104175.1724   24104173.6764
 -22522128.30548 -17535218.02946  20965722.3754                   20965718.1024
 -20904908.12947 -16271873.82143  23159351.6884                   23159349.1054
 -14306797.10548 -11135238.48146  21255445.2424                   21255441.7774
 11  9 28  3  1  0.0000000  0  8G15G29G22G09G06G21G26G18
 -24659272.61348 -19197288.27546  20938917.4144                   20938914.9924
 -36516408.54348 -28437549.91346  21461347.6724                   21461345.5164
                                  19292752.94147  15048131.91044  23335797.2274
  23335792.6374   22913737.90646  17870482.59944  23676059.7274   23676058.5634
  27461374.09046                  21414212.31344  24072379.2424   24072377.0824
 -22666876.71148 -17648008.97246  20938177.7814                   20938173.6954
 -20893252.74647 -16262791.76243  23161568.7814                   23161567.3054
 -14417761.02348 -11221703.85046  21234329.5314                   21234326.1994
 11  9 28  3  1 30.0000000  0  8G15G29G22G09G06G21G26G18
 -23123998.72348 -18000970.96846  21231070.9064                   21231067.8204
 -34951408.78148 -27218069.59846  21759156.8284                   21759154.8554
                                  20717051.80547  16157975.20744  23606832.4144
  23606827.3244   24310854.22747  18959144.70044  23941922.0784   23941920.6644
  28870061.94146                  22511891.23144  24340442.6884   24340442.1684
 -21235994.60948 -16533035.89946  21210464.8674                   21210461.0864
 -19305861.91847 -15025863.90843  23463639.8204                   23463637.5864
 -12953131.14548 -10080433.79946  21513039.2814                   21513035.7304
 11  9 28  3  2  0.0000000  0  8G15G29G22G09G06G21G26G18
 -23163662.93448 -18031878.14546  21223522.8524                   21223519.8524
 -34961471.38348 -27225910.60346  21757242.3444   21757240.1134   20566079.74247
                                  16040334.72844  23578103.3444   23578098.3054
  24132649.08646  18820283.60143  23908011.0084                   23908009.4924
  28703677.28946                  22382240.88344  24308781.1254   24308780.2814
 -21380331.25048 -16645506.00746  21182998.6954                   21182995.1914
 -19293579.43046 -15016293.20343  23465976.7584                   23465975.4924
 -13063756.92648 -10166635.70446  21491987.9454                   21491984.4494
 11  9 28  3  2 30.0000000  0  8G15G29G22G09G06G21G26G18
 -23202847.27048 -18062411.38646  21216065.8834                   21216063.1604
 -34971179.20748 -27233475.15946  21755394.9844   21755392.6294   20415260.82847
                                  15922813.53744  23549403.3204   23549398.5354
  23954550.85247  18681505.79643  23874119.8204                   23874118.3554
  28537647.34046                  22252866.99643  24277186.8914   24277185.0864
 -21524460.53148 -16757814.52546  21155571.8524                   21155567.5554
 -19280989.87146 -15006483.17343  23468372.3204                   23468371.0744
 -13174216.03948 -10252707.71246  21470968.4304                   21470964.6454
 11  9 28  3  3  0.0000000  0  8G15G29G22G09G06G21G26G18
 -23241553.29748 -18092571.93246  21208700.5634                   21208697.8324
 -34980535.28548 -27240765.63046  21753614.6174   21753612.2424   20264594.53147
                                  15805411.25844  23520732.6564   23520727.8874
  23776562.67246  18542813.70643  23840249.7274                   23840247.9224
  28371973.82446                  22123770.81043  24245659.6094   24245658.7584
 -21668380.37548 -16869959.84146  21128184.8834                   21128181.0594
 -19268096.45346 -14996436.41143  23470826.1724                   23470824.4654
 -13284509.47348 -10338650.63946  21449979.9534                   21449976.3984
 11  9 28  3  3 30.0000000  0  8G15G29G22G09G06G21G26G18
 -23279784.52748 -18122362.51146  21201425.3674                   21201422.8634
 -34989542.84447 -27247784.53346  21751900.5864   21751898.4184   20114079.47747
                                  15688126.88545  23492090.4924   23492085.9224
  23598687.34847  18404209.60144  23806401.4384                   23806400.0434
  28206657.94547                  21994953.31543  24214201.7274   24214200.0984
 -21812089.49648 -16981940.96246  21100837.7504                   21100833.9534
 -19254903.46546 -14986156.18943  23473337.0314                   23473335.1914
 -13394638.79348 -10424465.67646  21429023.2584                   21429019.7274
 11  9 28  3  4  0.0000000  0  8G15G29G22G09G06G21G26G18
 -23317542.92248 -18151784.62846  21194240.8284                   21194237.5984
 -34998204.78147 -27254534.12046  21750252.3674   21750250.4184   19963715.35247
                                  15570960.10245  23463477.3594   23463472.7664
  23420928.16847  18265695.98744  23772574.3134                   23772572.9654
  28041701.72346                  21866416.08243  24182811.1884   24182809.5904
 -21955586.15648 -17093756.53646  21073531.1724                   21073527.6294
 -19241414.23446 -14975645.20543  23475903.3834                   23475902.2114
 -13504605.18748 -10510153.76746  21408097.4454                   21408093.8634
 11  9 28  3  4 30.0000000  0  8G15G29G22G09G06G21G26G18
 -23354828.73847 -18180838.53446  21187145.1644                   21187142.3404
 -35006521.60547 -27261014.78046  21748669.4454   21748667.7734   19813504.07847
                                  15453912.41445  23434892.6334   23434887.8204
  23243290.76247  18127277.25844  23738771.5314                   23738770.0044
  27877109.41447                  21738162.36443  24151490.2894   24151488.7074
 -22098865.88348 -17205403.07246  21046266.2504                   21046262.0474
 -19227630.03146 -14964904.32743  23478526.8754                   23478525.3284
 -13614406.81648 -10595713.44746  21387202.2894                   21387198.9264
 11  9 28  3  5  0.0000000  0  8G15G29G22G09G06G21G26G18
 -23391646.52048 -18209527.71746  21180139.1644                   21180135.7854
 -35014498.03547 -27267230.20046  21747151.8284   21747149.4734   19663443.27747
                                  15336981.98545  23406336.7974   23406332.2854
  23065776.09847  17988954.18744  23704991.1024                   23704989.2154
  27712880.89147                  21610192.11343  24120238.6564   24120236.4104
 -22241928.64148 -17316880.53446  21019042.0944                   21019038.2664
 -19213555.97346 -14953937.59043  23481205.1644                   23481203.4924
 -13724046.43048 -10681146.91146  21366339.1414                   21366335.3714
 11  9 28  3  5 30.0000000  0  8G15G29G22G09G06G21G26G18
 -23427997.28147 -18237852.97746  21173221.2034                   21173218.8404
 -35022135.32447 -27273181.35246  21745698.6564   21745696.7154   19513533.53547
                                  15220169.28445  23377809.9614   23377805.7114
  22888388.87147  17850730.39844  23671236.4304                   23671234.0784
  27549019.46547                  21482507.95043  24089057.4924   24089053.5904
 -22384771.41848 -17428186.58346  20991860.3524                   20991856.5044
 -19199194.06646 -14942746.59343  23483938.0164                   23483936.5204
 -13833524.25448 -10766454.29646  21345505.8674                   21345502.5664
 11  9 28  3  6  0.0000000  0  8G15G29G22G09G06G21G26G18
 -23463883.70748 -18265816.44246  21166392.8674                   21166389.7504
 -35029437.05147 -27278871.02946  21744308.9694   21744307.1054   19363773.75447
                                  15103473.41844  23349311.3754   23349307.3914
  22711131.71947  17712607.97044  23637504.5784                   23637503.1454
  27385526.44147                  21355110.82843  24057945.3674   24057941.8054
 -22527392.86348 -17539320.16446  20964720.2664                   20964716.2704
 -19184548.57847 -14931334.57544  23486725.8984                   23486724.0004
 -13942841.18448 -10851636.30546  21324703.9454                   21324699.9804
 11  9 28  3  6 30.0000000  0  8G15G29G22G09G06G21G26G18
 -23499308.44148 -18293420.13446  21159651.5554                   21159648.7304
 -35036406.04747 -27284301.44346  21742982.6484   21742980.7664   19214163.45347
                                  14986894.01544  23320841.2974   23320837.2854
  22534008.12547  17574589.61844  23603799.4224                   23603797.5474
  27222403.71947                  21228002.19443  24026903.5704   24026901.0124
 -22669790.84848 -17650279.61346  20937622.6174                   20937618.8014
 -19169622.77047 -14919704.14044  23489565.7584                   23489564.0634
 -14051998.07048 -10936693.58646  21303931.8054                   21303927.9774
 11  9 28  3  7  0.0000000  0  8G15G29G22G09G06G21G26G18
 -23534272.02347 -18320664.47846  21152998.1804                   21152995.3954
 -35043043.45747 -27289473.48546  21741719.5944   21741717.7934   19064704.02047
                                  14870432.17244  23292400.2034   23292396.1334
  22357022.94147  17436679.13244  23570120.4454                   23570118.7114
  27059654.81647                  21101184.91943  23995934.1804   23995930.9614
 -22811961.79348 -17761062.16046  20910568.7814                   20910564.5234
 -19154418.16847 -14907856.47044  23492458.9694                   23492457.1764
 -14160994.62548 -11021625.95746  21283190.4534                   21283186.7234
 11  9 28  3  7 30.0000000  0  8G15G29G22G09G06G21G26G18
 -23568782.21947 -18347555.56046  21146430.9384                   21146428.3524
 -35049357.37147 -27294393.42846  21740518.2504   21740516.0474   18915389.21947
                                  14754083.05445  23263986.6414   23263982.3634
  22180174.08247  17298874.88844  23536466.8284                   23536465.2934
  26897276.54746                  20974656.39643  23965034.0084   23965031.2464
 -22953909.03948 -17871670.38546  20883556.7034                   20883552.9654
 -19138943.69947 -14895798.45543  23495404.1884                   23495402.2704
 -14269836.36748 -11106437.67246  21262478.2344                   21262474.8674
 11  9 28  3  8  0.0000000  0  8G15G29G22G09G06G21G26G18
 -23602839.45347 -18374093.65246  21139950.2034                   21139947.5474
 -35055348.61747 -27299061.96246  21739378.3054   21739376.2814   18766220.98847
                                  14637848.11744  23235601.0314   23235596.7504
  22003466.76247  17161180.86544  23502841.0554                   23502839.1884
  26735272.67646                  20848419.69543  23934205.7114   23934203.8164
 -23095628.78148 -17982101.34946  20856588.5084                   20856584.6054
 -19123200.64147 -14883531.16643  23498399.3524                   23498398.0204
 -14378522.66448 -11191128.28546  21241796.0084                   21241792.6884
 11  9 28  3  8 30.0000000  0  8G15G29G22G09G06G21G26G18
 -23636445.05148 -18400279.84846  21133555.1724                   21133552.6374
 -35061018.88347 -27303480.36446  21738299.3204   21738297.0984   18617199.61347
                                  14521727.64545  23207242.5474   23207238.5234
  21826905.50447  17023600.71744  23469241.9924                   23469240.4844
  26573646.04346                  20722476.94043  23903448.4224   23903447.1684
 -23237117.66048 -18092352.41346  20829663.7504                   20829660.0274
 -19107191.29346 -14871056.39943  23501445.7584                   23501444.8874
 -14487053.04748 -11275697.39746  21221143.7584                   21221140.0784
 11  9 28  3  9  0.0000000  0  8G15G29G22G09G06G21G26G18
 -23669598.57048 -18426113.76646  21127246.5634                   21127243.6564
 -35066367.93747 -27307648.49346  21737281.4924   21737279.1294   18468327.77047
                                  14405723.64145  23178913.7424   23178909.1374
  21650496.82847  16886139.44744  23435672.6334                   23435671.1134
  26412401.77746                  20596832.15044  23872765.3594   23872763.4694
 -23378370.62148 -18202419.63646  20802784.4384                   20802780.3364
 -19090915.67646 -14858374.13743  23504543.0784                   23504541.5434
 -14595425.14148 -11360143.15246  21200521.0164                   21200517.3634
 11  9 28  3  9 30.0000000  0  8G15G29G22G09G06G21G26G18
 -23702304.57448 -18451598.96546  21121022.9224                   21121020.2734
 -35071400.89847 -27311570.29346  21736323.2814   21736321.7074   18319602.55147
                                  14289833.87044  23150612.4384   23150606.8404
  21474241.41047  16748797.60144  23402132.3674                   23402130.6994
  26251539.02346                  20471484.61144  23842154.3914   23842152.8324
 -23519388.28548 -18312303.53046  20775949.7114                   20775945.8364
 -19074379.91446 -14845489.20843  23507689.2274                   23507688.6454
 -14703642.30948 -11444468.20246  21179928.0164                   21179923.7894
 11  9 28  3 10  0.0000000  0  8G15G29G22G09G06G21G26G18
 -22159148.84048 -17249139.96246  21414675.3524                   21414672.7384
 -33500705.08247 -26087651.50146  22035216.7814   22035215.0124   19746443.84847
                                  15401658.29544  23422131.3524   23422126.2774
  22873563.98447  17839178.85844  23668414.7424                   23668412.5314
  27666480.73846                  21574036.64744  24111408.4844   24111407.0864
 -22084748.32448 -17194402.25446  21048952.4844                   21048948.6884
 -17482172.16046 -13604807.93043  23810677.1804                   23810675.5434
 -13236286.36748 -10301073.93446  21459156.4224                   21459152.5984
 11  9 28  3 10 30.0000000  0  9G15G29G22G09G06G21G14G26G18
 -22190980.68448 -17273943.98746  21408617.9844                   21408615.1524
 -33505128.07047 -26091098.00746  22034375.0234   22034373.1804   19597997.14147
                                  15285985.58844  23393882.9614   23393877.5784
  22697611.88747  17702073.31944  23634931.5314                   23634930.3954
  27506373.47747                  21449277.79544  24080941.3364   24080939.5044
 -22225302.38348 -17303924.87946  21022205.9694                   21022202.1294
  37317149.54756  29095943.21952  24657385.6174                   24657382.5124
 -17465139.29746 -13591535.53142  23813917.8524                   23813916.6454
 -13344209.59448 -10385169.95246  21438619.3204                   21438615.5634
 11  9 28  3 11  0.0000000  0  9G15G29G22G09G06G21G14G26G18
 -22222385.19548 -17298415.03946  21402642.0634                   21402639.6374
 -33509256.34447 -26094314.87346  22033589.9694   22033587.5944   19449682.75847
                                  15170415.95244  23365659.5084   23365654.2074
  22521810.42247  17565085.18844  23601477.8204                   23601476.0664
  27346640.97347                  21324810.96044  24050545.2424   24050543.5824
 -22365627.59848 -17413269.20246  20995503.2894                   20995498.7624
  37116963.55146  28939954.03142  24619292.5474                   24619288.4064
 -17447868.64146 -13578077.96542  23817204.8054                   23817202.9534
 -13451993.07448 -10469157.07146  21418108.9064                   21418105.3164
 11  9 28  3 11 30.0000000  0  9G15G29G22G09G06G21G14G26G18
 -22253364.34848 -17322554.64946  21396747.0234                   21396743.6564
 -33513092.37547 -26097304.00546  22032859.8284   22032858.0944   19301500.70347
                                  15054949.42644  23337460.6804   23337456.3014
  22346163.21947  17428217.25444  23568053.5474                   23568051.9924
  27187285.19947                  21200637.71544  24020220.2114   24020219.3794
 -22505721.78148 -17522433.48446  20968843.8984                   20968840.1454
  36916873.93046  28784040.09042  24581215.8054                   24581212.6294
 -17430363.46946 -13564437.61843  23820535.3834                   23820534.1254
 -13559637.28948 -10553035.65146  21397624.5234                   21397621.0004
 11  9 28  3 12  0.0000000  0  9G15G29G22G09G06G21G14G26G18
 -22283920.70348 -17346364.80346  21390932.1174                   21390929.1374
 -33516639.06647 -26100067.70146  22032184.7114   22032182.7934   19153450.46947
                                  14939585.63545  23309288.1024   23309283.8094
  22170673.93847  17291472.38244  23534658.7344                   23534657.3794
  27028308.11747                  21076759.49344  23989968.6024   23989967.1134
 -22645582.68748 -17631415.99246  20942229.3594                   20942225.5084
  36716883.07446  28628203.09843  24543159.2894                   24543155.9844
 -17412626.85546 -13550616.94443  23823910.7814                   23823909.1724
 -13667143.01248 -10636806.32946  21377167.1174                   21377163.6174
 11  9 28  3 12 30.0000000  0  9G15G29G22G09G06G21G14G26G18
 -22314052.04748 -17369843.78646  21385198.3444                   21385195.5004
 -33519894.37547 -26102604.31245  22031565.3134   22031563.5044   19005536.15247
                                  14824327.80044  23281140.4224   23281136.4384
  21995350.60947  17154856.82744  23501296.2664                   23501294.3754
  26869715.96947                  20953181.23544  23959789.6564   23959788.0434
 -22785203.08248 -17740211.09746  20915660.1484                   20915656.3134
  36516997.77046  28472448.33343  24505121.7734                   24505119.4414
 -17394657.48847 -13536614.91244  23827330.5864                   23827328.7774
 -13774506.03148 -10720465.82046  21356736.8834                   21356732.6484
 11  9 28  3 13  0.0000000  0  9G15G29G22G09G06G21G14G26G18
 -22343762.30147 -17392994.63546  21379544.7034                   21379542.2814
 -33522862.56647 -26104917.21145  22031000.6884   22030998.5704   18857755.94947
                                  14709174.45444  23253018.6954   23253014.5274
  21820194.90247  17018371.89344  23467964.8914                   23467963.1134
  26711509.23447                  20829903.31844  23929683.3834   23929681.7664
 -22924583.24648 -17848819.00246  20889137.4454                   20889133.1094
  36317218.74655  28316776.44152  24467104.6024                   24467103.0554
 -17376460.07447 -13522435.14543  23830793.8054                   23830791.9414
 -13881728.85948 -10804016.06246  21336332.6804                   21336328.9454
 11  9 28  3 13 30.0000000  0  9G15G29G22G09G06G21G14G26G18
 -22373051.38748 -17415817.30046  21373971.1484                   21373968.4064
 -33525543.91047 -26107006.59946  22030490.6174   22030488.4734   18710111.96146
                                  14594127.23244  23224923.2424   23224918.4924
  21645212.90647  16882022.27844  23434667.2274                   23434665.6884
  26553692.53547                  20706929.25344  23899652.0784   23899650.1954
 -23063718.22748 -17957235.86446  20862660.8834                   20862656.9694
  36117550.89546  28161191.18442  24429109.1024                   24429106.6954
 -17358035.27347 -13508078.18043  23834300.0864                   23834298.1094
 -13988809.73448 -10887455.69746  21315955.6884                   21315952.2154
 11  9 28  3 14  0.0000000  0  9G15G29G22G09G06G21G14G26G18
 -22401920.96548 -17438313.08146  21368477.4614                   21368474.4344
 -33527940.78547 -26108874.30245  22030034.4454   22030032.2424   18562604.45347
                                  14479186.37145  23196853.3674   23196848.7704
  21470408.69547  16745811.25044  23401403.0314                   23401401.1334
  26396268.16447                  20584260.96244  23869695.7034   23869693.0984
 -23202605.16848 -18065459.44446  20836231.5784                   20836227.2814
  35917997.36746  28005694.93842  24391134.9614                   24391133.1094
 -17339385.73047 -13493546.11444  23837848.4304                   23837847.3094
 -14095748.94148 -10970784.94046  21295606.5394                   21295602.5514
 11  9 28  3 14 30.0000000  0  9G15G29G22G09G06G21G14G26G18
 -22430374.60948 -17460484.76846  21363062.6954                   21363060.0554
 -33530056.91447 -26110523.26145  22029631.6414   22029629.5704   18415231.75047
                                  14364350.56745  23168809.3674   23168805.0554
  21295784.57447  16609740.49044  23368173.1414                   23368171.4304
  26239236.73847                  20461898.80943  23839812.8674   23839810.5234
 -23341243.03148 -18173488.93046  20809849.6174                   20809845.2734
  35718559.00846  27850288.40743  24353183.5784                   24353180.7464
 -17320515.82847 -13478842.28343  23841439.9534                   23841438.4384
 -14202548.07048 -11054005.03446  21275282.7974                   21275279.4264
 11  9 28  3 15  0.0000000  0  9G15G29G22G09G06G21G14G26G18
 -22458414.80948 -17482334.28246  21357727.4614                   21357724.4184
 -33531895.09047 -26111955.61745  22029281.9694   22029279.9264   18267993.62547
                                  14249619.60445  23140790.9924   23140786.4614
  21121344.11747  16473812.90344  23334978.6644                   23334976.2034
  26082600.36346                  20339844.54944  23810005.8524   23810003.2734
 -23479629.47348 -18281322.51146  20783515.4454                   20783511.4454
  35519238.46146  27694973.71243  24315255.5084                   24315252.1684
 -17301428.53147 -13463969.17543  23845071.7814                   23845069.9344
 -14309207.31248 -11137116.11546  21254986.1644                   21254982.3444
 11  9 28  3 15 30.0000000  0  9G15G29G22G09G06G21G14G26G18
 -22486042.91848 -17503862.68446  21352469.9304                   21352466.9264
 -33533457.25047 -26113172.89745  22028984.3444   22028982.8324   18120890.37147
                                  14134993.74345  23112797.8754   23112794.1374
  20947091.78147  16338031.86244  23301818.9774                   23301817.0314
  25926361.85246                  20218100.27243  23780274.8914   23780272.4144
 -23617761.65247 -18388957.97946  20757229.8134                   20757225.5864
  35320038.66846  27539753.05043  24277348.2504                   24277346.0394
 -17282126.06746 -13448928.38443  23848745.1724                   23848743.5704
 -14415726.90247 -11220118.38146  21234716.1414                   21234712.3204
 11  9 28  3 16  0.0000000  0  9G15G29G22G09G06G21G14G26G18
 -22513262.37948 -17525072.66646  21347289.9304                   21347286.5944
 -33534746.88347 -26114177.82946  22028739.5004   22028737.4344   17973920.64147
                                  14020471.92945  23084830.7034   23084826.4614
  20773029.89147  16202399.26644  23268696.0394                   23268694.3444
  25770522.03946                  20096666.62843  23750619.0164   23750617.6374
 -23755638.36748 -18496394.37146  20730992.6644                   20730988.5864
  35120960.82446  27384627.41043  24239465.3364                   24239462.4924
 -17262612.73046 -13433723.20743  23852457.6334                   23852456.5274
 -14522108.42648 -11303013.06046  21214472.6564                   21214468.9344
 11  9 28  3 16 30.0000000  0  9G15G29G22G09G06G21G14G26G18
 -22540075.82048 -17545966.26646  21342187.5314                   21342184.9384
 -33535767.10247 -26114972.83645  22028544.9614   22028543.1484   17827084.11747
                                  13906053.91445  23056888.6174   23056883.6844
  20599162.01647  16066917.82844  23235610.8284                   23235608.3164
  25615082.49646                  19975544.94443  23721039.9224   23721037.8364
 -23893257.52348 -18603630.06746  20704804.6484                   20704800.3164
  34922007.29746  27229598.69343  24201605.1094                   24201602.2894
 -17242891.51246 -13418356.08642  23856210.6024                   23856208.5204
 -14628352.41448 -11385800.56946  21194254.9384                   21194251.0514
 11  9 28  3 17  0.0000000  0  9G15G29G22G09G06G21G14G26G18
 -22566487.12548 -17566546.50746  21337161.7974                   21337159.0784
 -33536522.41847 -26115561.41146  22028401.3594   22028399.7274   17680378.89147
                                  13791738.17045  23028971.6804   23028967.0744
  20425489.79347  15931588.84244  23202561.4774                   23202559.6254
  25460043.66846                  19854735.50043  23691537.3834   23691535.0744
 -24030618.34448 -18710664.46846  20678665.8594                   20678661.4654
  34723178.84046  27074667.47643  24163769.2664                   24163767.1484
 -17222967.38746 -13402830.75442  23860002.9694                   23859999.7234
 -14734461.16048 -11468482.70446  21174063.1334                   21174059.5474
 11  9 28  3 17 30.0000000  0  9G15G29G22G09G06G21G14G26G18
 -22592494.39847 -17586811.93446  21332212.3204                   21332210.0314
 -33537010.93047 -26115942.09845  22028308.9694   22028306.7814   17533808.80947
                                  13677527.79345  23001080.0004   23001075.0314
  20252021.29347  15796418.59744  23169551.3364                   23169549.4574
  25305411.60546                  19734242.98944  23662111.8754   23662109.1914
 -24167714.53947 -18817492.66046  20652577.0634                   20652573.2194
  34524482.19946  26919839.02043  24125957.8204                   24125956.3204
 -17202838.75846 -13387146.21942  23863832.9844                   23863830.1954
 -14840431.01647 -11551056.61446  21153897.9224                   21153894.0434
 11  9 28  3 18  0.0000000  0  9G15G29G22G09G06G21G14G26G18
 -22618101.60948 -17606765.62346  21327339.7274                   21327336.7814
 -33537236.93447 -26116118.22045  22028265.5164   22028263.9184   17387371.69547
                                  13563420.99245  22973214.1564   22973208.6804
  20078758.24647  15661408.47744  23136580.3984                   23136578.7114
  25151186.71147                  19614067.79444  23632763.8834   23632761.9384
 -24304545.47348 -18924114.15246  20626539.5164                   20626535.2344
  34325917.88346  26765113.57343  24088173.3134                   24088171.0474
 -17182510.71146 -13371306.19942  23867700.9534                   23867697.8794
 -14946264.42248 -11633524.19746  21133758.5394                   21133754.4574
 11  9 28  3 18 30.0000000  0 10G15G29G22G09G06G21G14G03G26G18
 -21067893.21948 -16398811.04946  21622334.4614                   21622331.9104
 -31961786.27347 -24888494.33645  22328063.4924   22328061.9304   18816489.71947
                                  14677019.47445  23245166.1174   23245160.5634
  21481127.28547  16754163.60744  23403442.6024                   23403440.3634
  26572793.17246                  20721813.14544  23903285.7734   23903284.8164
 -22865687.01248 -17802925.73346  20900344.7424                   20900340.8014
  35702912.35546  27838096.32043  24350206.3284                   24350204.1374
  39148660.56356  30519699.33653  24271595.8594                   24271594.0044
 -15586569.63346 -12127715.73042  24171398.6724                   24171396.8244
 -13476540.93748 -10488285.10246  21413437.2584                   21413433.4844
 11  9 28  3 19  0.0000000  0 10G15G29G22G09G06G21G14G03G26G18
 -21092719.25048 -16418156.03146  21617610.4144                   21617607.3054
 -31961507.22747 -24888276.93845  22328116.9774   22328115.3554   18670306.67247
                                  14563110.68944  23217348.2424   23217342.7664
  21308274.65247  16619473.25344  23370550.2274                   23370547.4224
  26419376.64146                  20602267.83844  23874091.8984   23874089.8444
 -23001991.68748 -17909137.16046  20874407.1254                   20874402.7774
  35504608.87546  27683574.17543  24312470.0394                   24312467.6374
  38987027.71946  30393751.80643  24240837.2664                   24240835.7274
 -15565862.83246 -12111580.53943  24175339.7344                   24175337.7894
 -13582114.03948 -10570549.84046  21393347.6724                   21393343.7154
 11  9 28  3 19 30.0000000  0 10G15G29G22G09G06G21G14G03G26G18
 -21117163.03948 -16437203.15346  21612959.2344                   21612956.1844
 -31960984.92247 -24887869.96645  22328216.5864   22328214.4384   18524244.75447
                                  14449296.22444  23189552.7734   23189547.8524
  21135627.38747  16484942.94444  23337696.0474                   23337693.8754
  26266361.63747                  20483035.39144  23844974.5474   23844972.5394
 -23138035.24248 -18015145.12446  20848518.7584                   20848514.7814
  35306434.05146  27529152.24443  24274759.0164                   24274755.5594
  38825809.91446  30268127.60443  24210159.3364                   24210157.3794
 -15544976.78547 -12095305.72343  24179313.9924                   24179312.5664
 -13687563.12148 -10652717.95846  21373281.1884                   21373277.5234
 11  9 28  3 20  0.0000000  0 10G15G29G22G09G06G21G14G03G26G18
 -21141221.52348 -16455950.03546  21608380.7974                   21608377.8754
 -31960216.32847 -24887271.08845  22328362.7034   22328361.0594   18378309.51247
                                  14335580.49944  23161782.5084   23161778.0904
  20963194.92247  16350579.99544  23304883.3834                   23304881.2854
  26113756.08247                  20364122.03344  23815934.3054   23815932.5704
 -23273809.12548 -18120942.94346  20822681.6484                   20822677.6884
  35108395.97346  27374836.86543  24237073.6174                   24237070.3984
  38665014.82446  30142832.75843  24179560.9304                   24179559.0394
 -15523908.18747 -12078888.65943  24183322.7424                   24183321.1294
 -13792882.72348 -10734785.16546  21353239.4224                   21353235.8874
